[[{"header":{"parameterUnit":"m.s-1","parameterCategory":1,"la1":31.0,"la2":29.5877,"lo1":-88.7671,"lo2":-86.6584,"dy":0.0162,"dx":0.0185,"nx":115,"ny":88,"refTime":"2024-04-02T18:00:00:Z","depth":0,"parameterNumber":2,"parameterNumberName":"U-component_of_WINDS"},"data":[0.0,0.0,0.0,0.0,0.0,0.0,0.0,0.0,0.0,0.0,0.0,0.0,0.0,0.0,0.0,0.0,0.0,0.0,0.0,0.0,0.0,0.0,0.0,0.0,0.0,0.0,0.0,0.0,0.0,0.0,0.0,0.0,0.0,0.0,0.0,0.0,0.0,0.0,0.0,0.0,0.0,0.0,0.0,0.0,0.0,0.0,0.0,0.0,0.0,0.0,0.0,0.0,0.0,0.0,0.0,0.0,0.0,0.0,0.0,0.0,0.0,0.0,0.0,0.0,0.0,0.0,0.0,0.0,0.0,0.0,0.0,0.0,0.0,0.0,0.0,0.0,0.0,0.0,0.0,0.0,0.0,0.0,0.0,0.0,0.0,0.0,0.0,0.0,0.0,0.0,0.0,0.0,0.0,0.0,0.0,0.0,0.0,0.0,0.0,0.0,0.0,0.0,0.0,0.0,0.0,0.0,0.0,0.0,0.0,0.0,0.0,0.0,0.0,0.0,0.0,0.0,0.0,0.0,0.0,0.0,0.0,0.0,0.0,0.0,0.0,0.0,0.0,0.0,0.0,0.0,0.0,0.0,0.0,0.0,0.0,0.0,0.0,0.0,0.0,0.0,0.0,0.0,0.0,0.0,0.0,0.0,0.0,0.0,0.0,0.0,0.0,0.0,0.0,0.0,0.0,0.0,0.0,0.0,0.0,0.0,0.0,0.0,0.0,0.0,0.0,0.0,0.0,0.0,0.0,0.0,0.0,0.0,0.0,0.0,0.0,0.0,0.0,0.0,0.0,0.0,0.0,0.0,0.0,0.0,0.0,0.0,0.0,0.0,0.0,0.0,0.0,0.0,0.0,0.0,0.0,0.0,0.0,0.0,0.0,0.0,0.0,0.0,0.0,0.0,0.0,0.0,0.0,0.0,0.0,0.0,0.0,0.0,0.0,0.0,0.0,0.0,0.0,0.0,0.0,0.0,0.0,0.0,0.0,0.0,0.0,0.0,0.0,0.0,0.0,0.0,0.0,0.0,0.0,0.0,0.0,0.0,0.0,0.0,0.0,0.0,0.0,0.0,0.0,0.0,0.0,0.0,0.0,0.0,0.0,0.0,0.0,0.0,0.0,0.0,0.0,0.0,0.0,0.0,0.0,0.0,0.0,0.0,0.0,0.0,0.0,0.0,0.0,0.0,0.0,0.0,0.0,0.0,0.0,0.0,0.0,0.0,0.0,0.0,0.0,0.0,0.0,0.0,0.0,0.0,0.0,0.0,0.0,0.0,0.0,0.0,0.0,0.0,0.0,0.0,0.0,0.0,0.0,0.0,0.0,0.0,0.0,0.0,0.0,0.0,0.0,0.0,0.0,0.0,0.0,0.0,0.0,0.0,0.0,0.0,0.0,0.0,0.0,0.0,0.0,0.0,0.0,0.0,0.0,0.0,0.0,0.0,0.0,0.0,0.0,0.0,0.0,0.0,0.0,0.0,0.0,0.0,0.0,0.0,0.0,0.0,0.0,0.0,0.0,0.0,0.0,0.0,0.0,0.0,0.0,0.0,0.0,0.0,0.0,0.0,0.0,0.0,0.0,0.0,0.0,0.0,0.0,0.0,0.0,0.0,0.0,0.0,0.0,0.0,0.0,0.0,0.0,0.0,0.0,0.0,0.0,0.0,0.0,0.0,0.0,0.0,0.0,0.0,0.0,0.0,0.0,0.0,0.0,0.0,0.0,0.0,0.0,0.0,0.0,0.0,0.0,0.0,0.0,0.0,0.0,0.0,0.0,0.0,0.0,0.0,0.0,0.0,0.0,0.0,0.0,0.0,0.0,0.0,0.0,0.0,0.0,0.0,0.0,0.0,0.0,0.0,0.0,0.0,0.0,0.0,0.0,0.0,0.0,0.0,0.0,0.0,0.0,0.0,0.0,0.0,0.0,0.0,0.0,0.0,0.0,0.0,0.0,0.0,0.0,0.0,0.0,0.0,0.0,0.0,0.0,0.0,0.0,0.0,0.0,0.0,0.0,0.0,0.0,0.0,0.0,0.0,0.0,0.0,0.0,0.0,0.0,0.0,0.0,0.0,0.0,0.0,0.0,0.0,0.0,0.0,0.0,0.0,0.0,0.0,0.0,0.0,0.0,0.0,0.0,0.0,0.0,0.0,0.0,0.0,0.0,0.0,0.0,0.0,0.0,0.0,0.0,0.0,0.0,0.0,0.0,0.0,0.0,0.0,0.0,0.0,0.0,0.0,0.0,0.0,0.0,0.0,0.0,0.0,0.0,0.0,0.0,0.0,0.0,0.0,0.0,0.0,0.0,0.0,0.0,0.0,0.0,0.0,0.0,0.0,0.0,0.0,0.0,0.0,0.0,0.0,0.0,0.0,0.0,0.0,0.0,0.0,0.0,0.0,0.0,0.0,0.0,0.0,0.0,0.0,0.0,0.0,0.0,0.0,0.0,0.0,0.0,0.0,0.0,0.0,0.0,0.0,0.0,0.0,0.0,0.0,0.0,0.0,0.0,0.0,0.0,0.0,0.0,0.0,0.0,0.0,0.0,0.0,0.0,0.0,0.0,0.0,0.0,0.0,0.0,0.0,0.0,0.0,0.0,0.0,0.0,0.0,0.0,0.0,0.0,0.0,0.0,0.0,0.0,0.0,0.0,0.0,0.0,0.0,0.0,0.0,0.0,0.0,0.0,0.0,0.0,0.0,0.0,0.0,0.0,0.0,0.0,0.0,0.0,0.0,0.0,0.0,0.0,0.0,0.0,0.0,0.0,0.0,0.0,0.0,0.0,0.0,0.0,0.0,0.0,0.0,0.0,0.0,0.0,0.0,0.0,0.0,0.0,0.0,0.0,0.0,0.0,0.0,0.0,0.0,0.0,0.0,0.0,0.0,0.0,0.0,0.0,0.0,0.0,0.0,0.0,0.0,0.0,0.0,0.0,0.0,0.0,0.0,0.0,0.0,0.0,0.0,0.0,0.0,0.0,0.0,0.0,0.0,0.0,0.0,0.0,0.0,0.0,0.0,0.0,0.0,0.0,0.0,0.0,0.0,0.0,0.0,0.0,0.0,0.0,0.0,0.0,0.0,0.0,0.0,0.0,0.0,0.0,0.0,0.0,0.0,0.0,0.0,0.0,0.0,0.0,0.0,0.0,0.0,0.0,0.0,0.0,0.0,0.0,0.0,0.0,0.0,0.0,0.0,0.0,0.0,0.0,0.0,0.0,0.0,0.0,0.0,0.0,0.0,0.0,0.0,0.0,0.0,0.0,0.0,0.0,0.0,0.0,0.0,0.0,0.0,0.0,0.0,0.0,0.0,0.0,0.0,0.0,0.0,0.0,0.0,0.0,0.0,0.0,0.0,0.0,0.0,0.0,0.0,0.0,0.0,0.0,0.0,0.0,0.0,0.0,0.0,0.0,0.0,0.0,0.0,0.0,0.0,0.0,0.0,0.0,0.0,0.0,0.0,0.0,0.0,0.0,0.0,0.0,0.0,0.0,0.0,0.0,0.0,0.0,0.0,0.0,0.0,0.0,0.0,0.0,0.0,0.0,0.0,0.0,0.0,0.0,0.0,0.0,0.0,0.0,0.0,0.0,0.0,0.0,0.0,0.0,0.0,0.0,0.0,0.0,0.0,0.0,0.0,0.0,0.0,0.0,0.0,0.0,0.0,0.0,0.0,0.0,0.0,0.0,0.0,0.0,0.0,0.0,0.0,0.0,0.0,0.0,0.0,0.0,0.0,0.0,0.0,0.0,0.0,0.0,0.0,0.0,0.0,0.0,0.0,0.0,0.0,0.0,0.0,0.0,0.0,0.0,0.0,0.0,0.0,0.0,0.0,0.0,0.0,0.0,0.0,0.0,0.0,0.0,0.0,0.0,0.0,0.0,0.0,0.0,0.0,0.0,0.0,0.0,0.0,0.0,0.0,0.0,0.0,0.0,0.0,0.0,0.0,0.0,0.0,0.0,0.0,0.0,0.0,0.0,0.0,0.0,0.0,0.0,0.0,0.0,0.0,0.0,0.0,0.0,0.0,0.0,0.0,0.0,0.0,0.0,0.0,0.0,0.0,0.0,0.0,0.0,0.0,0.0,0.0,0.0,0.0,0.0,0.0,0.0,0.0,0.0,0.0,0.0,0.0,0.0,0.0,0.0,0.0,0.0,0.0,0.0,0.0,0.0,0.0,0.0,0.0,0.0,0.0,0.0,0.0,0.0,0.0,0.0,0.0,0.0,0.0,0.0,0.0,0.0,0.0,0.0,0.0,0.0,0.0,0.0,0.0,-4.5414,0.0,0.0,0.0,0.0,0.0,0.0,0.0,0.0,0.0,0.0,0.0,0.0,0.0,0.0,0.0,0.0,0.0,0.0,0.0,0.0,0.0,0.0,0.0,0.0,0.0,0.0,0.0,0.0,0.0,0.0,0.0,0.0,0.0,0.0,0.0,0.0,0.0,0.0,0.0,0.0,0.0,0.0,0.0,0.0,0.0,0.0,0.0,0.0,0.0,0.0,0.0,0.0,0.0,0.0,0.0,0.0,0.0,0.0,0.0,0.0,0.0,0.0,0.0,0.0,0.0,0.0,0.0,0.0,0.0,0.0,0.0,0.0,0.0,0.0,0.0,0.0,0.0,0.0,0.0,0.0,0.0,0.0,0.0,0.0,0.0,0.0,0.0,0.0,0.0,0.0,0.0,0.0,0.0,0.0,0.0,0.0,0.0,0.0,0.0,0.0,0.0,0.0,0.0,0.0,0.0,0.0,0.0,0.0,0.0,0.0,-4.6079,-4.6035,-4.5621,-4.5414,-4.5414,0.0,0.0,0.0,0.0,0.0,0.0,0.0,0.0,0.0,0.0,0.0,0.0,0.0,0.0,0.0,0.0,0.0,0.0,0.0,0.0,0.0,0.0,0.0,0.0,0.0,0.0,0.0,0.0,0.0,0.0,0.0,0.0,0.0,0.0,0.0,0.0,0.0,0.0,0.0,0.0,0.0,0.0,0.0,0.0,0.0,0.0,0.0,0.0,0.0,0.0,0.0,0.0,0.0,0.0,0.0,0.0,0.0,0.0,0.0,0.0,0.0,0.0,0.0,0.0,0.0,0.0,0.0,0.0,0.0,0.0,0.0,0.0,0.0,0.0,0.0,0.0,0.0,0.0,0.0,0.0,0.0,0.0,0.0,0.0,0.0,0.0,0.0,0.0,0.0,0.0,0.0,0.0,0.0,0.0,0.0,0.0,0.0,0.0,0.0,0.0,0.0,0.0,0.0,0.0,0.0,0.0,0.0,0.0,0.0,0.0,0.0,0.0,-4.6069,-4.5587,-4.5414,0.0,0.0,0.0,0.0,0.0,0.0,0.0,0.0,0.0,0.0,0.0,0.0,0.0,0.0,0.0,0.0,0.0,0.0,0.0,0.0,0.0,0.0,0.0,0.0,0.0,0.0,0.0,0.0,0.0,0.0,0.0,0.0,0.0,0.0,0.0,0.0,0.0,0.0,0.0,0.0,0.0,0.0,0.0,0.0,0.0,0.0,0.0,0.0,0.0,0.0,0.0,0.0,0.0,0.0,0.0,0.0,0.0,0.0,0.0,0.0,0.0,0.0,0.0,0.0,0.0,0.0,0.0,0.0,0.0,0.0,0.0,0.0,0.0,0.0,0.0,0.0,0.0,0.0,0.0,0.0,0.0,0.0,0.0,0.0,0.0,0.0,0.0,0.0,0.0,0.0,0.0,0.0,0.0,0.0,0.0,0.0,0.0,0.0,0.0,0.0,0.0,0.0,0.0,0.0,0.0,0.0,0.0,0.0,0.0,0.0,-4.7614,-4.7596,-4.6862,0.0,-4.5466,0.0,0.0,0.0,0.0,0.0,0.0,0.0,0.0,0.0,0.0,0.0,0.0,0.0,0.0,0.0,0.0,0.0,0.0,0.0,0.0,0.0,0.0,0.0,0.0,0.0,0.0,0.0,0.0,0.0,0.0,0.0,0.0,0.0,0.0,0.0,0.0,0.0,0.0,0.0,0.0,0.0,0.0,0.0,0.0,0.0,0.0,0.0,0.0,0.0,0.0,0.0,0.0,0.0,0.0,0.0,0.0,0.0,0.0,0.0,0.0,0.0,0.0,0.0,0.0,0.0,0.0,0.0,0.0,0.0,0.0,0.0,0.0,0.0,0.0,0.0,0.0,0.0,0.0,0.0,0.0,0.0,0.0,0.0,0.0,0.0,0.0,0.0,0.0,0.0,0.0,0.0,0.0,0.0,0.0,0.0,0.0,0.0,0.0,0.0,0.0,0.0,0.0,0.0,0.0,0.0,0.0,0.0,0.0,0.0,0.0,-4.8277,-4.8344,-4.7217,-4.6441,0.0,0.0,0.0,0.0,0.0,0.0,0.0,0.0,0.0,0.0,0.0,0.0,0.0,0.0,0.0,0.0,0.0,0.0,0.0,0.0,0.0,0.0,0.0,0.0,0.0,0.0,0.0,0.0,0.0,0.0,0.0,0.0,0.0,0.0,0.0,0.0,0.0,0.0,0.0,0.0,0.0,0.0,0.0,0.0,0.0,0.0,0.0,0.0,0.0,0.0,0.0,0.0,0.0,0.0,0.0,0.0,0.0,0.0,0.0,0.0,0.0,0.0,0.0,0.0,0.0,0.0,0.0,0.0,0.0,0.0,0.0,0.0,0.0,0.0,0.0,0.0,0.0,0.0,0.0,0.0,0.0,0.0,0.0,0.0,0.0,0.0,0.0,0.0,0.0,0.0,0.0,0.0,0.0,0.0,0.0,0.0,0.0,0.0,0.0,0.0,0.0,0.0,0.0,0.0,0.0,0.0,0.0,0.0,0.0,0.0,-4.9297,-4.8844,-4.8718,-4.7703,-4.6945,-4.6542,0.0,0.0,0.0,0.0,0.0,0.0,0.0,0.0,0.0,0.0,0.0,0.0,0.0,0.0,0.0,0.0,0.0,0.0,0.0,0.0,0.0,0.0,0.0,0.0,0.0,0.0,0.0,0.0,0.0,0.0,0.0,0.0,0.0,0.0,0.0,0.0,0.0,0.0,0.0,0.0,0.0,0.0,0.0,0.0,0.0,0.0,0.0,0.0,0.0,0.0,0.0,0.0,0.0,0.0,0.0,0.0,0.0,0.0,0.0,0.0,0.0,0.0,0.0,0.0,0.0,0.0,0.0,0.0,0.0,0.0,0.0,0.0,0.0,0.0,0.0,0.0,0.0,0.0,0.0,0.0,0.0,0.0,0.0,0.0,0.0,0.0,0.0,0.0,0.0,0.0,0.0,0.0,0.0,0.0,0.0,0.0,0.0,0.0,0.0,0.0,0.0,0.0,0.0,0.0,0.0,0.0,0.0,0.0,-4.9982,-4.975,-4.933,-4.8644,-4.8524,-4.782,0.0,0.0,0.0,0.0,0.0,0.0,0.0,0.0,0.0,0.0,0.0,0.0,0.0,0.0,0.0,0.0,0.0,0.0,0.0,0.0,0.0,0.0,0.0,0.0,0.0,0.0,0.0,0.0,0.0,0.0,0.0,0.0,0.0,0.0,0.0,0.0,0.0,0.0,0.0,0.0,0.0,0.0,0.0,0.0,0.0,0.0,0.0,0.0,0.0,0.0,0.0,0.0,0.0,0.0,0.0,0.0,0.0,0.0,0.0,0.0,0.0,0.0,0.0,0.0,0.0,0.0,0.0,0.0,0.0,0.0,0.0,0.0,0.0,0.0,0.0,0.0,0.0,0.0,0.0,0.0,0.0,0.0,0.0,0.0,0.0,0.0,0.0,0.0,0.0,0.0,0.0,0.0,0.0,0.0,0.0,0.0,0.0,0.0,0.0,0.0,0.0,0.0,0.0,0.0,0.0,0.0,0.0,0.0,0.0,-4.9683,-4.9607,-4.9381,-4.8988,-4.8663,-4.7969,0.0,0.0,0.0,0.0,0.0,0.0,0.0,0.0,0.0,0.0,0.0,0.0,0.0,0.0,0.0,0.0,0.0,0.0,0.0,0.0,0.0,0.0,0.0,0.0,0.0,0.0,0.0,0.0,0.0,0.0,0.0,0.0,0.0,0.0,0.0,0.0,0.0,0.0,0.0,0.0,0.0,0.0,0.0,0.0,0.0,0.0,0.0,0.0,0.0,0.0,0.0,0.0,0.0,0.0,0.0,0.0,0.0,0.0,0.0,0.0,0.0,0.0,0.0,0.0,0.0,0.0,0.0,0.0,0.0,0.0,0.0,0.0,0.0,0.0,0.0,0.0,0.0,0.0,0.0,0.0,0.0,0.0,0.0,0.0,0.0,0.0,0.0,0.0,0.0,0.0,0.0,0.0,0.0,0.0,0.0,0.0,0.0,0.0,0.0,0.0,0.0,0.0,0.0,0.0,0.0,0.0,0.0,0.0,0.0,-4.9428,0.0,-4.9337,-4.9199,-4.8843,-4.8289,0.0,0.0,0.0,0.0,0.0,0.0,0.0,0.0,0.0,0.0,0.0,0.0,0.0,0.0,0.0,0.0,0.0,0.0,0.0,0.0,0.0,0.0,0.0,0.0,0.0,0.0,0.0,0.0,0.0,0.0,0.0,0.0,0.0,0.0,0.0,0.0,0.0,0.0,0.0,0.0,0.0,0.0,0.0,0.0,0.0,0.0,0.0,0.0,0.0,0.0,0.0,0.0,0.0,0.0,0.0,0.0,0.0,0.0,0.0,0.0,0.0,0.0,0.0,0.0,0.0,0.0,0.0,0.0,0.0,0.0,0.0,0.0,0.0,0.0,0.0,0.0,0.0,0.0,0.0,0.0,0.0,0.0,0.0,0.0,0.0,0.0,0.0,0.0,0.0,0.0,0.0,0.0,0.0,0.0,0.0,0.0,0.0,0.0,0.0,0.0,0.0,0.0,0.0,0.0,0.0,0.0,0.0,0.0,-4.9398,-4.9229,-4.9199,-4.9199,-4.9199,-4.9182,-4.8825,0.0,0.0,0.0,0.0,0.0,0.0,0.0,0.0,0.0,0.0,0.0,0.0,0.0,0.0,0.0,0.0,0.0,0.0,0.0,0.0,0.0,0.0,0.0,0.0,0.0,0.0,0.0,0.0,0.0,0.0,0.0,0.0,0.0,0.0,0.0,0.0,0.0,0.0,0.0,0.0,0.0,0.0,0.0,0.0,0.0,0.0,0.0,0.0,0.0,0.0,0.0,0.0,0.0,0.0,0.0,0.0,0.0,0.0,0.0,0.0,0.0,0.0,0.0,0.0,0.0,0.0,0.0,0.0,0.0,0.0,0.0,0.0,0.0,0.0,0.0,0.0,0.0,0.0,0.0,0.0,0.0,0.0,0.0,0.0,0.0,0.0,0.0,0.0,0.0,0.0,0.0,0.0,0.0,0.0,0.0,0.0,0.0,0.0,0.0,0.0,0.0,0.0,0.0,0.0,0.0,0.0,0.0,0.0,0.0,-4.9063,-4.9063,-4.9063,-4.9063,-4.9046,-4.8707,0.0,0.0,0.0,0.0,0.0,0.0,0.0,0.0,0.0,0.0,0.0,0.0,0.0,0.0,0.0,0.0,0.0,0.0,0.0,0.0,0.0,0.0,0.0,0.0,0.0,0.0,0.0,0.0,0.0,0.0,0.0,0.0,0.0,0.0,0.0,0.0,0.0,0.0,0.0,0.0,0.0,0.0,0.0,0.0,0.0,0.0,0.0,0.0,0.0,0.0,0.0,0.0,0.0,0.0,0.0,0.0,0.0,0.0,0.0,0.0,0.0,0.0,0.0,0.0,0.0,0.0,0.0,0.0,0.0,0.0,0.0,0.0,0.0,0.0,0.0,0.0,0.0,0.0,0.0,0.0,0.0,0.0,0.0,0.0,0.0,0.0,0.0,0.0,0.0,0.0,0.0,0.0,0.0,0.0,0.0,0.0,0.0,0.0,0.0,0.0,0.0,0.0,0.0,0.0,0.0,0.0,0.0,0.0,0.0,-4.9018,-4.9018,-4.9018,-4.9018,-4.9018,-4.8641,-4.7922,0.0,0.0,0.0,0.0,0.0,0.0,0.0,0.0,0.0,0.0,0.0,0.0,0.0,0.0,0.0,0.0,0.0,0.0,0.0,0.0,0.0,0.0,0.0,0.0,0.0,0.0,0.0,0.0,0.0,0.0,0.0,0.0,0.0,0.0,0.0,0.0,0.0,0.0,0.0,0.0,0.0,0.0,0.0,0.0,0.0,0.0,0.0,0.0,0.0,0.0,0.0,0.0,0.0,0.0,0.0,0.0,0.0,0.0,0.0,0.0,0.0,0.0,0.0,0.0,0.0,0.0,0.0,0.0,0.0,0.0,0.0,0.0,0.0,0.0,0.0,0.0,0.0,0.0,0.0,0.0,0.0,0.0,0.0,0.0,0.0,0.0,0.0,0.0,0.0,0.0,0.0,0.0,0.0,0.0,0.0,0.0,0.0,0.0,0.0,0.0,0.0,0.0,0.0,0.0,0.0,0.0,0.0,0.0,-4.9018,-4.9018,-4.9018,-4.9018,-4.9018,-4.8688,0.0,0.0,0.0,0.0,0.0,0.0,0.0,0.0,0.0,0.0,0.0,0.0,0.0,0.0,0.0,0.0,0.0,0.0,0.0,0.0,0.0,0.0,0.0,0.0,0.0,0.0,0.0,0.0,0.0,0.0,0.0,0.0,0.0,0.0,0.0,0.0,0.0,0.0,0.0,0.0,0.0,0.0,0.0,0.0,0.0,0.0,0.0,0.0,0.0,0.0,0.0,0.0,0.0,0.0,0.0,0.0,0.0,0.0,0.0,0.0,0.0,0.0,0.0,0.0,0.0,0.0,0.0,0.0,0.0,0.0,0.0,0.0,0.0,0.0,0.0,0.0,0.0,0.0,0.0,0.0,0.0,0.0,0.0,0.0,0.0,0.0,0.0,0.0,0.0,0.0,0.0,0.0,0.0,0.0,0.0,0.0,0.0,0.0,0.0,0.0,0.0,0.0,0.0,0.0,0.0,0.0,0.0,0.0,0.0,-4.9018,-4.9018,-4.9018,-4.9018,-4.9018,-4.8909,0.0,0.0,0.0,0.0,0.0,0.0,0.0,0.0,0.0,0.0,0.0,0.0,0.0,0.0,0.0,0.0,0.0,0.0,0.0,0.0,0.0,0.0,0.0,0.0,0.0,0.0,0.0,0.0,0.0,0.0,0.0,0.0,0.0,0.0,0.0,0.0,0.0,0.0,0.0,0.0,0.0,0.0,0.0,0.0,0.0,0.0,0.0,0.0,0.0,0.0,0.0,0.0,0.0,0.0,0.0,0.0,0.0,0.0,0.0,0.0,0.0,0.0,0.0,0.0,0.0,0.0,0.0,0.0,0.0,0.0,0.0,0.0,0.0,0.0,0.0,0.0,0.0,0.0,0.0,0.0,0.0,0.0,0.0,0.0,0.0,0.0,0.0,0.0,0.0,0.0,0.0,0.0,0.0,0.0,0.0,0.0,0.0,0.0,0.0,0.0,0.0,0.0,0.0,0.0,0.0,0.0,0.0,0.0,-4.9018,-4.9018,-4.9018,-4.9018,-4.9001,-4.8688,-4.8386,0.0,0.0,0.0,0.0,0.0,0.0,0.0,0.0,0.0,0.0,0.0,0.0,0.0,0.0,0.0,0.0,0.0,0.0,0.0,0.0,0.0,0.0,0.0,0.0,0.0,0.0,0.0,0.0,0.0,0.0,0.0,0.0,0.0,0.0,0.0,0.0,0.0,0.0,0.0,0.0,0.0,0.0,0.0,0.0,0.0,0.0,0.0,0.0,0.0,0.0,0.0,0.0,0.0,0.0,0.0,0.0,0.0,0.0,0.0,0.0,0.0,0.0,0.0,0.0,0.0,0.0,0.0,0.0,0.0,0.0,0.0,0.0,0.0,0.0,0.0,0.0,0.0,0.0,0.0,0.0,0.0,0.0,0.0,0.0,0.0,0.0,0.0,0.0,0.0,0.0,0.0,0.0,0.0,0.0,0.0,0.0,0.0,0.0,0.0,0.0,0.0,0.0,0.0,0.0,0.0,0.0,0.0,0.0,-4.9018,-4.9018,-4.9018,-4.897,-4.8861,-4.8306,-4.7655,0.0,0.0,0.0,0.0,0.0,0.0,0.0,0.0,0.0,0.0,0.0,0.0,0.0,0.0,0.0,0.0,0.0,0.0,0.0,0.0,0.0,0.0,0.0,0.0,0.0,0.0,0.0,0.0,0.0,0.0,0.0,0.0,0.0,0.0,0.0,0.0,0.0,0.0,0.0,0.0,0.0,0.0,0.0,0.0,0.0,0.0,0.0,0.0,0.0,0.0,0.0,0.0,0.0,0.0,0.0,0.0,0.0,0.0,0.0,0.0,0.0,0.0,0.0,0.0,0.0,0.0,0.0,0.0,0.0,0.0,0.0,0.0,0.0,0.0,0.0,0.0,0.0,0.0,0.0,0.0,0.0,0.0,0.0,0.0,0.0,0.0,0.0,0.0,0.0,0.0,0.0,0.0,0.0,0.0,0.0,0.0,0.0,0.0,0.0,0.0,0.0,0.0,0.0,0.0,0.0,0.0,0.0,0.0,-4.9018,-4.9018,-4.9018,-4.8719,-4.8161,-4.8545,-4.8401,0.0,0.0,0.0,0.0,0.0,0.0,0.0,0.0,0.0,0.0,0.0,0.0,0.0,0.0,0.0,0.0,0.0,0.0,0.0,0.0,0.0,0.0,0.0,0.0,0.0,0.0,0.0,0.0,0.0,0.0,0.0,0.0,0.0,0.0,0.0,0.0,0.0,0.0,0.0,0.0,0.0,0.0,0.0,0.0,0.0,0.0,0.0,0.0,-4.0436,0.0,0.0,0.0,0.0,0.0,0.0,0.0,0.0,0.0,0.0,0.0,0.0,0.0,0.0,0.0,0.0,0.0,0.0,0.0,0.0,0.0,0.0,0.0,0.0,0.0,0.0,0.0,0.0,0.0,0.0,0.0,0.0,0.0,0.0,0.0,0.0,0.0,0.0,0.0,0.0,0.0,0.0,0.0,0.0,0.0,0.0,0.0,0.0,0.0,0.0,0.0,0.0,0.0,0.0,0.0,0.0,0.0,0.0,0.0,-4.9018,-4.9018,-4.9018,-4.8656,-4.795,-4.8274,-4.795,0.0,0.0,0.0,0.0,0.0,0.0,0.0,0.0,0.0,0.0,0.0,0.0,0.0,0.0,0.0,0.0,0.0,0.0,0.0,0.0,0.0,0.0,0.0,0.0,0.0,0.0,0.0,0.0,0.0,0.0,0.0,0.0,0.0,0.0,0.0,0.0,0.0,0.0,0.0,0.0,0.0,0.0,0.0,0.0,0.0,0.0,0.0,0.0,0.0,0.0,0.0,0.0,0.0,0.0,0.0,0.0,0.0,0.0,0.0,0.0,0.0,0.0,0.0,0.0,0.0,0.0,0.0,0.0,0.0,0.0,0.0,0.0,0.0,0.0,0.0,0.0,0.0,0.0,0.0,0.0,0.0,0.0,0.0,0.0,0.0,0.0,0.0,0.0,0.0,0.0,0.0,0.0,0.0,0.0,0.0,0.0,0.0,0.0,0.0,0.0,0.0,0.0,0.0,0.0,0.0,0.0,0.0,-4.9018,-4.8923,-4.8829,-4.8813,-4.845,-4.7605,-4.7572,-4.6932,-4.5588,0.0,0.0,0.0,0.0,0.0,0.0,0.0,0.0,0.0,0.0,0.0,0.0,0.0,0.0,0.0,0.0,0.0,0.0,0.0,0.0,0.0,0.0,0.0,0.0,0.0,0.0,0.0,0.0,0.0,0.0,0.0,0.0,0.0,0.0,0.0,0.0,0.0,0.0,-4.0417,-4.0967,0.0,0.0,0.0,0.0,0.0,0.0,0.0,0.0,-4.1867,0.0,0.0,0.0,0.0,0.0,0.0,0.0,0.0,0.0,0.0,0.0,0.0,0.0,0.0,0.0,0.0,0.0,0.0,0.0,0.0,0.0,0.0,0.0,0.0,0.0,0.0,0.0,0.0,0.0,0.0,0.0,0.0,0.0,0.0,0.0,0.0,0.0,0.0,0.0,0.0,0.0,0.0,0.0,0.0,0.0,0.0,0.0,0.0,0.0,0.0,0.0,0.0,0.0,0.0,0.0,0.0,-4.9018,-4.9018,-4.8688,-4.8096,-4.8064,-4.7439,-4.6147,-4.6076,-4.566,-4.4858,0.0,0.0,0.0,0.0,0.0,0.0,0.0,0.0,0.0,0.0,0.0,0.0,0.0,0.0,0.0,0.0,0.0,0.0,0.0,0.0,0.0,0.0,0.0,0.0,0.0,0.0,0.0,0.0,0.0,0.0,0.0,0.0,0.0,0.0,0.0,0.0,0.0,0.0,0.0,-4.2033,-4.2151,0.0,0.0,0.0,0.0,0.0,0.0,0.0,0.0,-4.2119,0.0,0.0,0.0,0.0,0.0,0.0,0.0,0.0,0.0,0.0,0.0,0.0,0.0,0.0,0.0,0.0,0.0,0.0,0.0,0.0,0.0,0.0,0.0,0.0,0.0,0.0,0.0,0.0,0.0,0.0,0.0,0.0,0.0,0.0,0.0,0.0,0.0,0.0,0.0,0.0,0.0,0.0,0.0,0.0,0.0,0.0,0.0,0.0,0.0,0.0,0.0,0.0,0.0,0.0,0.0,-4.845,-4.8433,-4.8064,-4.7355,-4.7322,-4.6761,-4.5588,-4.5551,-4.52,0.0,0.0,0.0,0.0,0.0,0.0,0.0,0.0,0.0,0.0,0.0,0.0,0.0,0.0,0.0,0.0,0.0,0.0,0.0,0.0,0.0,0.0,0.0,0.0,0.0,0.0,0.0,0.0,0.0,0.0,0.0,0.0,0.0,0.0,0.0,0.0,0.0,0.0,0.0,0.0,-4.2861,-4.3014,-4.3447,0.0,0.0,0.0,0.0,0.0,0.0,-4.3149,-4.2861,0.0,0.0,0.0,0.0,0.0,0.0,0.0,0.0,0.0,0.0,0.0,0.0,0.0,0.0,0.0,0.0,0.0,0.0,0.0,0.0,0.0,0.0,0.0,0.0,0.0,0.0,0.0,0.0,0.0,0.0,0.0,0.0,0.0,0.0,0.0,0.0,0.0,0.0,0.0,0.0,0.0,0.0,0.0,0.0,0.0,0.0,0.0,0.0,0.0,0.0,0.0,0.0,0.0,0.0,0.0,-4.7885,-4.7836,-4.7372,-4.6499,-4.6464,-4.604,-4.5163,-4.5126,-4.4827,0.0,0.0,0.0,0.0,0.0,0.0,0.0,0.0,0.0,0.0,0.0,0.0,0.0,0.0,0.0,0.0,0.0,0.0,0.0,0.0,0.0,0.0,0.0,0.0,0.0,0.0,0.0,0.0,0.0,0.0,0.0,0.0,0.0,0.0,0.0,0.0,0.0,0.0,0.0,0.0,0.0,-4.3893,-4.4513,-4.4468,0.0,0.0,0.0,0.0,-4.4553,-4.4062,0.0,0.0,0.0,0.0,0.0,0.0,0.0,0.0,0.0,0.0,0.0,0.0,0.0,0.0,0.0,0.0,0.0,0.0,0.0,0.0,0.0,0.0,0.0,0.0,0.0,0.0,0.0,0.0,0.0,0.0,0.0,0.0,0.0,0.0,0.0,0.0,0.0,0.0,0.0,0.0,0.0,0.0,0.0,0.0,0.0,0.0,0.0,0.0,0.0,0.0,0.0,0.0,0.0,0.0,0.0,0.0,-4.7655,-4.7638,-4.6866,-4.539,-4.5295,-4.494,-4.4205,-4.4166,-4.4143,0.0,0.0,0.0,0.0,0.0,0.0,0.0,0.0,0.0,0.0,0.0,0.0,0.0,0.0,0.0,0.0,0.0,0.0,0.0,0.0,0.0,0.0,0.0,0.0,0.0,0.0,0.0,0.0,0.0,0.0,0.0,0.0,0.0,0.0,0.0,0.0,0.0,0.0,0.0,0.0,0.0,-4.4496,-4.4598,-4.403,-4.3839,0.0,0.0,-4.3856,-4.4497,-4.453,0.0,0.0,0.0,0.0,0.0,0.0,0.0,0.0,0.0,0.0,0.0,0.0,0.0,0.0,0.0,0.0,0.0,0.0,0.0,0.0,0.0,0.0,0.0,0.0,0.0,0.0,0.0,0.0,0.0,0.0,0.0,0.0,0.0,0.0,0.0,0.0,0.0,0.0,0.0,0.0,0.0,0.0,0.0,0.0,0.0,0.0,0.0,0.0,0.0,0.0,0.0,0.0,0.0,0.0,0.0,-4.7605,-4.6397,-4.624,-4.5613,-4.4556,-4.448,-4.4266,-4.3832,-4.3832,-4.3832,0.0,0.0,0.0,0.0,0.0,0.0,0.0,0.0,0.0,0.0,0.0,0.0,0.0,0.0,0.0,0.0,0.0,0.0,0.0,0.0,0.0,0.0,0.0,0.0,0.0,0.0,0.0,0.0,0.0,0.0,0.0,0.0,0.0,0.0,0.0,0.0,0.0,0.0,0.0,0.0,0.0,0.0,-4.3972,-4.3706,0.0,0.0,0.0,-4.4219,-4.4559,0.0,0.0,0.0,0.0,0.0,0.0,0.0,0.0,0.0,0.0,0.0,0.0,0.0,0.0,0.0,0.0,0.0,0.0,0.0,0.0,0.0,0.0,0.0,0.0,0.0,0.0,0.0,0.0,0.0,0.0,0.0,0.0,0.0,0.0,0.0,0.0,0.0,0.0,0.0,0.0,0.0,0.0,0.0,0.0,0.0,0.0,0.0,0.0,0.0,0.0,0.0,0.0,0.0,0.0,0.0,0.0,0.0,-4.5295,-4.511,-4.4639,-4.3856,-4.3832,-4.3754,-4.3596,-4.3611,0.0,0.0,0.0,0.0,0.0,0.0,0.0,0.0,0.0,0.0,0.0,0.0,0.0,0.0,0.0,0.0,0.0,0.0,0.0,0.0,0.0,0.0,0.0,0.0,0.0,0.0,0.0,-4.0505,0.0,0.0,0.0,0.0,0.0,0.0,0.0,0.0,0.0,0.0,0.0,0.0,0.0,0.0,-4.3735,-4.3706,-4.3453,-4.3376,0.0,0.0,-4.4196,-4.4559,-4.4598,-4.4542,0.0,0.0,0.0,0.0,0.0,0.0,0.0,0.0,0.0,0.0,0.0,0.0,0.0,0.0,0.0,0.0,0.0,0.0,0.0,0.0,0.0,0.0,0.0,0.0,0.0,0.0,0.0,0.0,0.0,0.0,0.0,0.0,0.0,0.0,0.0,0.0,0.0,0.0,0.0,0.0,0.0,0.0,0.0,0.0,0.0,0.0,0.0,0.0,0.0,0.0,0.0,0.0,0.0,0.0,0.0,-4.4887,-4.4849,-4.432,-4.3409,-4.3344,-4.3344,-4.3329,-4.3344,-4.3344,0.0,0.0,0.0,0.0,0.0,0.0,0.0,0.0,0.0,0.0,0.0,0.0,0.0,0.0,0.0,0.0,0.0,0.0,0.0,0.0,0.0,0.0,0.0,0.0,0.0,0.0,0.0,0.0,0.0,0.0,0.0,0.0,0.0,0.0,0.0,0.0,0.0,0.0,0.0,0.0,0.0,-4.4457,-4.4281,-4.329,-4.3031,0.0,0.0,-4.3108,-4.4412,-4.457,-4.4367,-4.3676,0.0,0.0,0.0,0.0,0.0,0.0,0.0,0.0,0.0,0.0,0.0,0.0,0.0,0.0,0.0,0.0,0.0,0.0,0.0,0.0,0.0,0.0,0.0,0.0,0.0,0.0,0.0,0.0,0.0,0.0,0.0,0.0,0.0,0.0,0.0,0.0,0.0,0.0,0.0,0.0,0.0,0.0,0.0,0.0,0.0,0.0,0.0,0.0,0.0,0.0,0.0,0.0,0.0,-4.4946,-4.4151,-4.3966,-4.3708,-4.3344,-4.3305,-4.3305,-4.3305,-4.3305,-4.3305,0.0,0.0,0.0,0.0,0.0,0.0,0.0,0.0,0.0,0.0,0.0,0.0,0.0,0.0,0.0,0.0,0.0,0.0,0.0,0.0,0.0,0.0,0.0,0.0,0.0,0.0,0.0,0.0,-3.998,-3.991,-3.9854,0.0,0.0,0.0,0.0,0.0,0.0,0.0,0.0,0.0,0.0,-4.3519,-4.3125,-4.2678,0.0,0.0,-4.2599,-4.2676,-4.3229,-4.3663,-4.3693,-4.2984,-4.3827,0.0,0.0,0.0,0.0,0.0,0.0,0.0,0.0,0.0,0.0,0.0,0.0,0.0,0.0,0.0,0.0,0.0,0.0,0.0,0.0,0.0,0.0,0.0,0.0,0.0,0.0,0.0,0.0,0.0,0.0,0.0,0.0,0.0,0.0,0.0,0.0,0.0,0.0,0.0,0.0,0.0,0.0,0.0,0.0,0.0,0.0,0.0,0.0,0.0,0.0,0.0,0.0,-4.4082,-4.3581,-4.3384,-4.3305,-4.3305,-4.3305,-4.3305,-4.3305,-4.3305,-4.3305,0.0,0.0,0.0,0.0,0.0,0.0,0.0,0.0,0.0,0.0,0.0,0.0,0.0,0.0,0.0,0.0,0.0,0.0,0.0,0.0,0.0,0.0,0.0,0.0,0.0,0.0,0.0,0.0,-3.9732,-3.961,-3.9625,0.0,0.0,0.0,0.0,0.0,0.0,0.0,0.0,0.0,0.0,-4.324,-4.2784,-4.3025,-4.3121,-4.2718,-4.312,-4.35,-4.3452,-4.3993,-4.4114,-4.3295,0.0,0.0,0.0,0.0,0.0,0.0,0.0,0.0,0.0,0.0,0.0,0.0,0.0,0.0,0.0,0.0,0.0,0.0,0.0,0.0,0.0,0.0,0.0,0.0,0.0,0.0,0.0,0.0,0.0,0.0,-4.3305,0.0,0.0,0.0,0.0,0.0,0.0,0.0,0.0,0.0,0.0,0.0,0.0,0.0,0.0,0.0,0.0,0.0,0.0,0.0,0.0,0.0,0.0,-4.3329,-4.329,-4.329,-4.3305,-4.3305,-4.3305,-4.3305,-4.3305,-4.3305,-4.3305,-4.3305,0.0,0.0,0.0,0.0,0.0,0.0,0.0,0.0,0.0,0.0,0.0,0.0,0.0,0.0,0.0,0.0,0.0,0.0,0.0,0.0,0.0,0.0,0.0,0.0,0.0,0.0,-3.9732,-3.9532,-3.9424,0.0,0.0,0.0,0.0,0.0,0.0,0.0,0.0,0.0,0.0,-4.3573,-4.3976,-4.3681,-4.4642,-4.5206,-4.5174,-4.5445,-4.5634,-4.5491,-4.6004,-4.6038,0.0,0.0,0.0,0.0,0.0,0.0,0.0,0.0,0.0,0.0,0.0,0.0,0.0,0.0,0.0,0.0,0.0,0.0,0.0,0.0,0.0,0.0,0.0,0.0,0.0,0.0,0.0,-4.3305,-4.3305,0.0,0.0,0.0,0.0,0.0,0.0,0.0,0.0,0.0,0.0,0.0,-4.3305,-4.3305,0.0,0.0,0.0,0.0,0.0,0.0,0.0,0.0,0.0,0.0,0.0,0.0,-4.3305,-4.3305,-4.3305,-4.3305,-4.3305,-4.3305,-4.3305,-4.3305,-4.3305,-4.3305,-4.3305,0.0,0.0,0.0,0.0,0.0,0.0,0.0,0.0,0.0,0.0,0.0,0.0,0.0,0.0,0.0,0.0,0.0,0.0,0.0,0.0,0.0,0.0,0.0,0.0,0.0,-4.0085,0.0,0.0,0.0,0.0,0.0,0.0,0.0,0.0,0.0,0.0,0.0,-4.2758,-4.3321,-4.359,-4.3534,-4.3095,-4.339,-4.3494,0.0,0.0,0.0,0.0,0.0,0.0,0.0,0.0,0.0,0.0,0.0,0.0,0.0,0.0,-4.5906,-4.5415,-4.4925,-4.4598,-4.4598,0.0,0.0,0.0,0.0,0.0,0.0,0.0,0.0,0.0,0.0,0.0,0.0,0.0,0.0,-4.3305,0.0,-4.3305,0.0,0.0,0.0,0.0,0.0,0.0,0.0,0.0,-4.3305,-4.3305,-4.3305,-4.3305,-4.3305,0.0,-4.3305,-4.3305,0.0,0.0,0.0,0.0,0.0,0.0,0.0,0.0,-4.3305,-4.3305,-4.3305,-4.3305,-4.3305,-4.3305,-4.3305,-4.3305,-4.3305,-4.3305,-4.3305,-4.3305,-4.3305,0.0,0.0,0.0,0.0,0.0,0.0,0.0,0.0,0.0,0.0,0.0,0.0,0.0,0.0,0.0,0.0,0.0,0.0,0.0,0.0,0.0,0.0,0.0,-4.0576,0.0,0.0,0.0,0.0,0.0,0.0,0.0,0.0,0.0,-4.2264,-4.2304,-4.2643,-4.351,-4.3557,-4.3345,-4.2971,0.0,0.0,0.0,0.0,0.0,0.0,0.0,-4.5799,-4.498,-4.5881,-4.6318,-4.5267,-4.5651,-4.619,-4.6413,0.0,0.0,-4.6227,-4.5686,-4.5348,-4.5376,-4.4942,-4.4756,-4.5246,-4.4959,-4.4739,0.0,0.0,0.0,0.0,0.0,0.0,0.0,0.0,-4.3305,-4.3305,0.0,-4.3305,0.0,0.0,0.0,0.0,0.0,-4.3305,0.0,0.0,-4.3305,-4.3305,-4.3305,-4.3305,-4.3305,-4.3305,-4.3305,-4.3305,-4.3305,-4.3305,0.0,0.0,0.0,0.0,0.0,0.0,-4.3305,-4.3305,-4.3305,-4.3305,-4.3305,-4.3305,-4.3305,-4.3305,-4.3305,-4.3305,-4.3305,-4.3305,-4.3305,-4.3305,-4.3305,0.0,0.0,0.0,0.0,0.0,0.0,0.0,0.0,0.0,0.0,0.0,0.0,0.0,0.0,0.0,0.0,0.0,0.0,0.0,0.0,-4.1452,0.0,0.0,0.0,0.0,0.0,0.0,0.0,0.0,0.0,0.0,-4.2721,-4.2193,-4.2175,-4.3262,0.0,0.0,0.0,0.0,-4.5778,-4.5726,-4.5977,-4.6365,-4.7119,-4.7119,-4.7103,-4.7372,0.0,0.0,-4.7803,-4.7204,-4.6968,-4.7688,-4.7816,-4.7686,-4.7005,-4.6786,-4.6718,-4.6718,-4.665,-4.6752,-4.6769,-4.6583,-4.6633,-4.4466,0.0,0.0,0.0,0.0,-4.3305,-4.3305,-4.3305,-4.3305,-4.3305,-4.3305,-4.3305,0.0,0.0,0.0,0.0,0.0,0.0,-4.3305,-4.3305,-4.3305,-4.3305,-4.3305,-4.3305,-4.3305,-4.3305,-4.3305,-4.3305,-4.3305,-4.3305,-4.3305,-4.3305,0.0,0.0,0.0,0.0,-4.3305,-4.3305,-4.3305,-4.3305,-4.3305,-4.3305,-4.3305,-4.3305,-4.3305,-4.3305,-4.3305,-4.3305,-4.3305,-4.3305,-4.3305,0.0,0.0,0.0,0.0,0.0,0.0,0.0,0.0,0.0,0.0,0.0,0.0,0.0,0.0,0.0,0.0,0.0,0.0,0.0,-4.2171,-4.2111,-4.1931,0.0,0.0,0.0,0.0,0.0,0.0,0.0,0.0,0.0,-4.3126,-4.2956,-4.2953,0.0,0.0,-4.3341,-4.3299,-4.3732,-4.4051,-4.4036,-4.4593,0.0,-4.5316,-4.583,-4.608,-4.5649,-4.5572,-4.5463,-4.5353,-4.5681,-4.6253,-4.6983,-4.7556,-4.7985,-4.8284,-4.7496,-4.6853,-4.6786,-4.6786,-4.6786,-4.6786,-4.6786,-4.6802,-4.5484,-4.5009,-4.4392,-4.4107,-4.4082,-4.4107,-4.3958,-4.3678,-4.3678,-4.3544,-4.3305,-4.3305,-4.3305,-4.3305,-4.3305,0.0,0.0,0.0,-4.3305,-4.3305,-4.3305,-4.3305,-4.3305,-4.3305,-4.3305,-4.3305,-4.3305,-4.3305,-4.3305,-4.3305,-4.3439,-4.3663,0.0,0.0,-4.3305,-4.3305,-4.3305,-4.3305,-4.3305,-4.3305,-4.3305,-4.3305,-4.3305,-4.3305,-4.3305,-4.3305,-4.3305,-4.3305,-4.3305,-4.3305,-4.3305,-4.3305,0.0,0.0,0.0,0.0,0.0,0.0,0.0,0.0,0.0,0.0,0.0,-4.3305,0.0,0.0,0.0,0.0,-4.3305,-4.314,-4.2776,-4.2761,0.0,0.0,0.0,0.0,0.0,0.0,0.0,-4.2806,-4.309,-4.3305,-4.3305,-4.3305,-4.3305,-4.3305,-4.3305,-4.3305,-4.3305,0.0,-4.3409,-4.3747,-4.3927,-4.4259,-4.4887,-4.5153,-4.5285,-4.5264,-4.4962,-4.473,-4.4746,-4.5274,-4.5949,-4.6673,-4.7422,-4.8129,-4.8861,-4.8257,-4.7665,-4.7665,-4.7682,-4.7665,-4.7665,-4.7682,-4.7665,-4.6444,-4.6369,-4.5738,-4.5379,-4.5289,-4.5289,-4.4945,-4.4392,-4.4392,-4.4062,-4.3454,-4.3454,-4.3454,-4.3454,-4.3454,0.0,-4.3454,-4.3439,-4.3469,-4.3454,-4.3439,-4.3454,-4.3439,-4.3469,-4.3439,-4.3454,-4.3454,-4.3454,-4.3469,-4.3454,-4.3793,-4.4362,-4.3793,-4.3454,-4.3454,-4.3454,-4.3454,-4.3454,-4.3409,-4.3349,-4.3305,-4.3305,-4.3305,-4.3305,-4.3305,-4.3305,-4.3305,-4.3305,-4.3305,-4.3305,-4.3305,-4.3305,-4.3305,0.0,0.0,0.0,0.0,0.0,0.0,0.0,0.0,0.0,0.0,0.0,0.0,0.0,0.0,0.0,-4.3305,0.0,-4.3305,-4.3305,0.0,0.0,0.0,-4.3305,-4.3305,-4.3305,-4.3305,-4.3305,0.0,0.0,-4.3305,-4.3305,-4.3305,-4.3305,-4.3305,-4.3305,-4.3305,-4.3305,-4.3566,-4.422,-4.3771,-4.3849,-4.5014,-4.4812,-4.4646,-4.5322,-4.5447,-4.5184,-4.5184,-4.5405,-4.5877,-4.6673,-4.7339,-4.8064,-4.8829,-4.8934,-4.9001,-4.8934,-4.8951,-4.8968,-4.89,-4.8883,-4.8866,-4.7818,-4.7758,-4.71,-4.6247,-4.5289,-4.5289,-4.5214,-4.5065,-4.5065,-4.4975,-4.4825,-4.484,-4.4825,-4.484,-4.4825,-4.4825,-4.484,-4.4825,-4.4825,-4.4825,-4.4825,-4.4825,-4.4825,-4.4825,-4.4825,-4.4825,-4.4825,-4.484,-4.4825,-4.4825,-4.49,-4.505,-4.49,-4.4825,-4.4825,-4.4825,-4.4825,-4.4825,-4.4332,-4.3798,-4.3319,-4.3305,-4.3305,-4.3305,-4.3305,-4.3305,-4.3305,-4.3305,-4.3305,-4.3305,-4.3305,-4.3305,-4.3305,-4.3305,0.0,0.0,0.0,0.0,0.0,0.0,0.0,0.0,0.0,-4.3305,-4.3305,0.0,-4.3305,0.0,-4.3305,-4.3305,-4.3305,-4.3305,0.0,0.0,-4.3305,-4.3305,-4.3305,-4.3305,-4.3305,-4.3305,-4.3305,-4.3305,-4.3305,-4.3305,-4.3305,-4.3305,-4.3305,-4.3305,-4.3305,-4.3305,-4.3369,-4.3566,-4.3463,-4.3448,-4.3856,-4.3732,-4.3723,-4.3873,-4.4174,-4.4343,-4.4343,-4.4632,-4.529,-4.6499,-4.6914,-4.7572,-4.8818,-4.9018,-4.9018,-4.9018,-4.9018,-4.9018,-4.9018,-4.9018,-4.9018,-4.8775,-4.8745,-4.8327,-4.7743,-4.701,-4.6441,-4.6022,-4.5753,-4.5753,-4.5589,-4.5289,-4.5289,-4.5289,-4.5289,-4.5289,-4.5289,-4.5289,-4.5289,-4.5289,-4.5289,-4.5289,-4.5289,-4.5289,-4.5289,-4.5289,-4.5289,-4.5289,-4.5289,-4.5289,-4.5289,-4.5454,-4.5738,-4.5753,-4.5903,-4.6157,-4.5603,-4.5289,-4.5289,-4.493,-4.4571,-4.4212,-4.3928,-4.3858,-4.4167,-4.3589,-4.3424,-4.3708,-4.3454,-4.3305,-4.3305,-4.3305,-4.3305,-4.3305,-4.3305,-4.3305,0.0,0.0,0.0,0.0,0.0,0.0,0.0,0.0,0.0,0.0,0.0,-4.3305,-4.3305,-4.3305,-4.3305,-4.3305,-4.3305,-4.3305,-4.3305,-4.3305,-4.3305,-4.3305,-4.3305,-4.3305,-4.3305,-4.3305,-4.3305,-4.3305,-4.3305,-4.3305,-4.3305,-4.3584,-4.3633,-4.3379,-4.3514,-4.3723,-4.3738,-4.4018,-4.4212,-4.4197,-4.4197,-4.4197,-4.4197,-4.4494,-4.4694,-4.4734,-4.4971,-4.5703,-4.7201,-4.7593,-4.8117,-4.9599,-4.9678,-4.9492,-4.9441,-4.9221,-4.9018,-4.9018,-4.9018,-4.9018,-4.9389,-4.9434,-4.9344,-4.9299,-4.9224,-4.8042,-4.7234,-4.6696,-4.6563,-4.6187,-4.5559,-4.5559,-4.5544,-4.5559,-4.5559,-4.5559,-4.5544,-4.5559,-4.5559,-4.5559,-4.5559,-4.5559,-4.5544,-4.5544,-4.5559,-4.5559,-4.5544,-4.5559,-4.5559,-4.5559,-4.5858,-4.6441,-4.6414,-4.6741,-4.7234,-4.6142,-4.5514,-4.5424,-4.5424,-4.5394,-4.5289,-4.4736,-4.4706,-4.5214,-4.4107,-4.3693,-4.4272,-4.3648,-4.3305,-4.3305,-4.3305,-4.3305,-4.3305,-4.3305,-4.3305,0.0,-4.3305,0.0,0.0,0.0,0.0,0.0,0.0,0.0,0.0,-4.3305,-4.3305,-4.3305,-4.3305,-4.3305,-4.3305,-4.3305,-4.3305,-4.3305,-4.3305,-4.3305,-4.3305,-4.3305,-4.3305,-4.3305,-4.3305,-4.3305,-4.3305,-4.3349,-4.3424,-4.3514,-4.4062,-4.4257,-4.3753,-4.4107,-4.4436,-4.4436,-4.4915,-4.514,-4.517,-4.5214,-4.5214,-4.5286,-4.5391,-4.5604,-4.5529,-4.5722,-4.6447,-4.7972,-4.8388,-4.905,-5.0742,-5.0546,-5.0253,-5.0219,-4.9796,-4.934,-4.9086,-4.9018,-4.9018,-5.0001,-5.0002,-4.9494,-4.9299,-4.9284,-4.9045,-4.882,-4.8715,-4.8147,-4.7549,-4.6935,-4.692,-4.692,-4.692,-4.6935,-4.692,-4.692,-4.692,-4.692,-4.692,-4.692,-4.692,-4.692,-4.692,-4.692,-4.692,-4.6905,-4.6935,-4.692,-4.692,-4.6995,-4.713,-4.7115,-4.7174,-4.7294,0.0,0.0,0.0,-4.6085,-4.5858,-4.5319,-4.517,-4.517,-4.5274,-4.4526,0.0,-4.4287,-4.3633,-4.3305,-4.3305,-4.3305,0.0,0.0,0.0,0.0,0.0,0.0,0.0,0.0,0.0,0.0,0.0,-4.3305,-4.3305,-4.3305,-4.3305,-4.3305,-4.3305,-4.3305,-4.3305,-4.3305,-4.3305,-4.3305,-4.3305,-4.3305,-4.3305,-4.3305,-4.3305,-4.3305,-4.3305,-4.3305,-4.3305,-4.3349,-4.3738,-4.4082,-4.4152,-4.4691,-4.502,-4.4945,-4.5005,-4.5125,-4.5125,-4.5319,-4.5319,-4.5289,-4.5334,-4.5424,-4.5331,-4.5455,-4.5593,-4.5679,-4.5843,-4.6284,-4.7532,-4.8036,-4.8804,-5.007,-5.0526,-5.0853,-5.0982,-5.0862,-5.0439,-4.9272,-4.9018,-4.9018,-5.1498,0.0,-5.0855,-5.0526,0.0,-5.0227,-5.0227,-5.0152,-4.9194,-4.8596,-4.8282,-4.8282,-4.8267,-4.8326,-4.8267,-4.8282,-4.8267,-4.8267,-4.8267,-4.8267,-4.8282,-4.8282,-4.8326,-4.8267,-4.8267,-4.8311,-4.8267,-4.8102,-4.7803,-4.7788,-4.7623,-4.7309,-4.7309,-4.7309,-4.7309,-4.7309,-4.7145,-4.68,-4.6815,-4.6636,-4.6292,-4.5963,-4.5948,-4.6247,-4.5319,0.0,0.0,0.0,0.0,0.0,0.0,0.0,0.0,-4.3305,0.0,-4.3305,-4.3305,-4.3305,-4.3305,-4.3305,-4.3305,-4.3305,-4.3305,-4.3305,-4.3305,-4.3305,-4.3305,-4.3305,-4.3305,-4.3305,-4.3305,-4.3305,-4.3305,-4.3305,-4.3305,-4.3305,-4.3305,-4.3305,-4.3305,-4.3334,-4.3589,-4.3808,-4.3783,-4.4392,-4.4766,-4.4825,-4.5379,-4.5798,-4.5813,-4.5798,-4.5888,-4.6217,-4.6292,-4.6292,-4.6292,-4.6292,-4.6277,-4.6292,-4.6376,-4.6446,-4.6446,-4.6876,-4.7558,-4.8529,-4.9335,-5.0205,-5.127,-5.1598,-5.1595,-5.1659,-5.1454,-5.1048,-5.0219,-5.0084,-5.0084,-5.286,-5.2381,-5.2366,-5.2007,-5.1394,-5.1394,-5.1334,-5.1139,0.0,0.0,0.0,-4.9299,-4.9299,-4.9299,-4.9299,-4.9299,-4.9299,-4.9299,-4.9299,-4.9299,-4.9299,-4.9299,-4.9299,-4.9299,-4.9299,-4.9299,-4.9299,-4.903,-4.8476,-4.8446,-4.8192,-4.7683,-4.7549,-4.7429,-4.7324,-4.7309,-4.7309,-4.7309,-4.7309,-4.7309,-4.7294,-4.677,-4.6756,-4.7294,-4.6112,-4.5738,-4.6277,-4.514,-4.4481,-4.4466,-4.3868,-4.3469,-4.3469,-4.3349,-4.3305,-4.3305,-4.3305,-4.3305,-4.3305,-4.3305,-4.3305,-4.3305,-4.3305,-4.3305,-4.3305,-4.3305,-4.3305,-4.3305,-4.3305,-4.3305,-4.3305,-4.3305,-4.3305,-4.3305,-4.3305,-4.3334,-4.3454,-4.3469,-4.3544,-4.3663,-4.4142,-4.4481,-4.4511,-4.5065,-4.5469,-4.5559,-4.6067,-4.6459,-4.6444,-4.6459,-4.6666,-4.707,-4.713,-4.7234,-4.7279,-4.7234,-4.7309,-4.7189,-4.7234,-4.7309,-4.7424,-4.7907,-4.8682,-4.9202,-5.0336,-5.1176,-5.2314,-5.2127,-5.2118,-5.2403,-5.1963,-5.1541,-5.1591,-5.1591,-5.1489,-5.3144,-5.3039,-5.3039,-5.2665,-5.2067,-5.2067,-5.1723,-5.1169,-5.0375,-4.9778,-4.9299,-4.9299,-4.9299,-4.9299,-4.9299,-4.9299,-4.9299,-4.9299,-4.9299,-4.9299,-4.9299,-4.9299,-4.9299,-4.9299,-4.9299,-4.9299,-4.9299,-4.9254,-4.9179,-4.9179,-4.912,-4.897,-4.8431,-4.7878,-4.7354,-4.7309,-4.7309,-4.7309,-4.7309,-4.7309,-4.7309,-4.7219,-4.7219,-4.7264,-4.6576,-4.6175,-4.6264,-4.5574,-4.5155,-4.514,-4.4526,-4.4182,-4.4167,-4.3604,-4.3305,-4.3305,-4.3305,-4.3305,-4.3305,-4.3305,-4.3305,-4.3305,-4.3305,-4.3305,-4.3305,-4.3305,-4.3305,-4.3305,-4.3305,-4.3305,-4.3305,-4.3319,-4.3349,-4.3319,-4.3319,-4.3514,-4.4067,-4.4167,-4.4377,-4.4855,-4.5095,-4.5155,-4.5214,-4.5753,-4.6172,-4.6277,-4.6681,-4.7145,-4.71,-4.716,-4.7189,-4.7279,-4.7309,-4.7309,-4.7309,-4.7309,-4.7309,-4.7309,-4.7309,-4.7309,-4.7309,-4.7538,-4.7807,-4.7961,-4.879,-4.9607,-5.0681,-5.1229,-5.1773,-5.2549,-5.2588,-5.269,-5.2809,-5.2943,-5.2672,-5.4057,-5.3758,-5.3728,-5.3354,-5.274,-5.2725,-5.2366,-5.1738,-5.1439,-5.093,-5.0361,-5.0331,-5.0316,-5.0331,-5.0316,-5.0316,-5.0331,-5.0316,-5.0316,-5.0331,-5.0316,-5.0331,-5.0331,-5.0331,-5.0331,-5.0316,-5.0316,-5.0137,-4.9823,-4.9793,-4.9628,-4.9329,-4.9,-4.8715,-4.8371,-4.8012,-4.7833,-4.7833,-4.7489,-4.7309,-4.7309,-4.7309,-4.7309,-4.7309,-4.6995,-4.686,-4.6845,-4.6217,-4.5858,-4.5858,-4.5214,-4.484,-4.4825,-4.4227,-4.3828,-4.3813,-4.3484,-4.3305,-4.3305,-4.3305,-4.3305,-4.3305,-4.3305,-4.3305,-4.3305,-4.3305,-4.3305,-4.3305,-4.3305,-4.3305,-4.3319,-4.3618,-4.3828,-4.3828,-4.4167,-4.4511,-4.4766,-4.484,-4.4975,-4.5274,-4.5633,-4.5843,-4.5858,-4.6441,-4.6845,-4.689,-4.716,-4.7309,-4.7309,-4.7309,-4.7309,-4.7309,-4.7309,-4.7309,-4.7309,-4.7309,-4.7309,-4.7309,-4.7309,-4.7309,-4.7337,-4.7624,-4.7976,-4.8172,-4.8723,-4.9447,-5.0165,-5.0435,-5.1,-5.1426,-5.1809,-5.199,-5.247,-5.3041,-5.3213,-5.491,-5.4431,-5.4431,-5.4042,-5.3399,-5.3249,-5.2875,-5.2441,-5.2426,-5.2052,-5.1468,-5.1289,-5.1229,-5.1229,-5.1229,-5.1214,-5.1229,-5.1229,-5.1214,-5.1229,-5.1229,-5.1229,-5.1229,-5.1229,-5.1229,-5.1229,-5.1229,-5.0913,-5.045,-5.0405,-5.0122,-4.9553,-4.9479,-4.9419,-4.9299,-4.876,-4.8506,-4.8476,-4.7863,-4.7444,-4.7309,-4.7309,-4.7309,-4.7309,-4.7309,-4.7309,-4.7279,-4.6815,-4.6531,-4.6501,-4.5903,-4.5529,-4.5499,-4.49,-4.4526,-4.4481,-4.4022,-4.3738,-4.3738,-4.3738,-4.3738,-4.3723,-4.3738,-4.3738,-4.3738,-4.3738,-4.3703,-4.3544,-4.3544,-4.3589,-4.3813,-4.4242,-4.4526,-4.4571,-4.4975,-4.5304,-4.5499,-4.5529,-4.5603,-4.5753,-4.6217,-4.6546,-4.6593,-4.6995,-4.7264,-4.7264,-4.7309,-4.7309,-4.7309,-4.7399,-4.7519,-4.7489,-4.7399,-4.7309,-4.7324,-4.7474,-4.7549,-4.7519,-4.7698,-4.7743,-4.7755,-4.8149,-4.8336,-4.8332,-4.8682,-4.9181,-4.9591,-4.975,-4.9947,-5.0374,-5.0643,-5.0871,-5.1557,-5.2468,-5.328,-5.5149,-5.5104,-5.5074,-5.4715,-5.4072,-5.3473,-5.3189,-5.3099,-5.3084,-5.2725,-5.2082,-5.1483,-5.1259,-5.1229,-5.1229,-5.1229,-5.1229,-5.1229,-5.1229,-5.1229,-5.1229,-5.1229,-5.1229,-5.1229,-5.1229,-5.1229,-5.1229,-5.1184,-5.1079,-5.1094,-5.0749,-5.0166,-5.0106,-4.9853,-4.9389,-4.9269,-4.9224,-4.9209,-4.8536,-4.7893,-4.7339,-4.7309,-4.7309,-4.7309,-4.7309,-4.7309,-4.7309,-4.7234,-4.7219,-4.716,-4.6576,-4.619,-4.6115,-4.5574,-4.52,-4.52,-4.514,-4.511,-4.5095,-4.5125,-4.5065,-4.511,-4.505,-4.5035,-4.505,-4.5065,-4.484,-4.4407,-4.4242,-4.4451,-4.5005,-4.517,-4.5214,-4.5214,-4.5349,-4.5529,-4.6097,-4.6232,-4.6456,-4.707,-4.707,-4.7204,-4.716,-4.7249,-4.7309,-4.7414,-4.7429,-4.7474,-4.7563,-4.7908,-4.8192,-4.8102,-4.7743,-4.7429,-4.7489,-4.7848,-4.8132,-4.8237,-4.8686,-4.873,-4.8445,-4.825,-4.8218,-4.8162,-4.7731,-4.8216,-4.8609,-4.878,-4.9107,-4.9591,-4.9931,-5.0281,-5.0795,-5.1627,-5.2485,-5.5194,-5.5194,-5.5194,-5.5044,-5.4745,-5.4476,-5.4147,-5.3803,-5.3788,-5.3414,-5.28,-5.2501,-5.1947,-5.1244,-5.1229,-5.1229,-5.1229,-5.1229,-5.1229,-5.1229,-5.1229,-5.1229,-5.1229,-5.1229,-5.1229,-5.1229,-5.1229,-5.1229,-5.1229,-5.1229,-5.1079,-5.0808,-5.0779,-5.0676,-5.0406,-5.0032,-4.9838,-4.9823,-4.9194,-4.8775,-4.8401,-4.7698,-4.7309,-4.7309,-4.7309,-4.7309,-4.7309,-4.7309,-4.7309,-4.7294,-4.704,-4.6905,-4.6905,-4.6262,-4.5903,-4.5873,-4.5514,-4.5289,-4.5289,-4.5289,-4.5289,-4.5289,-4.5289,-4.5289,-4.5289,-4.5289,-4.5319,-4.5454,-4.514,-4.502,-4.5304,-4.5663,-4.5903,-4.5948,-4.6232,-4.6591,-4.686,-4.6862,-4.704,-4.7279,-4.7309,-4.7309,-4.7309,-4.7309,-4.7474,-4.7758,-4.7893,-4.7982,-4.8386,-4.8701,-4.888,-4.8835,-4.8611,-4.8535,-4.8461,-4.8656,-4.885,-4.8955,-4.9105,-4.912,-4.903,-4.891,-4.879,-4.8461,-4.8371,-4.8309,-4.8386,-4.8382,-4.852,-4.8846,-4.9125,-4.9432,-4.9765,-5.0621,-5.1426,-5.5194,-5.5194,-5.5194,-5.5194,-5.5194,-5.5194,-5.4925,-5.4521,-5.4491,-5.4087,-5.3473,-5.3473,-5.283,-5.1828,-5.1573,-5.1409,-5.1244,-5.1229,-5.1229,-5.1229,-5.1229,-5.1229,-5.1229,-5.1229,-5.1229,-5.1229,-5.1229,-5.1229,-5.1229,-5.1229,-5.1229,-5.1229,-5.1229,-5.1229,-5.1169,-5.0674,-5.0465,-5.0405,-4.9868,-4.9523,-4.9389,-4.8416,-4.7758,-4.7578,-4.7384,-4.7309,-4.7309,-4.7309,-4.7309,-4.7309,-4.7309,-4.7309,-4.7294,-4.6845,-4.6591,-4.6561,-4.6127,-4.5843,-4.5843,-4.5843,-4.5843,-4.5843,-4.5843,-4.5858,-4.5843,-4.5843,-4.6067,-4.6441,-4.6142,-4.5873,-4.5903,-4.6292,-4.6576,-4.6621,-4.7055,-4.7294,-4.7294,-4.7309,-4.7294,-4.7309,-4.7309,-4.7384,-4.7534,-4.7623,-4.7848,-4.8416,-4.861,-4.8715,-4.9224,-4.9419,-4.9523,-4.9538,-4.9658,-4.9659,-4.9434,-4.9434,-4.9494,-4.9598,-4.9673,-4.9838,-4.9613,-4.9538,-4.9389,-4.903,-4.9269,-4.9194,-4.8848,-4.8654,-4.8371,-4.7932,-4.8128,-4.8646,-4.8723,-4.9607,-5.0158,-5.5194,-5.5194,-5.5194,-5.5194,-5.5194,-5.5194,-5.5164,-5.5089,-5.5104,-5.476,-5.4206,-5.4177,-5.3773,-5.3039,-5.2471,-5.1828,-5.1304,-5.1244,-5.1229,-5.1229,-5.1229,-5.1229,-5.1229,-5.1229,-5.1229,-5.1229,-5.1229,-5.1229,-5.1229,-5.1229,-5.1229,-5.1229,-5.1229,-5.1229,-5.1214,-5.1154,-5.1169,-5.1035,-5.045,-5.0166,-5.0122,-4.9523,-4.8895,-4.8312,-4.7653,-4.7354,-4.7339,-4.7309,-4.7309,-4.7309,-4.7309,-4.7309,-4.7309,-4.7264,-4.7219,-4.7219,-4.7189,-4.7174,-4.713,-4.71,-4.7115,-4.7145,-4.7055,-4.716,-4.7025,-4.7025,-4.707,-4.7234,-4.71,-4.707,-4.707,-4.707,-4.7174,-4.7189,-4.7249,-4.7309,-4.7309,-4.7309,-4.7309,-4.7309,-4.7354,-4.7653,-4.8147,-4.8252,-4.8566,-4.903,-4.9269,-4.9344,-4.9524,-4.9883,-5.0106,-5.0255,-5.0526,-5.069,-4.9658,-4.9838,-5.0121,-5.0242,-5.0466,-5.081,-5.0435,-5.0137,-4.9823,-4.9583,-4.9613,-4.9584,-4.9359,-4.9134,-4.8865,-4.843,-4.7946,-4.8049,-4.8235,-4.8733,-4.9132,-5.5194,-5.5194,-5.5194,-5.5194,-5.5194,-5.5194,-5.5194,-5.5194,-5.5194,-5.5059,-5.488,-5.485,-5.4461,-5.3817,-5.3608,-5.289,-5.1858,-5.1424,-5.1229,-5.1229,-5.1229,-5.1229,-5.1229,-5.1229,-5.1229,-5.1229,-5.1229,-5.1229,-5.1229,-5.1229,-5.1229,-5.1229,-5.1229,-5.1229,-5.1229,-5.1229,-5.1229,-5.1199,-5.096,-5.0823,-5.0795,-5.0227,-4.9763,-4.9508,-4.8476,-4.7938,-4.7923,-4.7534,-4.7309,-4.7309,-4.7309,-4.7309,-4.7309,-4.7309,-4.7309,-4.7309,-4.7309,-4.7309,-4.7309,-4.7309,-4.7309,-4.7309,-4.7309,-4.7309,-4.7309,-4.7309,-4.7309,-4.7309,-4.7309,-4.7309,-4.7309,-4.7309,-4.7309,-4.7309,-4.7309,-4.7309,-4.7309,-4.7309,-4.7309,-4.7369,-4.7638,-4.8192,-4.8716,-4.8955,-4.9179,-4.9748,-4.9883,-5.0047,-5.0421,-5.075,-5.0794,-5.0885,-5.1035,-5.1065,-5.069,-5.0676,-5.0838,-5.09,-5.1035,-5.1065,-5.0855,-5.0795,-5.0541,-5.0451,-5.0331,-5.0152,-5.0017,-4.9494,-4.9254,-4.9045,-4.8504,-4.8173,-4.8069,-4.8502,-4.8412,-5.5194,-5.5194,-5.5194,-5.5194,-5.5194,-5.5194,-5.5194,-5.5194,-5.5194,-5.5194,-5.5194,-5.5194,-5.494,-5.4536,-5.4311,-5.3758,-5.28,-5.1962,-5.1528,-5.1513,-5.1334,-5.1229,-5.1229,-5.1229,-5.1229,-5.1229,-5.1229,-5.1229,-5.1229,-5.1229,-5.1229,-5.1229,-5.1229,-5.1229,-5.1229,-5.1229,-5.1229,-5.1229,-5.1229,-5.1214,-5.1154,-5.0795,-5.051,-5.036,-4.9479,-4.8805,-4.8655,-4.7982,-4.7638,-4.7593,-4.7429,-4.7309,-4.7309,-4.7309,-4.7309,-4.7309,-4.7309,-4.7309,-4.7309,-4.7309,-4.7309,-4.7309,-4.7309,-4.7309,-4.7309,-4.7309,-4.7309,-4.7309,-4.7309,-4.7309,-4.7309,-4.7309,-4.7309,-4.7309,-4.7309,-4.7309,-4.7324,-4.7504,-4.7728,-4.8012,-4.8341,-4.8865,-4.9434,-4.9553,-4.9898,-5.042,-5.051,-5.078,-5.1109,-5.1229,-5.1229,-5.1229,-5.1199,-5.1214,-5.1035,-5.1035,-5.1094,-5.1124,-5.1124,-5.1199,-5.1229,-5.1229,-5.1229,-5.1229,-5.1124,-5.0945,-5.0571,-5.0002,-4.9718,-4.9568,-4.9149,-4.8715,-4.8475,-4.8189,-4.8181,-5.5194,-5.5194,-5.5194,-5.5194,-5.5194,-5.5194,-5.5194,-5.5194,-5.5194,-5.5194,-5.5194,-5.5194,-5.5149,-5.5029,-5.4551,-5.4206,-5.3922,-5.286,-5.2232,-5.2067,-5.1558,-5.1274,-5.1229,-5.1229,-5.1229,-5.1229,-5.1229,-5.1229,-5.1229,-5.1229,-5.1229,-5.1229,-5.1229,-5.1229,-5.1229,-5.1229,-5.1229,-5.1229,-5.1229,-5.1229,-5.1229,-5.1154,-5.1124,-5.1048,-5.045,-4.9912,-4.9374,-4.8671,-4.8282,-4.8222,-4.7743,-4.7354,-4.7399,-4.7339,-4.7309,-4.7309,-4.7309,-4.7309,-4.7309,-4.7309,-4.7309,-4.7309,-4.7309,-4.7309,-4.7309,-4.7309,-4.7309,-4.7309,-4.7309,-4.7309,-4.7369,-4.7414,-4.7369,-4.7324,-4.7369,-4.7429,-4.7489,-4.7908,-4.858,-4.909,-4.9269,-4.9553,-5.0001,-5.0211,-5.045,-5.0868,-5.1048,-5.1109,-5.1199,-5.1229,-5.1229,-5.1229,-5.1229,-5.1229,-5.1229,-5.1229,-5.1214,-5.1214,-5.1199,-5.1229,-5.1229,-5.1229,-5.1229,-5.1229,-5.1229,-5.1065,-5.1005,-5.0511,-5.0346,-5.0137,-4.9658,-4.9299,-4.912,-4.8835,-4.8401,-5.5194,-5.5194,-5.5194,-5.5194,-5.5194,-5.5194,-5.5194,-5.5194,-5.5194,-5.5194,-5.5194,-5.5194,-5.5194,-5.5164,-5.497,-5.488,-5.4805,-5.3952,-5.3099,-5.2306,-5.1977,-5.1633,-5.1304,-5.1229,-5.1229,-5.1229,-5.1229,-5.1229,-5.1229,-5.1229,-5.1229,-5.1229,-5.1229,-5.1229,-5.1229,-5.1229,-5.1229,-5.1229,-5.1229,-5.1229,-5.1229,-5.1229,-5.1229,-5.1199,-5.1005,-5.0795,-5.0571,-4.9553,-4.903,-4.9,-4.882,-4.8461,-4.8012,-4.7549,-4.7324,-4.7309,-4.7309,-4.7309,-4.7309,-4.7339,-4.7369,-4.7324,-4.7324,-4.7309,-4.7309,-4.7354,-4.7369,-4.7339,-4.7324,-4.7444,-4.7863,-4.7982,-4.7818,-4.7369,-4.7698,-4.7982,-4.8102,-4.8581,-4.9224,-4.9778,-4.9942,-5.0242,-5.0705,-5.09,-5.096,-5.1124,-5.1229,-5.1229,-5.1229,-5.1229,-5.1229,-5.1229,-5.1229,-5.1229,-5.1229,-5.1229,-5.1229,-5.1229,-5.1229,-5.1229,-5.1229,-5.1229,-5.1229,-5.1229,-5.1229,-5.1214,-5.1169,-5.1065,-5.084,-5.0644,-5.0316,-5.0062,-4.9898,-4.9523,-4.903,-5.5403,-5.5209,-5.5194,-5.5194,-5.5194,-5.5194,-5.5194,-5.5194,-5.5194,-5.5194,-5.5194,-5.5194,-5.5194,-5.5194,-5.5194,-5.5194,-5.5149,-5.4745,-5.3997,-5.295,-5.2336,-5.1962,-5.1543,-5.1319,-5.1229,-5.1229,-5.1229,-5.1229,-5.1229,-5.1229,-5.1229,-5.1229,-5.1229,-5.1229,-5.1229,-5.1229,-5.1229,-5.1229,-5.1229,-5.1229,-5.1229,-5.1229,-5.1229,-5.1229,-5.1229,-5.1229,-5.1154,-5.0391,-4.9883,-4.9628,-4.9419,-4.9105,-4.8641,-4.8267,-4.8027,-4.8042,-4.8042,-4.8057,-4.8042,-4.8117,-4.8027,-4.8027,-4.8027,-4.8057,-4.8042,-4.8042,-4.8027,-4.8027,-4.8072,-4.8192,-4.8566,-4.8641,-4.8446,-4.8117,-4.8416,-4.8745,-4.897,-4.9359,-4.9883,-5.036,-5.0554,-5.0779,-5.1079,-5.1229,-5.1229,-5.1229,-5.1229,-5.1229,-5.1229,-5.1229,-5.1229,-5.1229,-5.1229,-5.1229,-5.1229,-5.1229,-5.1229,-5.1229,-5.1229,-5.1229,-5.1229,-5.1229,-5.1229,-5.1229,-5.1229,-5.1229,-5.1184,-5.1199,-5.1079,-5.0913,-5.0794,-5.0689,-5.0496,-5.0047,-4.9583,-5.5792,-5.5224,-5.5194,-5.5194,-5.5194,-5.5194,-5.5194,-5.5194,-5.5194,-5.5194,-5.5194,-5.5194,-5.5194,-5.5194,-5.5194,-5.5194,-5.5179,-5.5134,-5.479,-5.3982,-5.3084,-5.2366,-5.2067,-5.1498,-5.1229,-5.1229,-5.1229,-5.1229,-5.1229,-5.1229,-5.1229,-5.1229,-5.1229,-5.1229,-5.1229,-5.1229,-5.1229,-5.1229,-5.1229,-5.1229,-5.1229,-5.1229,-5.1229,-5.1229,-5.1229,-5.1229,-5.1184,-5.1065,-5.0825,-5.027,-4.9733,-4.9434,-4.9374,-4.9344,-4.9119,-4.9134,-4.9269,-4.9179,-4.9239,-4.909,-4.912,-4.909,-4.909,-4.9299,-4.912,-4.903,-4.9045,-4.906,-4.9105,-4.9224,-4.9299,-4.9314,-4.9314,-4.9419,-4.9389,-4.9568,-5.0121,-5.024,-5.0495,-5.099,-5.1214,-5.1229,-5.1167,-5.1229,-5.1229,-5.1229,-5.1229,-5.1229,-5.1229,-5.1229,-5.1229,-5.1229,-5.1229,-5.1229,-5.1229,-5.1229,-5.1229,-5.1229,-5.1229,-5.1229,-5.1229,-5.1229,-5.1229,-5.1229,-5.1229,-5.1229,-5.1229,-5.1229,-5.1229,-5.1124,-5.1124,-5.1214,-5.0975,-5.0511,-5.0091,-5.5792,-5.5209,-5.5194,-5.5194,-5.5194,-5.5194,-5.5194,-5.5194,-5.5194,-5.5194,-5.5194,-5.5194,-5.5194,-5.5194,-5.5194,-5.5194,-5.5194,-5.5194,-5.5149,-5.4835,-5.4102,-5.3084,-5.2247,-5.1543,-5.1229,-5.1229,-5.1229,-5.1229,-5.1229,-5.1229,-5.1229,-5.1229,-5.1229,-5.1229,-5.1229,-5.1229,-5.1229,-5.1229,-5.1229,-5.1229,-5.1229,-5.1229,-5.1229,-5.1229,-5.1229,-5.1229,-5.1229,-5.1229,-5.1169,-5.096,-5.0346,-5.0002,-4.9942,-4.9598,-4.9419,-4.9419,-4.9374,-4.9344,-4.9344,-4.9359,-4.9344,-4.9299,-4.9434,-4.9299,-4.9299,-4.9314,-4.9314,-4.9299,-4.9314,-4.9508,-4.9868,-4.9987,-5.0182,-5.0571,-5.0242,-5.0181,-5.075,-5.0975,-5.105,-5.1199,-5.1229,-5.1229,-5.1229,-5.1229,-5.1229,-5.1229,-5.1229,-5.1229,-5.1229,-5.1229,-5.1229,-5.1229,-5.1229,-5.1229,-5.1229,-5.1229,-5.1229,-5.1229,-5.1229,-5.1229,-5.1229,-5.1229,-5.1229,-5.1229,-5.1229,-5.1229,-5.1229,-5.1229,-5.1229,-5.1229,-5.1229,-5.1229,-5.1229,-5.093,-5.0569,-5.6181,-5.5583,-5.5299,-5.5194,-5.5194,-5.5194,-5.5194,-5.5194,-5.5194,-5.5194,-5.5194,-5.5194,-5.5194,-5.5194,-5.5194,-5.5194,-5.5194,-5.5194,-5.5194,-5.5074,-5.4476,-5.3443,-5.2381,-5.1753,-5.1483,-5.1229,-5.1229,-5.1229,-5.1229,-5.1229,-5.1229,-5.1229,-5.1229,-5.1229,-5.1229,-5.1229,-5.1229,-5.1229,-5.1229,-5.1229,-5.1229,-5.1229,-5.1229,-5.1229,-5.1229,-5.1229,-5.1229,-5.1229,-5.1229,-5.1139,-5.0855,-5.0614,-5.0569,-5.0301,-5.0077,-5.0092,-5.0092,-5.0107,-5.0092,-5.0077,-5.0092,-5.0092,-5.0077,-5.0092,-5.0122,-5.0077,-5.0077,-5.0122,-5.0092,-5.0287,-5.0495,-5.0614,-5.0779,-5.1035,-5.0823,-5.0764,-5.1199,-5.1199,-5.1214,-5.1229,-5.1229,-5.1229,-5.1229,-5.1229,-5.1229,-5.1229,-5.1229,-5.1229,-5.1229,-5.1229,-5.1229,-5.1229,-5.1229,-5.1229,-5.1229,-5.1229,-5.1229,-5.1229,-5.1229,-5.1229,-5.1229,-5.1229,-5.1229,-5.1229,-5.1229,-5.1229,-5.1229,-5.1229,-5.1229,-5.1229,-5.1229,-5.1229,-5.1229,-5.1214,-5.0883,-5.6735,-5.6173,-5.5463,-5.5194,-5.5194,-5.5194,-5.5194,-5.5194,-5.5194,-5.5194,-5.5194,-5.5194,-5.5194,-5.5194,-5.5194,-5.5194,-5.5194,-5.5194,-5.5194,-5.5044,-5.4581,-5.3743,-5.274,-5.2411,-5.1977,-5.1513,-5.1334,-5.1289,-5.1259,-5.1229,-5.1229,-5.1229,-5.1229,-5.1229,-5.1229,-5.1229,-5.1229,-5.1229,-5.1229,-5.1229,-5.1229,-5.1229,-5.1229,-5.1229,-5.1229,-5.1229,-5.1229,-5.1229,-5.1229,-5.1229,-5.1229,-5.1154,-5.1154,-5.1184,-5.1154,-5.1079,-5.1005,-5.105,-5.1154,-5.102,-5.1109,-5.105,-5.1079,-5.1229,-5.1065,-5.099,-5.099,-5.0975,-5.1199,-5.1094,-5.1109,-5.1169,-5.1169,-5.1214,-5.1184,-5.1214,-5.1229,-5.1229,-5.1229,-5.1229,-5.1229,-5.1229,-5.1229,-5.1229,-5.1229,-5.1229,-5.1229,-5.1229,-5.1229,-5.1229,-5.1229,-5.1229,-5.1229,-5.1229,-5.1229,-5.1229,-5.1229,-5.1229,-5.1229,-5.1229,-5.1229,-5.1229,-5.1229,-5.1229,-5.1229,-5.1229,-5.1229,-5.1229,-5.1229,-5.1229,-5.1229,-5.1229,-5.1229,-5.1229,-5.105,-5.6735,-5.6173,-5.5463,-5.5194,-5.5194,-5.5194,-5.5194,-5.5194,-5.5194,-5.5194,-5.5194,-5.5194,-5.5194,-5.5194,-5.5194,-5.5194,-5.5194,-5.5194,-5.5194,-5.5179,-5.5089,-5.4551,-5.3758,-5.3294,-5.2636,-5.2127,-5.1992,-5.1723,-5.1379,-5.1259,-5.1229,-5.1229,-5.1229,-5.1229,-5.1229,-5.1229,-5.1229,-5.1229,-5.1229,-5.1229,-5.1229,-5.1229,-5.1229,-5.1229,-5.1229,-5.1229,-5.1229,-5.1229,-5.1229,-5.1229,-5.1229,-5.1229,-5.1229,-5.1229,-5.1229,-5.1229,-5.1229,-5.1229,-5.1229,-5.1229,-5.1229,-5.1229,-5.1229,-5.1229,-5.1229,-5.1229,-5.1229,-5.1229,-5.1229,-5.1229,-5.1229,-5.1229,-5.1229,-5.1229,-5.1229,-5.1229,-5.1229,-5.1229,-5.1229,-5.1229,-5.1229,-5.1229,-5.1229,-5.1229,-5.1229,-5.1229,-5.1229,-5.1229,-5.1229,-5.1229,-5.1229,-5.1229,-5.1229,-5.1229,-5.1229,-5.1229,-5.1229,-5.1229,-5.1229,-5.1229,-5.1229,-5.1229,-5.1229,-5.1229,-5.1229,-5.1229,-5.1229,-5.1229,-5.1229,-5.1229,-5.1229,-5.1229,-5.1229,-5.1229,-5.1214,-5.7199,-5.6555,-5.5912,-5.5478,-5.5209,-5.5194,-5.5194,-5.5194,-5.5194,-5.5194,-5.5194,-5.5194,-5.5194,-5.5194,-5.5194,-5.5194,-5.5194,-5.5194,-5.5194,-5.5194,-5.5179,-5.4999,-5.476,-5.4251,-5.3668,-5.28,-5.2321,-5.1977,-5.1693,-5.1379,-5.1229,-5.1229,-5.1229,-5.1229,-5.1229,-5.1229,-5.1229,-5.1229,-5.1229,-5.1229,-5.1229,-5.1229,-5.1229,-5.1229,-5.1229,-5.1229,-5.1229,-5.1229,-5.1229,-5.1229,-5.1229,-5.1229,-5.1229,-5.1229,-5.1229,-5.1229,-5.1229,-5.1229,-5.1229,-5.1229,-5.1229,-5.1229,-5.1229,-5.1229,-5.1229,-5.1229,-5.1229,-5.1229,-5.1229,-5.1229,-5.1229,-5.1229,-5.1229,-5.1229,-5.1229,-5.1229,-5.1229,-5.1229,-5.1229,-5.1229,-5.1229,-5.1229,-5.1229,-5.1229,-5.1229,-5.1229,-5.1229,-5.1229,-5.1229,-5.1229,-5.1229,-5.1229,-5.1229,-5.1229,-5.1229,-5.1229,-5.1229,-5.1229,-5.1229,-5.1229,-5.1229,-5.1229,-5.1229,-5.1229,-5.1229,-5.1229,-5.1229,-5.1229,-5.1229,-5.1229,-5.1229,-5.1229,-5.1229,-5.1229,-5.1229,-5.7782,-5.7199,-5.6481,-5.5852,-5.5374,-5.5239,-5.5194,-5.5194,-5.5194,-5.5194,-5.5194,-5.5194,-5.5194,-5.5194,-5.5194,-5.5194,-5.5194,-5.5194,-5.5194,-5.5194,-5.5194,-5.5149,-5.5074,-5.4925,-5.4536,-5.3488,-5.2965,-5.2561,-5.2082,-5.1678,-5.1409,-5.1274,-5.1229,-5.1229,-5.1229,-5.1229,-5.1229,-5.1229,-5.1229,-5.1229,-5.1229,-5.1229,-5.1229,-5.1229,-5.1229,-5.1229,-5.1229,-5.1229,-5.1229,-5.1229,-5.1229,-5.1229,-5.1229,-5.1229,-5.1229,-5.1229,-5.1229,-5.1229,-5.1229,-5.1229,-5.1229,-5.1229,-5.1229,-5.1229,-5.1229,-5.1229,-5.1229,-5.1229,-5.1229,-5.1229,-5.1229,-5.1229,-5.1229,-5.1229,-5.1229,-5.1229,-5.1229,-5.1229,-5.1229,-5.1229,-5.1229,-5.1229,-5.1229,-5.1229,-5.1229,-5.1229,-5.1229,-5.1229,-5.1229,-5.1229,-5.1229,-5.1229,-5.1229,-5.1229,-5.1229,-5.1229,-5.1229,-5.1229,-5.1229,-5.1229,-5.1229,-5.1229,-5.1229,-5.1229,-5.1229,-5.1229,-5.1229,-5.1229,-5.1229,-5.1229,-5.1229,-5.1229,-5.1229,-5.1229,-5.1229,-5.7999,-5.7857,-5.666,-5.6107,-5.5927,-5.5433,-5.5194,-5.5194,-5.5194,-5.5194,-5.5194,-5.5194,-5.5194,-5.5194,-5.5194,-5.5194,-5.5194,-5.5194,-5.5194,-5.5194,-5.5194,-5.5194,-5.5194,-5.5179,-5.4985,-5.4775,-5.4117,-5.3324,-5.2516,-5.2052,-5.1723,-5.1349,-5.1229,-5.1229,-5.1229,-5.1229,-5.1229,-5.1229,-5.1229,-5.1229,-5.1229,-5.1229,-5.1229,-5.1229,-5.1229,-5.1229,-5.1229,-5.1229,-5.1229,-5.1229,-5.1229,-5.1229,-5.1229,-5.1229,-5.1229,-5.1229,-5.1229,-5.1229,-5.1229,-5.1229,-5.1229,-5.1229,-5.1229,-5.1229,-5.1229,-5.1229,-5.1229,-5.1229,-5.1229,-5.1229,-5.1229,-5.1229,-5.1229,-5.1229,-5.1229,-5.1229,-5.1229,-5.1229,-5.1229,-5.1229,-5.1229,-5.1229,-5.1229,-5.1229,-5.1229,-5.1229,-5.1229,-5.1229,-5.1229,-5.1229,-5.1229,-5.1229,-5.1229,-5.1229,-5.1229,-5.1229,-5.1229,-5.1229,-5.1229,-5.1229,-5.1229,-5.1229,-5.1229,-5.1229,-5.1229,-5.1229,-5.1229,-5.1229,-5.1229,-5.1229,-5.1229,-5.1229,-5.1229,-5.1229,-5.1229,-5.8426,-5.8037,-5.7049,-5.6466,-5.6143,-5.5478,-5.5194,-5.5194,-5.5194,-5.5194,-5.5194,-5.5194,-5.5194,-5.5194,-5.5194,-5.5194,-5.5194,-5.5194,-5.5194,-5.5194,-5.5194,-5.5194,-5.5194,-5.5194,-5.5194,-5.5089,-5.479,-5.4221,-5.3234,-5.2486,-5.2112,-5.1738,-5.1424,-5.1229,-5.1229,-5.1229,-5.1229,-5.1229,-5.1229,-5.1229,-5.1229,-5.1229,-5.1229,-5.1229,-5.1229,-5.1229,-5.1229,-5.1229,-5.1229,-5.1229,-5.1229,-5.1229,-5.1229,-5.1229,-5.1229,-5.1229,-5.1229,-5.1229,-5.1229,-5.1229,-5.1229,-5.1229,-5.1229,-5.1229,-5.1229,-5.1229,-5.1229,-5.1229,-5.1229,-5.1229,-5.1229,-5.1229,-5.1229,-5.1229,-5.1229,-5.1229,-5.1229,-5.1229,-5.1244,-5.1259,-5.1274,-5.1274,-5.1229,-5.1229,-5.1229,-5.1229,-5.1229,-5.1274,-5.1289,-5.1409,-5.1498,-5.1349,-5.1349,-5.1289,-5.1259,-5.1229,-5.1229,-5.1229,-5.1229,-5.1229,-5.1229,-5.1229,-5.1229,-5.1229,-5.1229,-5.1229,-5.1229,-5.1229,-5.1229,-5.1229,-5.1229,-5.1229,-5.1229,-5.1229,-5.1229,-5.88,-5.8246,-5.7588,-5.693,-5.6301,-5.5658,-5.5314,-5.5209,-5.5194,-5.5194,-5.5194,-5.5194,-5.5194,-5.5194,-5.5194,-5.5194,-5.5194,-5.5194,-5.5194,-5.5194,-5.5194,-5.5194,-5.5194,-5.5194,-5.5194,-5.5179,-5.5134,-5.485,-5.4027,-5.3234,-5.2665,-5.2261,-5.1753,-5.1424,-5.1454,-5.1319,-5.1274,-5.1229,-5.1229,-5.1229,-5.1229,-5.1229,-5.1229,-5.1229,-5.1229,-5.1229,-5.1229,-5.1229,-5.1229,-5.1229,-5.1229,-5.1229,-5.1229,-5.1229,-5.1229,-5.1229,-5.1229,-5.1229,-5.1229,-5.1229,-5.1229,-5.1229,-5.1229,-5.1229,-5.1229,-5.1229,-5.1229,-5.1229,-5.1229,-5.1229,-5.1229,-5.1229,-5.1229,-5.1229,-5.1229,-5.1229,-5.1229,-5.1259,-5.1379,-5.1379,-5.1364,-5.1364,-5.1364,-5.1229,-5.1229,-5.1394,-5.1424,-5.1633,-5.1693,-5.1932,-5.1947,-5.1648,-5.1513,-5.1394,-5.1319,-5.1229,-5.1229,-5.1229,-5.1229,-5.1229,-5.1229,-5.1229,-5.1229,-5.1229,-5.1229,-5.1229,-5.1229,-5.1229,-5.1229,-5.1229,-5.1229,-5.1229,-5.1229,-5.1229,-5.1229,-5.9069,-5.8919,-5.8261,-5.7603,-5.693,-5.6286,-5.5688,-5.5224,-5.5194,-5.5194,-5.5194,-5.5194,-5.5194,-5.5194,-5.5194,-5.5194,-5.5194,-5.5194,-5.5194,-5.5194,-5.5194,-5.5194,-5.5194,-5.5194,-5.5194,-5.5194,-5.5194,-5.4805,-5.4341,-5.3982,-5.3578,-5.3054,-5.2456,-5.2082,-5.2052,-5.1603,-5.1229,-5.1244,-5.1244,-5.1229,-5.1229,-5.1229,-5.1229,-5.1229,-5.1229,-5.1229,-5.1229,-5.1229,-5.1229,-5.1229,-5.1229,-5.1229,-5.1229,-5.1229,-5.1229,-5.1229,-5.1229,-5.1229,-5.1229,-5.1229,-5.1229,-5.1229,-5.1229,-5.1229,-5.1229,-5.1229,-5.1229,-5.1229,-5.1229,-5.1229,-5.1229,-5.1229,-5.1229,-5.1289,-5.1364,-5.1364,-5.1364,-5.1768,-5.1843,-5.1947,-5.2082,-5.1753,-5.1558,-5.1379,-5.1244,-5.1439,-5.1663,-5.1917,-5.2127,-5.2381,-5.2486,-5.2217,-5.2067,-5.1962,-5.1887,-5.1723,-5.1633,-5.1528,-5.1394,-5.1379,-5.1379,-5.1409,-5.1229,-5.1229,-5.1229,-5.1229,-5.1229,-5.1229,-5.1229,-5.1229,-5.1229,-5.1229,-5.1229,-5.1229,-5.1229,-5.9114,-5.9054,-5.8396,-5.7723,-5.7049,-5.6421,-5.5807,-5.5284,-5.5194,-5.5194,-5.5194,-5.5194,-5.5194,-5.5194,-5.5194,-5.5194,-5.5194,-5.5194,-5.5194,-5.5194,-5.5194,-5.5194,-5.5194,-5.5194,-5.5194,-5.5194,-5.5179,-5.5134,-5.4715,-5.4356,-5.3997,-5.3743,-5.3129,-5.2755,-5.2695,-5.2097,-5.1843,-5.1693,-5.1468,-5.1244,-5.1229,-5.1229,-5.1229,-5.1229,-5.1229,-5.1229,-5.1229,-5.1229,-5.1229,-5.1229,-5.1229,-5.1229,-5.1229,-5.1229,-5.1229,-5.1229,-5.1229,-5.1229,-5.1229,-5.1229,-5.1229,-5.1229,-5.1229,-5.1229,-5.1229,-5.1229,-5.1229,-5.1229,-5.1229,-5.1259,-5.1274,-5.1229,-5.1468,-5.1618,-5.1768,-5.2007,-5.2112,-5.2306,-5.2546,-5.2665,-5.2755,-5.2531,-5.2366,-5.2411,-5.2321,-5.2261,-5.2471,-5.2695,-5.2785,-5.286,-5.289,-5.2815,-5.274,-5.268,-5.2636,-5.2546,-5.2531,-5.2366,-5.1947,-5.1902,-5.1738,-5.1648,-5.1468,-5.1274,-5.1229,-5.1229,-5.1229,-5.1229,-5.1229,-5.1229,-5.1229,-5.1229,-5.1229,-5.1229,-5.1229,-5.9114,-5.9054,-5.856,-5.7962,-5.7304,-5.6675,-5.6047,-5.5463,-5.5254,-5.5194,-5.5194,-5.5194,-5.5194,-5.5194,-5.5194,-5.5194,-5.5194,-5.5194,-5.5194,-5.5194,-5.5194,-5.5194,-5.5194,-5.5194,-5.5194,-5.5194,-5.5194,-5.5149,-5.5014,-5.476,-5.4506,-5.4416,-5.3773,-5.3488,-5.3264,-5.283,-5.2441,-5.2411,-5.1843,-5.1558,-5.1483,-5.1304,-5.1244,-5.1229,-5.1229,-5.1229,-5.1229,-5.1229,-5.1229,-5.1229,-5.1229,-5.1229,-5.1229,-5.1229,-5.1229,-5.1229,-5.1229,-5.1349,-5.1394,-5.1394,-5.1259,-5.1229,-5.1229,-5.1229,-5.1229,-5.1229,-5.1379,-5.1513,-5.1528,-5.1588,-5.1678,-5.1798,-5.2037,-5.2321,-5.2456,-5.2785,-5.3039,-5.3039,-5.3174,-5.3384,-5.3518,-5.3668,-5.3578,-5.3668,-5.3533,-5.3234,-5.3294,-5.3473,-5.3563,-5.3578,-5.3533,-5.3533,-5.3443,-5.3309,-5.3054,-5.3084,-5.3174,-5.3159,-5.274,-5.2501,-5.2381,-5.2022,-5.1708,-5.1528,-5.1394,-5.1229,-5.1229,-5.1229,-5.1229,-5.1229,-5.1229,-5.1229,-5.1229,-5.1229,-5.1229,-5.9114,-5.9099,-5.9039,-5.862,-5.7977,-5.7319,-5.6675,-5.5972,-5.5448,-5.5224,-5.5194,-5.5194,-5.5194,-5.5194,-5.5194,-5.5194,-5.5194,-5.5194,-5.5194,-5.5194,-5.5194,-5.5194,-5.5194,-5.5194,-5.5194,-5.5194,-5.5194,-5.5194,-5.5179,-5.5089,-5.5029,-5.5029,-5.4401,-5.4206,-5.3937,-5.3488,-5.3069,-5.2905,-5.2396,-5.2157,-5.1977,-5.1708,-5.1409,-5.1349,-5.1289,-5.1229,-5.1244,-5.1409,-5.1483,-5.1483,-5.1513,-5.1513,-5.1588,-5.1558,-5.1573,-5.1573,-5.1558,-5.1753,-5.1947,-5.1678,-5.1334,-5.1259,-5.1349,-5.1513,-5.1573,-5.1349,-5.1528,-5.2052,-5.2112,-5.2366,-5.271,-5.3039,-5.283,-5.3039,-5.3159,-5.3354,-5.3533,-5.3503,-5.3668,-5.4012,-5.4206,-5.4311,-5.4416,-5.4431,-5.4236,-5.3922,-5.4012,-5.4192,-5.4491,-5.4551,-5.4401,-5.4326,-5.4192,-5.3907,-5.3384,-5.3428,-5.3728,-5.3698,-5.3384,-5.3219,-5.3114,-5.2665,-5.2157,-5.1977,-5.1858,-5.1528,-5.1229,-5.1259,-5.1259,-5.1229,-5.1229,-5.1229,-5.1229,-5.1229,-5.1229,-5.9114,-5.9114,-5.9114,-5.8725,-5.8043,-5.7842,-5.7139,-5.6278,-5.5948,-5.5538,-5.5194,-5.5194,-5.5194,-5.5194,-5.5194,-5.5194,-5.5194,-5.5194,-5.5194,-5.5194,-5.5194,-5.5194,-5.5194,-5.5194,-5.5194,-5.5194,-5.5194,-5.5194,-5.5194,-5.5194,-5.5194,-5.5074,-5.4865,-5.4865,-5.4596,-5.4117,-5.3683,-5.3249,-5.2995,-5.2815,-5.2755,-5.2636,-5.2426,-5.2426,-5.2426,-5.2426,-5.2441,-5.2441,-5.2426,-5.2381,-5.2351,-5.2306,-5.2276,-5.2306,-5.2306,-5.2306,-5.2291,-5.2486,-5.2591,-5.2261,-5.2007,-5.2396,-5.2441,-5.2366,-5.2276,-5.2366,-5.2501,-5.274,-5.2815,-5.3025,-5.3099,-5.3204,-5.3234,-5.3623,-5.3877,-5.4012,-5.4087,-5.4102,-5.4192,-5.4536,-5.4745,-5.4895,-5.4999,-5.5089,-5.485,-5.4596,-5.4745,-5.488,-5.5074,-5.5194,-5.4955,-5.4835,-5.4685,-5.467,-5.4206,-5.4236,-5.4356,-5.4177,-5.4012,-5.3907,-5.3758,-5.3219,-5.277,-5.2576,-5.2336,-5.2037,-5.1753,-5.1439,-5.1304,-5.1259,-5.1229,-5.1229,-5.1229,-5.1229,-5.1229,-5.9114,-5.9114,-5.9114,-5.8845,-5.8411,-5.8148,-5.7498,-5.6541,-5.6226,-5.5807,-5.5209,-5.5194,-5.5194,-5.5194,-5.5194,-5.5194,-5.5194,-5.5194,-5.5194,-5.5194,-5.5194,-5.5194,-5.5194,-5.5194,-5.5194,-5.5194,-5.5194,-5.5194,-5.5194,-5.5194,-5.5194,-5.5194,-5.5194,-5.5149,-5.5059,-5.4745,-5.4251,-5.3892,-5.3563,-5.3503,-5.3488,-5.3234,-5.3114,-5.3069,-5.3054,-5.3039,-5.301,-5.298,-5.3025,-5.3025,-5.3054,-5.3114,-5.3144,-5.3174,-5.3174,-5.3174,-5.3204,-5.3279,-5.3279,-5.2965,-5.271,-5.2935,-5.3039,-5.3069,-5.3174,-5.3204,-5.3099,-5.3458,-5.3488,-5.3548,-5.3653,-5.3967,-5.4072,-5.4446,-5.4491,-5.4596,-5.476,-5.482,-5.4895,-5.5059,-5.5164,-5.5134,-5.5149,-5.5194,-5.5089,-5.4895,-5.4955,-5.5029,-5.5104,-5.5194,-5.5164,-5.5089,-5.5059,-5.5104,-5.5134,-5.4925,-5.473,-5.476,-5.461,-5.4551,-5.4311,-5.3803,-5.3488,-5.3369,-5.3069,-5.2636,-5.2306,-5.2037,-5.1633,-5.1259,-5.1244,-5.1229,-5.1229,-5.1229,-5.1229,-5.9114,-5.9114,-5.9114,-5.9084,-5.8964,-5.8396,-5.7737,-5.7034,-5.6421,-5.5807,-5.5239,-5.5194,-5.5194,-5.5194,-5.5194,-5.5194,-5.5194,-5.5194,-5.5194,-5.5194,-5.5194,-5.5194,-5.5194,-5.5194,-5.5194,-5.5194,-5.5194,-5.5194,-5.5194,-5.5194,-5.5194,-5.5194,-5.5194,-5.5194,-5.5194,-5.5179,-5.5134,-5.5029,-5.4431,-5.4251,-5.4087,-5.3713,-5.3548,-5.3518,-5.3533,-5.3578,-5.3593,-5.3578,-5.3608,-5.3593,-5.3548,-5.3533,-5.3503,-5.3488,-5.3458,-5.3428,-5.3369,-5.3608,-5.4042,-5.3503,-5.3399,-5.3473,-5.3653,-5.3548,-5.3354,-5.3354,-5.3623,-5.4132,-5.4177,-5.4461,-5.479,-5.5044,-5.4985,-5.497,-5.497,-5.5014,-5.5134,-5.5194,-5.5194,-5.5194,-5.5194,-5.5194,-5.5194,-5.5194,-5.5194,-5.5149,-5.5179,-5.5194,-5.5194,-5.5194,-5.5194,-5.5194,-5.5194,-5.5194,-5.5194,-5.5194,-5.5134,-5.5179,-5.5119,-5.497,-5.4835,-5.4476,-5.4251,-5.4132,-5.3743,-5.3249,-5.2935,-5.265,-5.2261,-5.1872,-5.1349,-5.1229,-5.1229,-5.1229,-5.1229,-5.9114,-5.9114,-5.9114,-5.9114,-5.9069,-5.8875,-5.8381,-5.7663,-5.6675,-5.5858,-5.5299,-5.5194,-5.5194,-5.5194,-5.5194,-5.5194,-5.5194,-5.5194,-5.5194,-5.5194,-5.5194,-5.5194,-5.5194,-5.5194,-5.5194,-5.5194,-5.5194,-5.5194,-5.5194,-5.5194,-5.5194,-5.5194,-5.5194,-5.5194,-5.5194,-5.5194,-5.5179,-5.5164,-5.4955,-5.4865,-5.4835,-5.4596,-5.4446,-5.4416,-5.4401,-5.4386,-5.4371,-5.4326,-5.4341,-5.4356,-5.4326,-5.4356,-5.4371,-5.4386,-5.4416,-5.4446,-5.4476,-5.4581,-5.4805,-5.4596,-5.4536,-5.4476,-5.4386,-5.4371,-5.4491,-5.4521,-5.4685,-5.4745,-5.476,-5.497,-5.5119,-5.5149,-5.5119,-5.5119,-5.5134,-5.5134,-5.5194,-5.5194,-5.5194,-5.5194,-5.5194,-5.5194,-5.5194,-5.5194,-5.5194,-5.5194,-5.5194,-5.5194,-5.5194,-5.5194,-5.5194,-5.5194,-5.5194,-5.5194,-5.5194,-5.5194,-5.5194,-5.5194,-5.5194,-5.5134,-5.5014,-5.4895,-5.4865,-5.4685,-5.4266,-5.3847,-5.3548,-5.3249,-5.2935,-5.2531,-5.1977,-5.1483,-5.1364,-5.1319,-5.1229,-5.9114,-5.9114,-5.9114,-5.9114,-5.9114,-5.9114,-5.8725,-5.7962,-5.6765,-5.5912,-5.5568,-5.5329,-5.5194,-5.5194,-5.5194,-5.5194,-5.5194,-5.5194,-5.5194,-5.5194,-5.5194,-5.5194,-5.5194,-5.5194,-5.5194,-5.5194,-5.5194,-5.5194,-5.5194,-5.5194,-5.5194,-5.5194,-5.5194,-5.5194,-5.5194,-5.5194,-5.5194,-5.5179,-5.5104,-5.5119,-5.5119,-5.5104,-5.5119,-5.5104,-5.5104,-5.5134,-5.5164,-5.5194,-5.5194,-5.5194,-5.5194,-5.5194,-5.5194,-5.5194,-5.5194,-5.5194,-5.5194,-5.5164,-5.5134,-5.5119,-5.5014,-5.5059,-5.5194,-5.5194,-5.5194,-5.5044,-5.5074,-5.5134,-5.5194,-5.5194,-5.5194,-5.5194,-5.5194,-5.5194,-5.5194,-5.5194,-5.5194,-5.5194,-5.5194,-5.5194,-5.5194,-5.5194,-5.5194,-5.5194,-5.5194,-5.5194,-5.5194,-5.5194,-5.5194,-5.5194,-5.5194,-5.5194,-5.5194,-5.5194,-5.5194,-5.5194,-5.5194,-5.5194,-5.5194,-5.5194,-5.5179,-5.5059,-5.5149,-5.5194,-5.479,-5.4416,-5.4132,-5.3832,-5.3518,-5.3099,-5.2576,-5.2097,-5.1648,-5.1439,-5.1334,-5.9114,-5.9114,-5.9114,-5.9114,-5.9114,-5.9114,-5.8725,-5.8037,-5.6825,-5.6256,-5.6158,-5.5493,-5.5284,-5.5209,-5.5194,-5.5194,-5.5194,-5.5194,-5.5194,-5.5194,-5.5194,-5.5194,-5.5194,-5.5194,-5.5194,-5.5194,-5.5194,-5.5194,-5.5194,-5.5194,-5.5194,-5.5194,-5.5194,-5.5194,-5.5194,-5.5194,-5.5194,-5.5194,-5.5194,-5.5194,-5.5194,-5.5194,-5.5194,-5.5194,-5.5194,-5.5194,-5.5194,-5.5194,-5.5194,-5.5194,-5.5194,-5.5194,-5.5194,-5.5194,-5.5194,-5.5194,-5.5194,-5.5194,-5.5194,-5.5194,-5.5194,-5.5194,-5.5194,-5.5194,-5.5194,-5.5194,-5.5194,-5.5194,-5.5194,-5.5194,-5.5194,-5.5194,-5.5194,-5.5194,-5.5194,-5.5194,-5.5194,-5.5194,-5.5194,-5.5194,-5.5194,-5.5194,-5.5194,-5.5194,-5.5194,-5.5194,-5.5194,-5.5194,-5.5194,-5.5194,-5.5194,-5.5194,-5.5194,-5.5194,-5.5194,-5.5194,-5.5194,-5.5194,-5.5194,-5.5194,-5.5194,-5.5194,-5.5194,-5.5194,-5.5194,-5.497,-5.461,-5.4326,-5.4072,-5.3638,-5.3309,-5.2591,-5.2112,-5.1678,-5.1498,-5.9114,-5.9114,-5.9114,-5.9114,-5.9114,-5.9114,-5.8725,-5.8097,-5.7648,-5.7124,-5.6203,-5.5972,-5.5628,-5.5224,-5.5194,-5.5194,-5.5194,-5.5194,-5.5194,-5.5194,-5.5194,-5.5194,-5.5194,-5.5194,-5.5194,-5.5194,-5.5194,-5.5194,-5.5194,-5.5194,-5.5194,-5.5194,-5.5194,-5.5194,-5.5194,-5.5194,-5.5194,-5.5194,-5.5194,-5.5194,-5.5194,-5.5194,-5.5194,-5.5194,-5.5194,-5.5194,-5.5194,-5.5194,-5.5194,-5.5194,-5.5194,-5.5194,-5.5194,-5.5194,-5.5194,-5.5194,-5.5194,-5.5194,-5.5194,-5.5194,-5.5194,-5.5194,-5.5194,-5.5194,-5.5194,-5.5194,-5.5194,-5.5194,-5.5194,-5.5194,-5.5194,-5.5194,-5.5194,-5.5194,-5.5194,-5.5194,-5.5194,-5.5194,-5.5194,-5.5194,-5.5194,-5.5194,-5.5194,-5.5194,-5.5194,-5.5194,-5.5194,-5.5194,-5.5194,-5.5194,-5.5194,-5.5194,-5.5194,-5.5194,-5.5194,-5.5194,-5.5194,-5.5194,-5.5194,-5.5194,-5.5194,-5.5194,-5.5194,-5.5194,-5.5194,-5.5149,-5.5029,-5.476,-5.4536,-5.4551,-5.4236,-5.3354,-5.2576,-5.2127,-5.1618,-5.9114,-5.9114,-5.9114,-5.9114,-5.9114,-5.9114,-5.8845,-5.8501,-5.8246,-5.7618,-5.693,-5.6376,-5.5957,-5.5613,-5.5344,-5.5194,-5.5194,-5.5194,-5.5194,-5.5194,-5.5194,-5.5194,-5.5194,-5.5194,-5.5194,-5.5194,-5.5194,-5.5194,-5.5194,-5.5194,-5.5194,-5.5194,-5.5194,-5.5194,-5.5194,-5.5194,-5.5194,-5.5194,-5.5194,-5.5194,-5.5194,-5.5194,-5.5194,-5.5194,-5.5194,-5.5194,-5.5194,-5.5194,-5.5194,-5.5194,-5.5194,-5.5194,-5.5194,-5.5194,-5.5194,-5.5194,-5.5194,-5.5194,-5.5194,-5.5194,-5.5194,-5.5194,-5.5194,-5.5194,-5.5194,-5.5194,-5.5194,-5.5194,-5.5194,-5.5194,-5.5194,-5.5194,-5.5194,-5.5194,-5.5194,-5.5194,-5.5194,-5.5194,-5.5194,-5.5194,-5.5194,-5.5194,-5.5194,-5.5194,-5.5194,-5.5194,-5.5194,-5.5194,-5.5194,-5.5194,-5.5194,-5.5194,-5.5194,-5.5194,-5.5194,-5.5194,-5.5194,-5.5194,-5.5194,-5.5194,-5.5194,-5.5194,-5.5194,-5.5194,-5.5194,-5.5149,-5.5119,-5.5149,-5.5029,-5.4985,-5.485,-5.4177,-5.3294,-5.2516,-5.1977,-5.9114,-5.9114,-5.9114,-5.9114,-5.9114,-5.9114,-5.9084,-5.9039,-5.8486,-5.8156,-5.7842,-5.6885,-5.6346,-5.6017,-5.5613,-5.5314,-5.5239,-5.5194,-5.5194,-5.5194,-5.5194,-5.5194,-5.5194,-5.5194,-5.5194,-5.5194,-5.5194,-5.5194,-5.5194,-5.5194,-5.5194,-5.5194,-5.5194,-5.5194,-5.5194,-5.5194,-5.5194,-5.5194,-5.5194,-5.5194,-5.5194,-5.5194,-5.5194,-5.5194,-5.5194,-5.5194,-5.5194,-5.5194,-5.5194,-5.5194,-5.5194,-5.5194,-5.5194,-5.5194,-5.5194,-5.5194,-5.5194,-5.5194,-5.5194,-5.5194,-5.5194,-5.5194,-5.5194,-5.5194,-5.5194,-5.5194,-5.5194,-5.5194,-5.5194,-5.5194,-5.5194,-5.5194,-5.5194,-5.5194,-5.5194,-5.5194,-5.5194,-5.5194,-5.5194,-5.5194,-5.5194,-5.5194,-5.5194,-5.5194,-5.5194,-5.5194,-5.5194,-5.5194,-5.5239,-5.5254,-5.5254,-5.5254,-5.5194,-5.5194,-5.5194,-5.5194,-5.5194,-5.5194,-5.5194,-5.5194,-5.5194,-5.5194,-5.5194,-5.5194,-5.5194,-5.5194,-5.5179,-5.5194,-5.5194,-5.5149,-5.4999,-5.4805,-5.4102,-5.3159,-5.2411,-5.9114,-5.9114,-5.9114,-5.9114,-5.9114,-5.9114,-5.9114,-5.9099,-5.8949,-5.8575,-5.8126,-5.7737,-5.7094,-5.6331,-5.6077,-5.5748,-5.5314,-5.5329,-5.5209,-5.5194,-5.5194,-5.5194,-5.5194,-5.5194,-5.5194,-5.5194,-5.5194,-5.5194,-5.5194,-5.5194,-5.5194,-5.5194,-5.5194,-5.5194,-5.5194,-5.5194,-5.5194,-5.5194,-5.5194,-5.5194,-5.5194,-5.5194,-5.5194,-5.5194,-5.5194,-5.5194,-5.5194,-5.5194,-5.5194,-5.5194,-5.5194,-5.5194,-5.5194,-5.5194,-5.5194,-5.5194,-5.5194,-5.5194,-5.5194,-5.5194,-5.5194,-5.5194,-5.5194,-5.5194,-5.5194,-5.5194,-5.5194,-5.5194,-5.5194,-5.5194,-5.5194,-5.5194,-5.5194,-5.5194,-5.5194,-5.5194,-5.5194,-5.5194,-5.5194,-5.5194,-5.5194,-5.5194,-5.5194,-5.5224,-5.5194,-5.5194,-5.5194,-5.5224,-5.5344,-5.5388,-5.5418,-5.5388,-5.5224,-5.5194,-5.5194,-5.5194,-5.5194,-5.5194,-5.5194,-5.5194,-5.5194,-5.5194,-5.5194,-5.5194,-5.5194,-5.5194,-5.5194,-5.5194,-5.5194,-5.5194,-5.5134,-5.494,-5.461,-5.3803,-5.3039,-5.9114,-5.9114,-5.9114,-5.9114,-5.9114,-5.9114,-5.9114,-5.9114,-5.9099,-5.8904,-5.853,-5.8231,-5.7693,-5.6944,-5.675,-5.6241,-5.5703,-5.5628,-5.5433,-5.5284,-5.5239,-5.5194,-5.5194,-5.5194,-5.5194,-5.5194,-5.5194,-5.5194,-5.5194,-5.5194,-5.5194,-5.5194,-5.5194,-5.5194,-5.5194,-5.5194,-5.5194,-5.5194,-5.5194,-5.5194,-5.5194,-5.5194,-5.5194,-5.5194,-5.5194,-5.5194,-5.5194,-5.5194,-5.5194,-5.5194,-5.5194,-5.5194,-5.5194,-5.5194,-5.5194,-5.5194,-5.5194,-5.5194,-5.5194,-5.5194,-5.5194,-5.5194,-5.5194,-5.5194,-5.5194,-5.5194,-5.5194,-5.5194,-5.5194,-5.5194,-5.5194,-5.5194,-5.5194,-5.5194,-5.5194,-5.5194,-5.5194,-5.5194,-5.5194,-5.5194,-5.5194,-5.5194,-5.5299,-5.5643,-5.5658,-5.5822,-5.5733,-5.5942,-5.5957,-5.5763,-5.5733,-5.5643,-5.5553,-5.5299,-5.5194,-5.5194,-5.5194,-5.5194,-5.5194,-5.5194,-5.5194,-5.5194,-5.5194,-5.5194,-5.5194,-5.5194,-5.5194,-5.5194,-5.5194,-5.5194,-5.5149,-5.5089,-5.473,-5.4371,-5.3653,-5.9114,-5.9114,-5.9114,-5.9114,-5.9114,-5.9114,-5.9114,-5.9114,-5.9114,-5.9099,-5.8994,-5.8501,-5.8246,-5.7902,-5.7543,-5.69,-5.6451,-5.6301,-5.5912,-5.5523,-5.5403,-5.5314,-5.5239,-5.5194,-5.5194,-5.5194,-5.5194,-5.5194,-5.5194,-5.5194,-5.5194,-5.5194,-5.5194,-5.5194,-5.5194,-5.5194,-5.5194,-5.5194,-5.5194,-5.5194,-5.5194,-5.5194,-5.5194,-5.5194,-5.5194,-5.5194,-5.5194,-5.5194,-5.5194,-5.5194,-5.5194,-5.5194,-5.5194,-5.5194,-5.5194,-5.5194,-5.5194,-5.5194,-5.5194,-5.5194,-5.5194,-5.5194,-5.5194,-5.5209,-5.5224,-5.5239,-5.5239,-5.5239,-5.5239,-5.5239,-5.5239,-5.5254,-5.5254,-5.5299,-5.5299,-5.5359,-5.5374,-5.5433,-5.5478,-5.5478,-5.5478,-5.5478,-5.5703,-5.6047,-5.6226,-5.6406,-5.6615,-5.6885,-5.6974,-5.663,-5.6436,-5.6271,-5.6122,-5.5807,-5.5344,-5.5284,-5.5314,-5.5194,-5.5194,-5.5194,-5.5194,-5.5194,-5.5194,-5.5194,-5.5194,-5.5194,-5.5143,-5.5143,-5.5143,-5.5143,-5.5179,-5.5134,-5.5044,-5.4655,-5.4097,-5.9114,-5.9114,-5.9114,-5.9114,-5.9114,-5.9114,-5.9114,-5.9114,-5.9114,-5.9114,-5.9069,-5.8979,-5.8665,-5.8141,-5.8037,-5.7573,-5.7019,-5.693,-5.6541,-5.6077,-5.5882,-5.5598,-5.5344,-5.5254,-5.5209,-5.5194,-5.5194,-5.5194,-5.5194,-5.5194,-5.5194,-5.5194,-5.5194,-5.5194,-5.5194,-5.5194,-5.5194,-5.5194,-5.5194,-5.5194,-5.5194,-5.5194,-5.5194,-5.5194,-5.5194,-5.5194,-5.5194,-5.5194,-5.5194,-5.5194,-5.5194,-5.5194,-5.5194,-5.5194,-5.5194,-5.5194,-5.5194,-5.5194,-5.5194,-5.5194,-5.5194,-5.5344,-5.5359,-5.5374,-5.5403,-5.5433,-5.5433,-5.5433,-5.5418,-5.5374,-5.5374,-5.5418,-5.5448,-5.5598,-5.5658,-5.5882,-5.6002,-5.6286,-5.6526,-5.6526,-5.6526,-5.6526,-5.6555,-5.6795,-5.6885,-5.7034,-5.7124,-5.7378,-5.7468,-5.7289,-5.7102,-5.6892,-5.6683,-5.6032,-5.5448,-5.5493,-5.5493,-5.5329,-5.5194,-5.5194,-5.5194,-5.5194,-5.5194,-5.5194,-5.5143,-5.5093,-5.5093,-5.5027,-5.4926,-5.4926,-5.5093,-5.5164,-5.5134,-5.4869,-5.4261]},{"header":{"parameterUnit":"m.s-1","parameterCategory":1,"la1":31.0,"la2":29.5877,"lo1":-88.7671,"lo2":-86.6584,"dy":0.0162,"dx":0.0185,"nx":115,"ny":88,"refTime":"2024-04-02T18:00:00:Z","depth":0,"parameterNumber":3,"parameterNumberName":"V-component_of_WINDS"},"data":[0.0,0.0,0.0,0.0,0.0,0.0,0.0,0.0,0.0,0.0,0.0,0.0,0.0,0.0,0.0,0.0,0.0,0.0,0.0,0.0,0.0,0.0,0.0,0.0,0.0,0.0,0.0,0.0,0.0,0.0,0.0,0.0,0.0,0.0,0.0,0.0,0.0,0.0,0.0,0.0,0.0,0.0,0.0,0.0,0.0,0.0,0.0,0.0,0.0,0.0,0.0,0.0,0.0,0.0,0.0,0.0,0.0,0.0,0.0,0.0,0.0,0.0,0.0,0.0,0.0,0.0,0.0,0.0,0.0,0.0,0.0,0.0,0.0,0.0,0.0,0.0,0.0,0.0,0.0,0.0,0.0,0.0,0.0,0.0,0.0,0.0,0.0,0.0,0.0,0.0,0.0,0.0,0.0,0.0,0.0,0.0,0.0,0.0,0.0,0.0,0.0,0.0,0.0,0.0,0.0,0.0,0.0,0.0,0.0,0.0,0.0,0.0,0.0,0.0,0.0,0.0,0.0,0.0,0.0,0.0,0.0,0.0,0.0,0.0,0.0,0.0,0.0,0.0,0.0,0.0,0.0,0.0,0.0,0.0,0.0,0.0,0.0,0.0,0.0,0.0,0.0,0.0,0.0,0.0,0.0,0.0,0.0,0.0,0.0,0.0,0.0,0.0,0.0,0.0,0.0,0.0,0.0,0.0,0.0,0.0,0.0,0.0,0.0,0.0,0.0,0.0,0.0,0.0,0.0,0.0,0.0,0.0,0.0,0.0,0.0,0.0,0.0,0.0,0.0,0.0,0.0,0.0,0.0,0.0,0.0,0.0,0.0,0.0,0.0,0.0,0.0,0.0,0.0,0.0,0.0,0.0,0.0,0.0,0.0,0.0,0.0,0.0,0.0,0.0,0.0,0.0,0.0,0.0,0.0,0.0,0.0,0.0,0.0,0.0,0.0,0.0,0.0,0.0,0.0,0.0,0.0,0.0,0.0,0.0,0.0,0.0,0.0,0.0,0.0,0.0,0.0,0.0,0.0,0.0,0.0,0.0,0.0,0.0,0.0,0.0,0.0,0.0,0.0,0.0,0.0,0.0,0.0,0.0,0.0,0.0,0.0,0.0,0.0,0.0,0.0,0.0,0.0,0.0,0.0,0.0,0.0,0.0,0.0,0.0,0.0,0.0,0.0,0.0,0.0,0.0,0.0,0.0,0.0,0.0,0.0,0.0,0.0,0.0,0.0,0.0,0.0,0.0,0.0,0.0,0.0,0.0,0.0,0.0,0.0,0.0,0.0,0.0,0.0,0.0,0.0,0.0,0.0,0.0,0.0,0.0,0.0,0.0,0.0,0.0,0.0,0.0,0.0,0.0,0.0,0.0,0.0,0.0,0.0,0.0,0.0,0.0,0.0,0.0,0.0,0.0,0.0,0.0,0.0,0.0,0.0,0.0,0.0,0.0,0.0,0.0,0.0,0.0,0.0,0.0,0.0,0.0,0.0,0.0,0.0,0.0,0.0,0.0,0.0,0.0,0.0,0.0,0.0,0.0,0.0,0.0,0.0,0.0,0.0,0.0,0.0,0.0,0.0,0.0,0.0,0.0,0.0,0.0,0.0,0.0,0.0,0.0,0.0,0.0,0.0,0.0,0.0,0.0,0.0,0.0,0.0,0.0,0.0,0.0,0.0,0.0,0.0,0.0,0.0,0.0,0.0,0.0,0.0,0.0,0.0,0.0,0.0,0.0,0.0,0.0,0.0,0.0,0.0,0.0,0.0,0.0,0.0,0.0,0.0,0.0,0.0,0.0,0.0,0.0,0.0,0.0,0.0,0.0,0.0,0.0,0.0,0.0,0.0,0.0,0.0,0.0,0.0,0.0,0.0,0.0,0.0,0.0,0.0,0.0,0.0,0.0,0.0,0.0,0.0,0.0,0.0,0.0,0.0,0.0,0.0,0.0,0.0,0.0,0.0,0.0,0.0,0.0,0.0,0.0,0.0,0.0,0.0,0.0,0.0,0.0,0.0,0.0,0.0,0.0,0.0,0.0,0.0,0.0,0.0,0.0,0.0,0.0,0.0,0.0,0.0,0.0,0.0,0.0,0.0,0.0,0.0,0.0,0.0,0.0,0.0,0.0,0.0,0.0,0.0,0.0,0.0,0.0,0.0,0.0,0.0,0.0,0.0,0.0,0.0,0.0,0.0,0.0,0.0,0.0,0.0,0.0,0.0,0.0,0.0,0.0,0.0,0.0,0.0,0.0,0.0,0.0,0.0,0.0,0.0,0.0,0.0,0.0,0.0,0.0,0.0,0.0,0.0,0.0,0.0,0.0,0.0,0.0,0.0,0.0,0.0,0.0,0.0,0.0,0.0,0.0,0.0,0.0,0.0,0.0,0.0,0.0,0.0,0.0,0.0,0.0,0.0,0.0,0.0,0.0,0.0,0.0,0.0,0.0,0.0,0.0,0.0,0.0,0.0,0.0,0.0,0.0,0.0,0.0,0.0,0.0,0.0,0.0,0.0,0.0,0.0,0.0,0.0,0.0,0.0,0.0,0.0,0.0,0.0,0.0,0.0,0.0,0.0,0.0,0.0,0.0,0.0,0.0,0.0,0.0,0.0,0.0,0.0,0.0,0.0,0.0,0.0,0.0,0.0,0.0,0.0,0.0,0.0,0.0,0.0,0.0,0.0,0.0,0.0,0.0,0.0,0.0,0.0,0.0,0.0,0.0,0.0,0.0,0.0,0.0,0.0,0.0,0.0,0.0,0.0,0.0,0.0,0.0,0.0,0.0,0.0,0.0,0.0,0.0,0.0,0.0,0.0,0.0,0.0,0.0,0.0,0.0,0.0,0.0,0.0,0.0,0.0,0.0,0.0,0.0,0.0,0.0,0.0,0.0,0.0,0.0,0.0,0.0,0.0,0.0,0.0,0.0,0.0,0.0,0.0,0.0,0.0,0.0,0.0,0.0,0.0,0.0,0.0,0.0,0.0,0.0,0.0,0.0,0.0,0.0,0.0,0.0,0.0,0.0,0.0,0.0,0.0,0.0,0.0,0.0,0.0,0.0,0.0,0.0,0.0,0.0,0.0,0.0,0.0,0.0,0.0,0.0,0.0,0.0,0.0,0.0,0.0,0.0,0.0,0.0,0.0,0.0,0.0,0.0,0.0,0.0,0.0,0.0,0.0,0.0,0.0,0.0,0.0,0.0,0.0,0.0,0.0,0.0,0.0,0.0,0.0,0.0,0.0,0.0,0.0,0.0,0.0,0.0,0.0,0.0,0.0,0.0,0.0,0.0,0.0,0.0,0.0,0.0,0.0,0.0,0.0,0.0,0.0,0.0,0.0,0.0,0.0,0.0,0.0,0.0,0.0,0.0,0.0,0.0,0.0,0.0,0.0,0.0,0.0,0.0,0.0,0.0,0.0,0.0,0.0,0.0,0.0,0.0,0.0,0.0,0.0,0.0,0.0,0.0,0.0,0.0,0.0,0.0,0.0,0.0,0.0,0.0,0.0,0.0,0.0,0.0,0.0,0.0,0.0,0.0,0.0,0.0,0.0,0.0,0.0,0.0,0.0,0.0,0.0,0.0,0.0,0.0,0.0,0.0,0.0,0.0,0.0,0.0,0.0,0.0,0.0,0.0,0.0,0.0,0.0,0.0,0.0,0.0,0.0,0.0,0.0,0.0,0.0,0.0,0.0,0.0,0.0,0.0,0.0,0.0,0.0,0.0,0.0,0.0,0.0,0.0,0.0,0.0,0.0,0.0,0.0,0.0,0.0,0.0,0.0,0.0,0.0,0.0,0.0,0.0,0.0,0.0,0.0,0.0,0.0,0.0,0.0,0.0,0.0,0.0,0.0,0.0,0.0,0.0,0.0,0.0,0.0,0.0,0.0,0.0,0.0,0.0,0.0,0.0,0.0,0.0,0.0,0.0,0.0,0.0,0.0,0.0,0.0,0.0,0.0,0.0,0.0,0.0,0.0,0.0,0.0,0.0,0.0,0.0,0.0,0.0,0.0,0.0,0.0,0.0,0.0,0.0,0.0,0.0,0.0,0.0,0.0,0.0,0.0,0.0,0.0,0.0,0.0,0.0,0.0,0.0,0.0,0.0,0.0,0.0,0.0,0.0,0.0,0.0,0.0,0.0,0.0,0.0,0.0,0.0,0.0,0.0,0.0,0.0,0.0,0.0,0.0,0.0,0.0,0.0,0.0,0.0,0.0,0.0,0.0,0.0,0.0,0.0,0.0,0.0,0.0,0.0,0.0,0.0,0.0,0.0,0.0,0.0,2.4211,0.0,0.0,0.0,0.0,0.0,0.0,0.0,0.0,0.0,0.0,0.0,0.0,0.0,0.0,0.0,0.0,0.0,0.0,0.0,0.0,0.0,0.0,0.0,0.0,0.0,0.0,0.0,0.0,0.0,0.0,0.0,0.0,0.0,0.0,0.0,0.0,0.0,0.0,0.0,0.0,0.0,0.0,0.0,0.0,0.0,0.0,0.0,0.0,0.0,0.0,0.0,0.0,0.0,0.0,0.0,0.0,0.0,0.0,0.0,0.0,0.0,0.0,0.0,0.0,0.0,0.0,0.0,0.0,0.0,0.0,0.0,0.0,0.0,0.0,0.0,0.0,0.0,0.0,0.0,0.0,0.0,0.0,0.0,0.0,0.0,0.0,0.0,0.0,0.0,0.0,0.0,0.0,0.0,0.0,0.0,0.0,0.0,0.0,0.0,0.0,0.0,0.0,0.0,0.0,0.0,0.0,0.0,0.0,0.0,0.0,2.45,2.4542,2.4321,2.4211,2.4211,0.0,0.0,0.0,0.0,0.0,0.0,0.0,0.0,0.0,0.0,0.0,0.0,0.0,0.0,0.0,0.0,0.0,0.0,0.0,0.0,0.0,0.0,0.0,0.0,0.0,0.0,0.0,0.0,0.0,0.0,0.0,0.0,0.0,0.0,0.0,0.0,0.0,0.0,0.0,0.0,0.0,0.0,0.0,0.0,0.0,0.0,0.0,0.0,0.0,0.0,0.0,0.0,0.0,0.0,0.0,0.0,0.0,0.0,0.0,0.0,0.0,0.0,0.0,0.0,0.0,0.0,0.0,0.0,0.0,0.0,0.0,0.0,0.0,0.0,0.0,0.0,0.0,0.0,0.0,0.0,0.0,0.0,0.0,0.0,0.0,0.0,0.0,0.0,0.0,0.0,0.0,0.0,0.0,0.0,0.0,0.0,0.0,0.0,0.0,0.0,0.0,0.0,0.0,0.0,0.0,0.0,0.0,0.0,0.0,0.0,0.0,0.0,2.456,2.4303,2.4211,0.0,0.0,0.0,0.0,0.0,0.0,0.0,0.0,0.0,0.0,0.0,0.0,0.0,0.0,0.0,0.0,0.0,0.0,0.0,0.0,0.0,0.0,0.0,0.0,0.0,0.0,0.0,0.0,0.0,0.0,0.0,0.0,0.0,0.0,0.0,0.0,0.0,0.0,0.0,0.0,0.0,0.0,0.0,0.0,0.0,0.0,0.0,0.0,0.0,0.0,0.0,0.0,0.0,0.0,0.0,0.0,0.0,0.0,0.0,0.0,0.0,0.0,0.0,0.0,0.0,0.0,0.0,0.0,0.0,0.0,0.0,0.0,0.0,0.0,0.0,0.0,0.0,0.0,0.0,0.0,0.0,0.0,0.0,0.0,0.0,0.0,0.0,0.0,0.0,0.0,0.0,0.0,0.0,0.0,0.0,0.0,0.0,0.0,0.0,0.0,0.0,0.0,0.0,0.0,0.0,0.0,0.0,0.0,0.0,0.0,2.5317,2.5307,2.4983,0.0,2.4238,0.0,0.0,0.0,0.0,0.0,0.0,0.0,0.0,0.0,0.0,0.0,0.0,0.0,0.0,0.0,0.0,0.0,0.0,0.0,0.0,0.0,0.0,0.0,0.0,0.0,0.0,0.0,0.0,0.0,0.0,0.0,0.0,0.0,0.0,0.0,0.0,0.0,0.0,0.0,0.0,0.0,0.0,0.0,0.0,0.0,0.0,0.0,0.0,0.0,0.0,0.0,0.0,0.0,0.0,0.0,0.0,0.0,0.0,0.0,0.0,0.0,0.0,0.0,0.0,0.0,0.0,0.0,0.0,0.0,0.0,0.0,0.0,0.0,0.0,0.0,0.0,0.0,0.0,0.0,0.0,0.0,0.0,0.0,0.0,0.0,0.0,0.0,0.0,0.0,0.0,0.0,0.0,0.0,0.0,0.0,0.0,0.0,0.0,0.0,0.0,0.0,0.0,0.0,0.0,0.0,0.0,0.0,0.0,0.0,0.0,2.594,2.5773,2.5106,2.4693,0.0,0.0,0.0,0.0,0.0,0.0,0.0,0.0,0.0,0.0,0.0,0.0,0.0,0.0,0.0,0.0,0.0,0.0,0.0,0.0,0.0,0.0,0.0,0.0,0.0,0.0,0.0,0.0,0.0,0.0,0.0,0.0,0.0,0.0,0.0,0.0,0.0,0.0,0.0,0.0,0.0,0.0,0.0,0.0,0.0,0.0,0.0,0.0,0.0,0.0,0.0,0.0,0.0,0.0,0.0,0.0,0.0,0.0,0.0,0.0,0.0,0.0,0.0,0.0,0.0,0.0,0.0,0.0,0.0,0.0,0.0,0.0,0.0,0.0,0.0,0.0,0.0,0.0,0.0,0.0,0.0,0.0,0.0,0.0,0.0,0.0,0.0,0.0,0.0,0.0,0.0,0.0,0.0,0.0,0.0,0.0,0.0,0.0,0.0,0.0,0.0,0.0,0.0,0.0,0.0,0.0,0.0,0.0,0.0,0.0,2.6558,2.6451,2.6109,2.5564,2.5159,2.4877,0.0,0.0,0.0,0.0,0.0,0.0,0.0,0.0,0.0,0.0,0.0,0.0,0.0,0.0,0.0,0.0,0.0,0.0,0.0,0.0,0.0,0.0,0.0,0.0,0.0,0.0,0.0,0.0,0.0,0.0,0.0,0.0,0.0,0.0,0.0,0.0,0.0,0.0,0.0,0.0,0.0,0.0,0.0,0.0,0.0,0.0,0.0,0.0,0.0,0.0,0.0,0.0,0.0,0.0,0.0,0.0,0.0,0.0,0.0,0.0,0.0,0.0,0.0,0.0,0.0,0.0,0.0,0.0,0.0,0.0,0.0,0.0,0.0,0.0,0.0,0.0,0.0,0.0,0.0,0.0,0.0,0.0,0.0,0.0,0.0,0.0,0.0,0.0,0.0,0.0,0.0,0.0,0.0,0.0,0.0,0.0,0.0,0.0,0.0,0.0,0.0,0.0,0.0,0.0,0.0,0.0,0.0,0.0,2.6646,2.6871,2.6784,2.6411,2.6346,2.5964,0.0,0.0,0.0,0.0,0.0,0.0,0.0,0.0,0.0,0.0,0.0,0.0,0.0,0.0,0.0,0.0,0.0,0.0,0.0,0.0,0.0,0.0,0.0,0.0,0.0,0.0,0.0,0.0,0.0,0.0,0.0,0.0,0.0,0.0,0.0,0.0,0.0,0.0,0.0,0.0,0.0,0.0,0.0,0.0,0.0,0.0,0.0,0.0,0.0,0.0,0.0,0.0,0.0,0.0,0.0,0.0,0.0,0.0,0.0,0.0,0.0,0.0,0.0,0.0,0.0,0.0,0.0,0.0,0.0,0.0,0.0,0.0,0.0,0.0,0.0,0.0,0.0,0.0,0.0,0.0,0.0,0.0,0.0,0.0,0.0,0.0,0.0,0.0,0.0,0.0,0.0,0.0,0.0,0.0,0.0,0.0,0.0,0.0,0.0,0.0,0.0,0.0,0.0,0.0,0.0,0.0,0.0,0.0,0.0,2.7116,2.7215,2.7302,2.7365,2.6905,2.6385,0.0,0.0,0.0,0.0,0.0,0.0,0.0,0.0,0.0,0.0,0.0,0.0,0.0,0.0,0.0,0.0,0.0,0.0,0.0,0.0,0.0,0.0,0.0,0.0,0.0,0.0,0.0,0.0,0.0,0.0,0.0,0.0,0.0,0.0,0.0,0.0,0.0,0.0,0.0,0.0,0.0,0.0,0.0,0.0,0.0,0.0,0.0,0.0,0.0,0.0,0.0,0.0,0.0,0.0,0.0,0.0,0.0,0.0,0.0,0.0,0.0,0.0,0.0,0.0,0.0,0.0,0.0,0.0,0.0,0.0,0.0,0.0,0.0,0.0,0.0,0.0,0.0,0.0,0.0,0.0,0.0,0.0,0.0,0.0,0.0,0.0,0.0,0.0,0.0,0.0,0.0,0.0,0.0,0.0,0.0,0.0,0.0,0.0,0.0,0.0,0.0,0.0,0.0,0.0,0.0,0.0,0.0,0.0,0.0,2.7539,0.0,2.7701,2.7906,2.7424,2.6974,0.0,0.0,0.0,0.0,0.0,0.0,0.0,0.0,0.0,0.0,0.0,0.0,0.0,0.0,0.0,0.0,0.0,0.0,0.0,0.0,0.0,0.0,0.0,0.0,0.0,0.0,0.0,0.0,0.0,0.0,0.0,0.0,0.0,0.0,0.0,0.0,0.0,0.0,0.0,0.0,0.0,0.0,0.0,0.0,0.0,0.0,0.0,0.0,0.0,0.0,0.0,0.0,0.0,0.0,0.0,0.0,0.0,0.0,0.0,0.0,0.0,0.0,0.0,0.0,0.0,0.0,0.0,0.0,0.0,0.0,0.0,0.0,0.0,0.0,0.0,0.0,0.0,0.0,0.0,0.0,0.0,0.0,0.0,0.0,0.0,0.0,0.0,0.0,0.0,0.0,0.0,0.0,0.0,0.0,0.0,0.0,0.0,0.0,0.0,0.0,0.0,0.0,0.0,0.0,0.0,0.0,0.0,0.0,2.7593,2.7853,2.7906,2.7906,2.7906,2.7897,2.7694,0.0,0.0,0.0,0.0,0.0,0.0,0.0,0.0,0.0,0.0,0.0,0.0,0.0,0.0,0.0,0.0,0.0,0.0,0.0,0.0,0.0,0.0,0.0,0.0,0.0,0.0,0.0,0.0,0.0,0.0,0.0,0.0,0.0,0.0,0.0,0.0,0.0,0.0,0.0,0.0,0.0,0.0,0.0,0.0,0.0,0.0,0.0,0.0,0.0,0.0,0.0,0.0,0.0,0.0,0.0,0.0,0.0,0.0,0.0,0.0,0.0,0.0,0.0,0.0,0.0,0.0,0.0,0.0,0.0,0.0,0.0,0.0,0.0,0.0,0.0,0.0,0.0,0.0,0.0,0.0,0.0,0.0,0.0,0.0,0.0,0.0,0.0,0.0,0.0,0.0,0.0,0.0,0.0,0.0,0.0,0.0,0.0,0.0,0.0,0.0,0.0,0.0,0.0,0.0,0.0,0.0,0.0,0.0,0.0,2.8184,2.8184,2.8184,2.8184,2.8174,2.798,0.0,0.0,0.0,0.0,0.0,0.0,0.0,0.0,0.0,0.0,0.0,0.0,0.0,0.0,0.0,0.0,0.0,0.0,0.0,0.0,0.0,0.0,0.0,0.0,0.0,0.0,0.0,0.0,0.0,0.0,0.0,0.0,0.0,0.0,0.0,0.0,0.0,0.0,0.0,0.0,0.0,0.0,0.0,0.0,0.0,0.0,0.0,0.0,0.0,0.0,0.0,0.0,0.0,0.0,0.0,0.0,0.0,0.0,0.0,0.0,0.0,0.0,0.0,0.0,0.0,0.0,0.0,0.0,0.0,0.0,0.0,0.0,0.0,0.0,0.0,0.0,0.0,0.0,0.0,0.0,0.0,0.0,0.0,0.0,0.0,0.0,0.0,0.0,0.0,0.0,0.0,0.0,0.0,0.0,0.0,0.0,0.0,0.0,0.0,0.0,0.0,0.0,0.0,0.0,0.0,0.0,0.0,0.0,0.0,2.8301,2.8301,2.8301,2.8301,2.8301,2.8367,2.8511,0.0,0.0,0.0,0.0,0.0,0.0,0.0,0.0,0.0,0.0,0.0,0.0,0.0,0.0,0.0,0.0,0.0,0.0,0.0,0.0,0.0,0.0,0.0,0.0,0.0,0.0,0.0,0.0,0.0,0.0,0.0,0.0,0.0,0.0,0.0,0.0,0.0,0.0,0.0,0.0,0.0,0.0,0.0,0.0,0.0,0.0,0.0,0.0,0.0,0.0,0.0,0.0,0.0,0.0,0.0,0.0,0.0,0.0,0.0,0.0,0.0,0.0,0.0,0.0,0.0,0.0,0.0,0.0,0.0,0.0,0.0,0.0,0.0,0.0,0.0,0.0,0.0,0.0,0.0,0.0,0.0,0.0,0.0,0.0,0.0,0.0,0.0,0.0,0.0,0.0,0.0,0.0,0.0,0.0,0.0,0.0,0.0,0.0,0.0,0.0,0.0,0.0,0.0,0.0,0.0,0.0,0.0,0.0,2.8301,2.8301,2.8301,2.8301,2.8301,2.8751,0.0,0.0,0.0,0.0,0.0,0.0,0.0,0.0,0.0,0.0,0.0,0.0,0.0,0.0,0.0,0.0,0.0,0.0,0.0,0.0,0.0,0.0,0.0,0.0,0.0,0.0,0.0,0.0,0.0,0.0,0.0,0.0,0.0,0.0,0.0,0.0,0.0,0.0,0.0,0.0,0.0,0.0,0.0,0.0,0.0,0.0,0.0,0.0,0.0,0.0,0.0,0.0,0.0,0.0,0.0,0.0,0.0,0.0,0.0,0.0,0.0,0.0,0.0,0.0,0.0,0.0,0.0,0.0,0.0,0.0,0.0,0.0,0.0,0.0,0.0,0.0,0.0,0.0,0.0,0.0,0.0,0.0,0.0,0.0,0.0,0.0,0.0,0.0,0.0,0.0,0.0,0.0,0.0,0.0,0.0,0.0,0.0,0.0,0.0,0.0,0.0,0.0,0.0,0.0,0.0,0.0,0.0,0.0,0.0,2.8301,2.8301,2.8301,2.8301,2.8301,2.8451,0.0,0.0,0.0,0.0,0.0,0.0,0.0,0.0,0.0,0.0,0.0,0.0,0.0,0.0,0.0,0.0,0.0,0.0,0.0,0.0,0.0,0.0,0.0,0.0,0.0,0.0,0.0,0.0,0.0,0.0,0.0,0.0,0.0,0.0,0.0,0.0,0.0,0.0,0.0,0.0,0.0,0.0,0.0,0.0,0.0,0.0,0.0,0.0,0.0,0.0,0.0,0.0,0.0,0.0,0.0,0.0,0.0,0.0,0.0,0.0,0.0,0.0,0.0,0.0,0.0,0.0,0.0,0.0,0.0,0.0,0.0,0.0,0.0,0.0,0.0,0.0,0.0,0.0,0.0,0.0,0.0,0.0,0.0,0.0,0.0,0.0,0.0,0.0,0.0,0.0,0.0,0.0,0.0,0.0,0.0,0.0,0.0,0.0,0.0,0.0,0.0,0.0,0.0,0.0,0.0,0.0,0.0,0.0,2.8301,2.8301,2.8301,2.8301,2.8291,2.8751,2.9217,0.0,0.0,0.0,0.0,0.0,0.0,0.0,0.0,0.0,0.0,0.0,0.0,0.0,0.0,0.0,0.0,0.0,0.0,0.0,0.0,0.0,0.0,0.0,0.0,0.0,0.0,0.0,0.0,0.0,0.0,0.0,0.0,0.0,0.0,0.0,0.0,0.0,0.0,0.0,0.0,0.0,0.0,0.0,0.0,0.0,0.0,0.0,0.0,0.0,0.0,0.0,0.0,0.0,0.0,0.0,0.0,0.0,0.0,0.0,0.0,0.0,0.0,0.0,0.0,0.0,0.0,0.0,0.0,0.0,0.0,0.0,0.0,0.0,0.0,0.0,0.0,0.0,0.0,0.0,0.0,0.0,0.0,0.0,0.0,0.0,0.0,0.0,0.0,0.0,0.0,0.0,0.0,0.0,0.0,0.0,0.0,0.0,0.0,0.0,0.0,0.0,0.0,0.0,0.0,0.0,0.0,0.0,0.0,2.8301,2.8301,2.8301,2.8344,2.8495,2.9313,3.0287,0.0,0.0,0.0,0.0,0.0,0.0,0.0,0.0,0.0,0.0,0.0,0.0,0.0,0.0,0.0,0.0,0.0,0.0,0.0,0.0,0.0,0.0,0.0,0.0,0.0,0.0,0.0,0.0,0.0,0.0,0.0,0.0,0.0,0.0,0.0,0.0,0.0,0.0,0.0,0.0,0.0,0.0,0.0,0.0,0.0,0.0,0.0,0.0,0.0,0.0,0.0,0.0,0.0,0.0,0.0,0.0,0.0,0.0,0.0,0.0,0.0,0.0,0.0,0.0,0.0,0.0,0.0,0.0,0.0,0.0,0.0,0.0,0.0,0.0,0.0,0.0,0.0,0.0,0.0,0.0,0.0,0.0,0.0,0.0,0.0,0.0,0.0,0.0,0.0,0.0,0.0,0.0,0.0,0.0,0.0,0.0,0.0,0.0,0.0,0.0,0.0,0.0,0.0,0.0,0.0,0.0,0.0,0.0,2.8301,2.8301,2.8301,2.8698,2.9513,2.8953,2.9154,0.0,0.0,0.0,0.0,0.0,0.0,0.0,0.0,0.0,0.0,0.0,0.0,0.0,0.0,0.0,0.0,0.0,0.0,0.0,0.0,0.0,0.0,0.0,0.0,0.0,0.0,0.0,0.0,0.0,0.0,0.0,0.0,0.0,0.0,0.0,0.0,0.0,0.0,0.0,0.0,0.0,0.0,0.0,0.0,0.0,0.0,0.0,0.0,2.253,0.0,0.0,0.0,0.0,0.0,0.0,0.0,0.0,0.0,0.0,0.0,0.0,0.0,0.0,0.0,0.0,0.0,0.0,0.0,0.0,0.0,0.0,0.0,0.0,0.0,0.0,0.0,0.0,0.0,0.0,0.0,0.0,0.0,0.0,0.0,0.0,0.0,0.0,0.0,0.0,0.0,0.0,0.0,0.0,0.0,0.0,0.0,0.0,0.0,0.0,0.0,0.0,0.0,0.0,0.0,0.0,0.0,0.0,0.0,2.8301,2.8301,2.8301,2.8804,2.9817,2.9365,2.9817,0.0,0.0,0.0,0.0,0.0,0.0,0.0,0.0,0.0,0.0,0.0,0.0,0.0,0.0,0.0,0.0,0.0,0.0,0.0,0.0,0.0,0.0,0.0,0.0,0.0,0.0,0.0,0.0,0.0,0.0,0.0,0.0,0.0,0.0,0.0,0.0,0.0,0.0,0.0,0.0,0.0,0.0,0.0,0.0,0.0,0.0,0.0,0.0,0.0,0.0,0.0,0.0,0.0,0.0,0.0,0.0,0.0,0.0,0.0,0.0,0.0,0.0,0.0,0.0,0.0,0.0,0.0,0.0,0.0,0.0,0.0,0.0,0.0,0.0,0.0,0.0,0.0,0.0,0.0,0.0,0.0,0.0,0.0,0.0,0.0,0.0,0.0,0.0,0.0,0.0,0.0,0.0,0.0,0.0,0.0,0.0,0.0,0.0,0.0,0.0,0.0,0.0,0.0,0.0,0.0,0.0,0.0,2.8301,2.8388,2.8548,2.8538,2.9112,3.0328,3.038,3.1359,3.335,0.0,0.0,0.0,0.0,0.0,0.0,0.0,0.0,0.0,0.0,0.0,0.0,0.0,0.0,0.0,0.0,0.0,0.0,0.0,0.0,0.0,0.0,0.0,0.0,0.0,0.0,0.0,0.0,0.0,0.0,0.0,0.0,0.0,0.0,0.0,0.0,0.0,0.0,2.3276,2.3652,0.0,0.0,0.0,0.0,0.0,0.0,0.0,0.0,2.3929,0.0,0.0,0.0,0.0,0.0,0.0,0.0,0.0,0.0,0.0,0.0,0.0,0.0,0.0,0.0,0.0,0.0,0.0,0.0,0.0,0.0,0.0,0.0,0.0,0.0,0.0,0.0,0.0,0.0,0.0,0.0,0.0,0.0,0.0,0.0,0.0,0.0,0.0,0.0,0.0,0.0,0.0,0.0,0.0,0.0,0.0,0.0,0.0,0.0,0.0,0.0,0.0,0.0,0.0,0.0,0.0,2.8301,2.8301,2.8751,2.9618,2.967,3.0587,3.2538,3.2639,3.325,3.4421,0.0,0.0,0.0,0.0,0.0,0.0,0.0,0.0,0.0,0.0,0.0,0.0,0.0,0.0,0.0,0.0,0.0,0.0,0.0,0.0,0.0,0.0,0.0,0.0,0.0,0.0,0.0,0.0,0.0,0.0,0.0,0.0,0.0,0.0,0.0,0.0,0.0,0.0,0.0,2.4268,2.4336,0.0,0.0,0.0,0.0,0.0,0.0,0.0,0.0,2.4195,0.0,0.0,0.0,0.0,0.0,0.0,0.0,0.0,0.0,0.0,0.0,0.0,0.0,0.0,0.0,0.0,0.0,0.0,0.0,0.0,0.0,0.0,0.0,0.0,0.0,0.0,0.0,0.0,0.0,0.0,0.0,0.0,0.0,0.0,0.0,0.0,0.0,0.0,0.0,0.0,0.0,0.0,0.0,0.0,0.0,0.0,0.0,0.0,0.0,0.0,0.0,0.0,0.0,0.0,0.0,2.9112,2.9102,2.967,3.0753,3.0805,3.1615,3.335,3.34,3.3906,0.0,0.0,0.0,0.0,0.0,0.0,0.0,0.0,0.0,0.0,0.0,0.0,0.0,0.0,0.0,0.0,0.0,0.0,0.0,0.0,0.0,0.0,0.0,0.0,0.0,0.0,0.0,0.0,0.0,0.0,0.0,0.0,0.0,0.0,0.0,0.0,0.0,0.0,0.0,0.0,2.4746,2.4834,2.5021,0.0,0.0,0.0,0.0,0.0,0.0,2.4912,2.4746,0.0,0.0,0.0,0.0,0.0,0.0,0.0,0.0,0.0,0.0,0.0,0.0,0.0,0.0,0.0,0.0,0.0,0.0,0.0,0.0,0.0,0.0,0.0,0.0,0.0,0.0,0.0,0.0,0.0,0.0,0.0,0.0,0.0,0.0,0.0,0.0,0.0,0.0,0.0,0.0,0.0,0.0,0.0,0.0,0.0,0.0,0.0,0.0,0.0,0.0,0.0,0.0,0.0,0.0,0.0,2.9922,2.9964,3.0691,3.2033,3.2083,3.2689,3.3956,3.4005,3.4397,0.0,0.0,0.0,0.0,0.0,0.0,0.0,0.0,0.0,0.0,0.0,0.0,0.0,0.0,0.0,0.0,0.0,0.0,0.0,0.0,0.0,0.0,0.0,0.0,0.0,0.0,0.0,0.0,0.0,0.0,0.0,0.0,0.0,0.0,0.0,0.0,0.0,0.0,0.0,0.0,0.0,2.5342,2.5635,2.5868,0.0,0.0,0.0,0.0,2.5723,2.5439,0.0,0.0,0.0,0.0,0.0,0.0,0.0,0.0,0.0,0.0,0.0,0.0,0.0,0.0,0.0,0.0,0.0,0.0,0.0,0.0,0.0,0.0,0.0,0.0,0.0,0.0,0.0,0.0,0.0,0.0,0.0,0.0,0.0,0.0,0.0,0.0,0.0,0.0,0.0,0.0,0.0,0.0,0.0,0.0,0.0,0.0,0.0,0.0,0.0,0.0,0.0,0.0,0.0,0.0,0.0,0.0,3.0214,3.0276,3.1389,3.3586,3.3747,3.425,3.532,3.5368,3.5428,0.0,0.0,0.0,0.0,0.0,0.0,0.0,0.0,0.0,0.0,0.0,0.0,0.0,0.0,0.0,0.0,0.0,0.0,0.0,0.0,0.0,0.0,0.0,0.0,0.0,0.0,0.0,0.0,0.0,0.0,0.0,0.0,0.0,0.0,0.0,0.0,0.0,0.0,0.0,0.0,0.0,2.5625,2.5684,2.6456,2.6733,0.0,0.0,2.6744,2.582,2.5645,0.0,0.0,0.0,0.0,0.0,0.0,0.0,0.0,0.0,0.0,0.0,0.0,0.0,0.0,0.0,0.0,0.0,0.0,0.0,0.0,0.0,0.0,0.0,0.0,0.0,0.0,0.0,0.0,0.0,0.0,0.0,0.0,0.0,0.0,0.0,0.0,0.0,0.0,0.0,0.0,0.0,0.0,0.0,0.0,0.0,0.0,0.0,0.0,0.0,0.0,0.0,0.0,0.0,0.0,0.0,3.0328,3.2112,3.2303,3.3216,3.4811,3.4908,3.5211,3.5812,3.5812,3.5812,0.0,0.0,0.0,0.0,0.0,0.0,0.0,0.0,0.0,0.0,0.0,0.0,0.0,0.0,0.0,0.0,0.0,0.0,0.0,0.0,0.0,0.0,0.0,0.0,0.0,0.0,0.0,0.0,0.0,0.0,0.0,0.0,0.0,0.0,0.0,0.0,0.0,0.0,0.0,0.0,0.0,0.0,2.6552,2.6914,0.0,0.0,0.0,2.6177,2.5791,0.0,0.0,0.0,0.0,0.0,0.0,0.0,0.0,0.0,0.0,0.0,0.0,0.0,0.0,0.0,0.0,0.0,0.0,0.0,0.0,0.0,0.0,0.0,0.0,0.0,0.0,0.0,0.0,0.0,0.0,0.0,0.0,0.0,0.0,0.0,0.0,0.0,0.0,0.0,0.0,0.0,0.0,0.0,0.0,0.0,0.0,0.0,0.0,0.0,0.0,0.0,0.0,0.0,0.0,0.0,0.0,0.0,3.3747,3.3993,3.4641,3.5752,3.5812,3.5908,3.6098,3.6111,0.0,0.0,0.0,0.0,0.0,0.0,0.0,0.0,0.0,0.0,0.0,0.0,0.0,0.0,0.0,0.0,0.0,0.0,0.0,0.0,0.0,0.0,0.0,0.0,0.0,0.0,0.0,3.1717,0.0,0.0,0.0,0.0,0.0,0.0,0.0,0.0,0.0,0.0,0.0,0.0,0.0,0.0,2.6867,2.6914,2.7284,2.7369,0.0,0.0,2.6294,2.5791,2.5684,2.5781,0.0,0.0,0.0,0.0,0.0,0.0,0.0,0.0,0.0,0.0,0.0,0.0,0.0,0.0,0.0,0.0,0.0,0.0,0.0,0.0,0.0,0.0,0.0,0.0,0.0,0.0,0.0,0.0,0.0,0.0,0.0,0.0,0.0,0.0,0.0,0.0,0.0,0.0,0.0,0.0,0.0,0.0,0.0,0.0,0.0,0.0,0.0,0.0,0.0,0.0,0.0,0.0,0.0,0.0,0.0,3.4288,3.4337,3.5017,3.6263,3.637,3.637,3.6358,3.637,3.637,0.0,0.0,0.0,0.0,0.0,0.0,0.0,0.0,0.0,0.0,0.0,0.0,0.0,0.0,0.0,0.0,0.0,0.0,0.0,0.0,0.0,0.0,0.0,0.0,0.0,0.0,0.0,0.0,0.0,0.0,0.0,0.0,0.0,0.0,0.0,0.0,0.0,0.0,0.0,0.0,0.0,2.5927,2.6149,2.7579,2.7945,0.0,0.0,2.7861,2.5965,2.5732,2.6004,2.6962,0.0,0.0,0.0,0.0,0.0,0.0,0.0,0.0,0.0,0.0,0.0,0.0,0.0,0.0,0.0,0.0,0.0,0.0,0.0,0.0,0.0,0.0,0.0,0.0,0.0,0.0,0.0,0.0,0.0,0.0,0.0,0.0,0.0,0.0,0.0,0.0,0.0,0.0,0.0,0.0,0.0,0.0,0.0,0.0,0.0,0.0,0.0,0.0,0.0,0.0,0.0,0.0,0.0,3.4178,3.5356,3.5523,3.587,3.637,3.6417,3.6417,3.6417,3.6417,3.6417,0.0,0.0,0.0,0.0,0.0,0.0,0.0,0.0,0.0,0.0,0.0,0.0,0.0,0.0,0.0,0.0,0.0,0.0,0.0,0.0,0.0,0.0,0.0,0.0,0.0,0.0,0.0,0.0,3.2376,3.2463,3.2562,0.0,0.0,0.0,0.0,0.0,0.0,0.0,0.0,0.0,0.0,2.7326,2.7872,2.8516,0.0,0.0,2.8598,2.8448,2.7673,2.702,2.6972,2.7981,2.6791,0.0,0.0,0.0,0.0,0.0,0.0,0.0,0.0,0.0,0.0,0.0,0.0,0.0,0.0,0.0,0.0,0.0,0.0,0.0,0.0,0.0,0.0,0.0,0.0,0.0,0.0,0.0,0.0,0.0,0.0,0.0,0.0,0.0,0.0,0.0,0.0,0.0,0.0,0.0,0.0,0.0,0.0,0.0,0.0,0.0,0.0,0.0,0.0,0.0,0.0,0.0,0.0,3.5379,3.6086,3.6323,3.6417,3.6417,3.6417,3.6417,3.6417,3.6417,3.6417,0.0,0.0,0.0,0.0,0.0,0.0,0.0,0.0,0.0,0.0,0.0,0.0,0.0,0.0,0.0,0.0,0.0,0.0,0.0,0.0,0.0,0.0,0.0,0.0,0.0,0.0,0.0,0.0,3.268,3.2797,3.281,0.0,0.0,0.0,0.0,0.0,0.0,0.0,0.0,0.0,0.0,2.8552,2.9611,2.9363,2.9222,2.9773,2.9153,2.8655,2.8692,2.7892,2.77,2.8929,0.0,0.0,0.0,0.0,0.0,0.0,0.0,0.0,0.0,0.0,0.0,0.0,0.0,0.0,0.0,0.0,0.0,0.0,0.0,0.0,0.0,0.0,0.0,0.0,0.0,0.0,0.0,0.0,0.0,0.0,3.6417,0.0,0.0,0.0,0.0,0.0,0.0,0.0,0.0,0.0,0.0,0.0,0.0,0.0,0.0,0.0,0.0,0.0,0.0,0.0,0.0,0.0,0.0,3.6358,3.6405,3.6405,3.6417,3.6417,3.6417,3.6417,3.6417,3.6417,3.6417,3.6417,0.0,0.0,0.0,0.0,0.0,0.0,0.0,0.0,0.0,0.0,0.0,0.0,0.0,0.0,0.0,0.0,0.0,0.0,0.0,0.0,0.0,0.0,0.0,0.0,0.0,0.0,3.268,3.2952,3.3081,0.0,0.0,0.0,0.0,0.0,0.0,0.0,0.0,0.0,0.0,2.939,2.9245,3.1086,2.997,2.9077,2.9127,2.8812,2.8585,2.8703,2.7985,2.8005,0.0,0.0,0.0,0.0,0.0,0.0,0.0,0.0,0.0,0.0,0.0,0.0,0.0,0.0,0.0,0.0,0.0,0.0,0.0,0.0,0.0,0.0,0.0,0.0,0.0,0.0,0.0,3.6417,3.6417,0.0,0.0,0.0,0.0,0.0,0.0,0.0,0.0,0.0,0.0,0.0,3.6417,3.6417,0.0,0.0,0.0,0.0,0.0,0.0,0.0,0.0,0.0,0.0,0.0,0.0,3.6417,3.6417,3.6417,3.6417,3.6417,3.6417,3.6417,3.6417,3.6417,3.6417,3.6417,0.0,0.0,0.0,0.0,0.0,0.0,0.0,0.0,0.0,0.0,0.0,0.0,0.0,0.0,0.0,0.0,0.0,0.0,0.0,0.0,0.0,0.0,0.0,0.0,0.0,3.3264,0.0,0.0,0.0,0.0,0.0,0.0,0.0,0.0,0.0,0.0,0.0,3.1495,3.1187,3.0877,3.1124,3.2254,3.1888,3.1746,0.0,0.0,0.0,0.0,0.0,0.0,0.0,0.0,0.0,0.0,0.0,0.0,0.0,0.0,2.6504,2.6221,2.5937,2.5684,2.5684,0.0,0.0,0.0,0.0,0.0,0.0,0.0,0.0,0.0,0.0,0.0,0.0,0.0,0.0,3.6417,0.0,3.6417,0.0,0.0,0.0,0.0,0.0,0.0,0.0,0.0,3.6417,3.6417,3.6417,3.6417,3.6417,0.0,3.6417,3.6417,0.0,0.0,0.0,0.0,0.0,0.0,0.0,0.0,3.6417,3.6417,3.6417,3.6417,3.6417,3.6417,3.6417,3.6417,3.6417,3.6417,3.6417,3.6417,3.6417,0.0,0.0,0.0,0.0,0.0,0.0,0.0,0.0,0.0,0.0,0.0,0.0,0.0,0.0,0.0,0.0,0.0,0.0,0.0,0.0,0.0,0.0,0.0,3.4048,0.0,0.0,0.0,0.0,0.0,0.0,0.0,0.0,0.0,3.2284,3.2903,3.3167,3.2416,3.2451,3.296,3.3952,0.0,0.0,0.0,0.0,0.0,0.0,0.0,3.0099,3.1276,2.9938,2.9295,3.0894,3.0288,2.9497,2.9143,0.0,0.0,2.6689,2.6377,2.6182,2.6132,2.5947,2.584,2.6123,2.5957,2.583,0.0,0.0,0.0,0.0,0.0,0.0,0.0,0.0,3.6417,3.6417,0.0,3.6417,0.0,0.0,0.0,0.0,0.0,3.6417,0.0,0.0,3.6417,3.6417,3.6417,3.6417,3.6417,3.6417,3.6417,3.6417,3.6417,3.6417,0.0,0.0,0.0,0.0,0.0,0.0,3.6417,3.6417,3.6417,3.6417,3.6417,3.6417,3.6417,3.6417,3.6417,3.6417,3.6417,3.6417,3.6417,3.6417,3.6417,0.0,0.0,0.0,0.0,0.0,0.0,0.0,0.0,0.0,0.0,0.0,0.0,0.0,0.0,0.0,0.0,0.0,0.0,0.0,0.0,3.4705,0.0,0.0,0.0,0.0,0.0,0.0,0.0,0.0,0.0,0.0,3.3227,3.3863,3.4382,3.4182,0.0,0.0,0.0,0.0,3.2955,3.2994,3.2644,3.209,3.1114,3.1114,3.1103,3.0691,0.0,0.0,3.0016,3.0949,3.1235,3.0162,2.8802,2.7601,2.7139,2.7012,2.6973,2.6973,2.6934,2.6992,2.7002,2.6894,2.6924,3.7312,0.0,0.0,0.0,0.0,3.6417,3.6417,3.6417,3.6417,3.6417,3.6417,3.6417,0.0,0.0,0.0,0.0,0.0,0.0,3.6417,3.6417,3.6417,3.6417,3.6417,3.6417,3.6417,3.6417,3.6417,3.6417,3.6417,3.6417,3.6417,3.6417,0.0,0.0,0.0,0.0,3.6417,3.6417,3.6417,3.6417,3.6417,3.6417,3.6417,3.6417,3.6417,3.6417,3.6417,3.6417,3.6417,3.6417,3.6417,0.0,0.0,0.0,0.0,0.0,0.0,0.0,0.0,0.0,0.0,0.0,0.0,0.0,0.0,0.0,0.0,0.0,0.0,0.0,3.5307,3.5257,3.5107,0.0,0.0,0.0,0.0,0.0,0.0,0.0,0.0,0.0,3.5471,3.5647,3.5803,0.0,0.0,3.5886,3.6332,3.581,3.5355,3.5343,3.4605,0.0,3.3685,3.2917,3.2566,3.3166,3.3338,3.3487,3.3636,3.3189,3.2387,3.1319,3.0078,2.8975,2.8088,2.7422,2.7051,2.7012,2.7012,2.7012,2.7012,2.7012,2.7021,3.8165,3.785,3.7249,3.701,3.7071,3.701,3.6885,3.6732,3.6732,3.6619,3.6417,3.6417,3.6417,3.6417,3.6417,0.0,0.0,0.0,3.6417,3.6417,3.6417,3.6417,3.6417,3.6417,3.6417,3.6417,3.6417,3.6417,3.6417,3.6417,3.6531,3.6719,0.0,0.0,3.6417,3.6417,3.6417,3.6417,3.6417,3.6417,3.6417,3.6417,3.6417,3.6417,3.6417,3.6417,3.6417,3.6417,3.6417,3.6417,3.6417,3.6417,0.0,0.0,0.0,0.0,0.0,0.0,0.0,0.0,0.0,0.0,0.0,3.6417,0.0,0.0,0.0,0.0,3.6417,3.6279,3.5893,3.5881,0.0,0.0,0.0,0.0,0.0,0.0,0.0,3.5918,3.6157,3.6417,3.6417,3.6417,3.6417,3.6417,3.6417,3.6417,3.6417,0.0,3.6263,3.5823,3.5571,3.5126,3.4288,3.3871,3.3662,3.3723,3.419,3.4556,3.4568,3.3808,3.2851,3.1779,3.065,2.9565,2.8495,2.7861,2.7519,2.7519,2.7529,2.7519,2.7519,2.7529,2.7519,3.9057,3.8994,3.8379,3.8078,3.8002,3.8002,3.7713,3.7249,3.7249,3.6973,3.6543,3.6543,3.6543,3.6543,3.6543,0.0,3.6543,3.6531,3.6556,3.6543,3.6531,3.6543,3.6531,3.6556,3.6531,3.6543,3.6543,3.6543,3.6556,3.6543,3.6747,3.7224,3.6747,3.6543,3.6543,3.6543,3.6543,3.6543,3.6505,3.6455,3.6417,3.6417,3.6417,3.6417,3.6417,3.6417,3.6417,3.6417,3.6417,3.6417,3.6417,3.6417,3.6417,0.0,0.0,0.0,0.0,0.0,0.0,0.0,0.0,0.0,0.0,0.0,0.0,0.0,0.0,0.0,3.6417,0.0,3.6417,3.6417,0.0,0.0,0.0,3.6417,3.6417,3.6417,3.6417,3.6417,0.0,0.0,3.6417,3.6417,3.6417,3.6417,3.6417,3.6417,3.6417,3.6417,3.6073,3.5174,3.5763,3.5667,3.4152,3.4385,3.4569,3.3613,3.3476,3.3895,3.3895,3.3598,3.2951,3.1779,3.0742,2.967,2.8548,2.8252,2.8291,2.8252,2.8262,2.8271,2.8232,2.8223,2.8213,4.0124,4.0074,3.9521,3.8806,3.8002,3.8002,3.7939,3.7814,3.7814,3.7739,3.7613,3.7626,3.7613,3.7626,3.7613,3.7613,3.7626,3.7613,3.7613,3.7613,3.7613,3.7613,3.7613,3.7613,3.7613,3.7613,3.7613,3.7626,3.7613,3.7613,3.7676,3.7801,3.7676,3.7613,3.7613,3.7613,3.7613,3.7613,3.7199,3.6832,3.643,3.6417,3.6417,3.6417,3.6417,3.6417,3.6417,3.6417,3.6417,3.6417,3.6417,3.6417,3.6417,3.6417,0.0,0.0,0.0,0.0,0.0,0.0,0.0,0.0,0.0,3.6417,3.6417,0.0,3.6417,0.0,3.6417,3.6417,3.6417,3.6417,0.0,0.0,3.6417,3.6417,3.6417,3.6417,3.6417,3.6417,3.6417,3.6417,3.6417,3.6417,3.6417,3.6417,3.6417,3.6417,3.6417,3.6417,3.631,3.6073,3.6228,3.6216,3.5752,3.581,3.5883,3.5607,3.5295,3.5114,3.5114,3.4714,3.3819,3.2033,3.1421,3.0453,2.8684,2.8301,2.8301,2.8301,2.8301,2.8301,2.8301,2.8301,2.8301,4.0837,4.0811,4.0551,4.0061,3.9446,3.8969,3.8617,3.8391,3.8391,3.8253,3.8002,3.8002,3.8002,3.8002,3.8002,3.8002,3.8002,3.8002,3.8002,3.8002,3.8002,3.8002,3.8002,3.8002,3.8002,3.8002,3.8002,3.8002,3.8002,3.8002,3.814,3.8379,3.8391,3.8517,3.873,3.8266,3.8002,3.8002,3.7701,3.74,3.7098,3.686,3.6883,3.7061,3.6656,3.6518,3.6757,3.6543,3.6417,3.6417,3.6417,3.6417,3.6417,3.6417,3.6417,0.0,0.0,0.0,0.0,0.0,0.0,0.0,0.0,0.0,0.0,0.0,3.6417,3.6417,3.6417,3.6417,3.6417,3.6417,3.6417,3.6417,3.6417,3.6417,3.6417,3.6417,3.6417,3.6417,3.6417,3.6417,3.6417,3.6417,3.6417,3.6417,3.6571,3.6694,3.648,3.6593,3.6769,3.6782,3.6935,3.7098,3.7086,3.7086,3.7086,3.7086,3.676,3.6516,3.6468,3.6174,3.5149,3.2974,3.2405,3.1622,2.9435,2.8682,2.8574,2.8545,2.8418,2.8301,2.8301,2.8301,2.8301,4.1442,4.1388,4.1313,4.1275,4.1213,4.0312,3.9634,3.9182,3.9158,3.8755,3.8228,3.8228,3.8216,3.8228,3.8228,3.8228,3.8216,3.8228,3.8228,3.8228,3.8228,3.8228,3.8216,3.8216,3.8228,3.8228,3.8216,3.8228,3.8228,3.8228,3.8479,3.8969,3.9032,3.922,3.9634,3.8718,3.8191,3.8115,3.8115,3.809,3.8002,3.7538,3.7513,3.7939,3.701,3.6744,3.7149,3.6707,3.6417,3.6417,3.6417,3.6417,3.6417,3.6417,3.6417,0.0,3.6417,0.0,0.0,0.0,0.0,0.0,0.0,0.0,0.0,3.6417,3.6417,3.6417,3.6417,3.6417,3.6417,3.6417,3.6417,3.6417,3.6417,3.6417,3.6417,3.6417,3.6417,3.6417,3.6417,3.6417,3.6417,3.6455,3.6518,3.6593,3.6973,3.7136,3.6795,3.701,3.7287,3.7287,3.7688,3.7877,3.7902,3.7939,3.7939,3.7915,3.7667,3.7593,3.7531,3.7357,3.6452,3.4218,3.349,3.262,3.0264,2.9404,2.9014,2.8994,2.875,2.8486,2.834,2.8301,2.8301,4.2049,4.1957,4.153,4.1275,4.1263,4.1062,4.0965,4.0786,4.04,3.9898,3.9383,3.9371,3.9371,3.9371,3.9383,3.9371,3.9371,3.9371,3.9371,3.9371,3.9371,3.9371,3.9371,3.9371,3.9371,3.9371,3.9358,3.9383,3.9371,3.9371,3.9433,3.9546,3.9534,3.9584,3.9685,0.0,0.0,0.0,3.8756,3.8479,3.8027,3.7902,3.7902,3.799,3.7362,0.0,3.7161,3.6694,3.6417,3.6417,3.6417,0.0,0.0,0.0,0.0,0.0,0.0,0.0,0.0,0.0,0.0,0.0,3.6417,3.6417,3.6417,3.6417,3.6417,3.6417,3.6417,3.6417,3.6417,3.6417,3.6417,3.6417,3.6417,3.6417,3.6417,3.6417,3.6417,3.6417,3.6417,3.6417,3.6455,3.6782,3.7071,3.7048,3.75,3.7776,3.7713,3.7764,3.7864,3.7864,3.8027,3.8027,3.8002,3.804,3.8115,3.7953,3.7804,3.7668,3.7655,3.7456,3.6816,3.5091,3.4264,3.323,3.1363,3.0359,2.9731,2.9509,2.9365,2.9121,2.8447,2.8301,2.8301,4.3212,0.0,4.2672,4.2396,0.0,4.2145,4.2145,4.2082,4.1279,4.0777,4.0513,4.0513,4.0501,4.046,4.0501,4.0513,4.0501,4.0501,4.0501,4.0501,4.0513,4.0513,4.046,4.0501,4.0501,4.0448,4.0501,4.0362,4.0111,4.0099,3.9961,3.9697,3.9697,3.9697,3.9697,3.9697,3.9559,3.927,3.9283,3.9132,3.8843,3.8567,3.8555,3.8806,3.8027,0.0,0.0,0.0,0.0,0.0,0.0,0.0,0.0,3.6417,0.0,3.6417,3.6417,3.6417,3.6417,3.6417,3.6417,3.6417,3.6417,3.6417,3.6417,3.6417,3.6417,3.6417,3.6417,3.6417,3.6417,3.6417,3.6417,3.6417,3.6417,3.6417,3.6417,3.6417,3.6417,3.6443,3.6656,3.6759,3.682,3.7249,3.7563,3.7613,3.8078,3.8429,3.8442,3.8429,3.8504,3.8781,3.8843,3.8843,3.8843,3.8843,3.8831,3.8843,3.8742,3.8629,3.8629,3.8044,3.7156,3.5746,3.4625,3.3387,3.1727,3.0774,3.0241,2.9976,2.9707,2.9473,2.8994,2.8916,2.8916,4.4355,4.3953,4.394,4.3639,4.3124,4.3124,4.3074,4.2911,0.0,0.0,0.0,4.1275,4.1275,4.1275,4.1275,4.1275,4.1275,4.1275,4.1275,4.1275,4.1275,4.1275,4.1275,4.1275,4.1275,4.1275,4.1275,4.105,4.0676,4.0651,4.0438,4.0011,3.9898,3.9798,3.971,3.9697,3.9697,3.9697,3.9697,3.9697,3.9685,3.9245,3.9233,3.9685,3.8693,3.8379,3.8831,3.7877,3.7324,3.7312,3.681,3.6556,3.6556,3.6455,3.6417,3.6417,3.6417,3.6417,3.6417,3.6417,3.6417,3.6417,3.6417,3.6417,3.6417,3.6417,3.6417,3.6417,3.6417,3.6417,3.6417,3.6417,3.6417,3.6417,3.6417,3.6443,3.6543,3.6556,3.6619,3.6719,3.7121,3.7324,3.7349,3.7814,3.8153,3.8228,3.8655,3.907,3.9057,3.907,3.9157,3.9496,3.9546,3.9634,3.9672,3.9634,3.9697,3.9597,3.9634,3.9697,3.953,3.8881,3.7779,3.6741,3.5409,3.4114,3.2452,3.1787,3.1084,3.0484,3.0152,2.9907,2.9861,2.9861,2.9802,4.4593,4.4505,4.4505,4.4192,4.3689,4.3689,4.3401,4.2936,4.2363,4.1769,4.1275,4.1275,4.1275,4.1275,4.1275,4.1275,4.1275,4.1275,4.1275,4.1275,4.1275,4.1275,4.1275,4.1275,4.1275,4.1275,4.1275,4.1238,4.1175,4.1175,4.1125,4.1,4.0639,4.0174,3.9735,3.9697,3.9697,3.9697,3.9697,3.9697,3.9697,3.9622,3.9622,3.9659,3.9082,3.8831,3.8906,3.8241,3.7889,3.7877,3.7362,3.7073,3.7061,3.6669,3.6417,3.6417,3.6417,3.6417,3.6417,3.6417,3.6417,3.6417,3.6417,3.6417,3.6417,3.6417,3.6417,3.6417,3.6417,3.6417,3.6417,3.643,3.6455,3.643,3.643,3.6593,3.7059,3.7061,3.7236,3.7638,3.7839,3.7889,3.7939,3.8391,3.8743,3.8831,3.917,3.9559,3.9521,3.9572,3.9597,3.9672,3.9697,3.9697,3.9697,3.9697,3.9697,3.9697,3.9697,3.9697,3.9697,3.9362,3.8973,3.8752,3.7607,3.6457,3.4914,3.4069,3.2983,3.1731,3.1287,3.1114,3.0874,3.0721,3.0487,4.5359,4.5108,4.5083,4.4769,4.4254,4.4242,4.394,4.3413,4.3162,4.2735,4.2258,4.2233,4.2221,4.2233,4.2221,4.2221,4.2233,4.2221,4.2221,4.2233,4.2221,4.2233,4.2233,4.2233,4.2233,4.2221,4.2221,4.207,4.1806,4.1781,4.1643,4.13,4.1025,4.0786,4.0588,4.0287,4.0136,4.0136,3.9848,3.9697,3.9697,3.9697,3.9697,3.9697,3.9433,3.932,3.9308,3.8781,3.8479,3.8479,3.7939,3.7626,3.7613,3.7111,3.6857,3.6845,3.6568,3.6417,3.6417,3.6417,3.6417,3.6417,3.6417,3.6417,3.6417,3.6417,3.6417,3.6417,3.6417,3.6417,3.643,3.6681,3.6857,3.6857,3.7061,3.7349,3.7563,3.7626,3.7739,3.799,3.8291,3.8467,3.8479,3.8969,3.9308,3.9346,3.9572,3.9697,3.9697,3.9697,3.9697,3.9697,3.9697,3.9697,3.9697,3.9697,3.9697,3.9697,3.9697,3.9697,3.9633,3.9258,3.8764,3.8489,3.7725,3.6673,3.5617,3.5233,3.4481,3.3877,3.3325,3.3042,3.2311,3.1556,3.08,4.6075,4.5673,4.5673,4.5347,4.4807,4.4681,4.4367,4.4003,4.3991,4.3677,4.3187,4.3037,4.2986,4.2986,4.2986,4.2974,4.2986,4.2986,4.2974,4.2986,4.2986,4.2986,4.2986,4.2986,4.2986,4.2986,4.2986,4.2816,4.2426,4.2389,4.2057,4.158,4.1517,4.1467,4.1275,4.0915,4.0701,4.0676,4.0162,3.981,3.9697,3.9697,3.9697,3.9697,3.9697,3.9697,3.9672,3.9283,3.9044,3.9019,3.8517,3.8203,3.8178,3.7676,3.7362,3.7324,3.7021,3.6782,3.6782,3.6782,3.6782,3.6769,3.6782,3.6782,3.6782,3.6782,3.6671,3.6619,3.6619,3.6656,3.6845,3.7123,3.7362,3.74,3.7739,3.8015,3.8178,3.8203,3.8266,3.8391,3.8781,3.9057,3.9183,3.9433,3.9659,3.9659,3.9697,3.9697,3.9697,3.9772,3.9873,3.9848,3.9772,3.9697,3.971,3.9835,3.9898,3.9873,4.0023,4.0061,3.9894,3.9078,3.8534,3.8445,3.7779,3.7061,3.6445,3.6228,3.5956,3.5354,3.4969,3.4637,3.3642,3.2389,3.1228,4.6276,4.6238,4.6213,4.5912,4.5372,4.4869,4.4631,4.4556,4.4543,4.4242,4.3702,4.32,4.3011,4.2986,4.2986,4.2986,4.2986,4.2986,4.2986,4.2986,4.2986,4.2986,4.2986,4.2986,4.2986,4.2986,4.2986,4.2949,4.2861,4.2873,4.2678,4.2187,4.2137,4.1831,4.1351,4.125,4.1213,4.12,4.0727,4.0187,3.9722,3.9697,3.9697,3.9697,3.9697,3.9697,3.9697,3.9634,3.9622,3.9572,3.9082,3.8844,3.8781,3.8241,3.7927,3.7927,3.7877,3.7852,3.7839,3.7864,3.7814,3.7852,3.7801,3.7789,3.7801,3.7814,3.7626,3.7262,3.7123,3.7299,3.7764,3.7902,3.7939,3.7939,3.8052,3.8203,3.868,3.8793,3.8981,3.9496,3.9496,3.9609,3.9572,3.9647,3.9697,3.9785,3.9798,3.9835,3.991,4.0199,4.0438,4.0362,4.0061,3.9798,3.9848,4.0149,4.0388,4.0475,4.0852,4.0799,4.047,4.0307,4.0102,3.9526,3.9434,3.8871,3.8063,3.7684,3.7257,3.6445,3.5945,3.5453,3.4748,3.3607,3.2399,4.6313,4.6313,4.6313,4.6188,4.5937,4.5711,4.5434,4.5146,4.5133,4.4819,4.4305,4.4053,4.3589,4.2999,4.2986,4.2986,4.2986,4.2986,4.2986,4.2986,4.2986,4.2986,4.2986,4.2986,4.2986,4.2986,4.2986,4.2986,4.2986,4.2986,4.2861,4.2728,4.2703,4.2522,4.2296,4.1982,4.1819,4.1806,4.1279,4.0837,4.0614,4.0023,3.9697,3.9697,3.9697,3.9697,3.9697,3.9697,3.9697,3.9685,3.9471,3.9358,3.9358,3.8818,3.8517,3.8492,3.8191,3.8002,3.8002,3.8002,3.8002,3.8002,3.8002,3.8002,3.8002,3.8002,3.8027,3.814,3.7877,3.7776,3.8015,3.8316,3.8517,3.8555,3.8793,3.9094,3.932,3.9409,3.9471,3.9672,3.9697,3.9697,3.9697,3.9697,3.9835,4.0074,4.0187,4.0262,4.0601,4.0865,4.0924,4.0978,4.0789,4.0636,4.0664,4.0827,4.099,4.0987,4.1112,4.1125,4.105,4.0949,4.0849,4.0664,4.0588,4.0267,3.9622,3.9442,3.9116,3.8077,3.7103,3.6661,3.624,3.5035,3.3877,4.6313,4.6313,4.6313,4.6313,4.6313,4.6313,4.6087,4.5748,4.5723,4.5384,4.4869,4.4869,4.433,4.3489,4.3275,4.3137,4.2999,4.2986,4.2986,4.2986,4.2986,4.2986,4.2986,4.2986,4.2986,4.2986,4.2986,4.2986,4.2986,4.2986,4.2986,4.2986,4.2986,4.2986,4.2936,4.2615,4.2439,4.2389,4.1844,4.1555,4.1442,4.0626,4.0074,3.9923,3.976,3.9697,3.9697,3.9697,3.9697,3.9697,3.9697,3.9697,3.9685,3.9308,3.9094,3.9069,3.8705,3.8467,3.8467,3.8467,3.8467,3.8467,3.8467,3.8479,3.8467,3.8467,3.8655,3.8969,3.8718,3.8492,3.8517,3.8843,3.9082,3.912,3.9484,3.9685,3.9685,3.9697,3.9685,3.9697,3.9697,3.976,3.9885,3.9961,4.0149,4.0626,4.0699,4.0786,4.1213,4.1376,4.1555,4.1568,4.1668,4.1576,4.1388,4.148,4.153,4.1618,4.1681,4.1819,4.163,4.1568,4.1351,4.1141,4.125,4.1188,4.0627,4.0555,4.0498,3.9865,3.8887,3.7921,3.7725,3.6457,3.5695,4.6313,4.6313,4.6313,4.6313,4.6313,4.6313,4.6288,4.6225,4.6238,4.5949,4.5485,4.546,4.5121,4.4505,4.4028,4.3489,4.3049,4.2999,4.2986,4.2986,4.2986,4.2986,4.2986,4.2986,4.2986,4.2986,4.2986,4.2986,4.2986,4.2986,4.2986,4.2986,4.2986,4.2986,4.2974,4.2924,4.2936,4.2823,4.2426,4.2187,4.2057,4.1555,4.0937,4.0538,3.9986,3.9735,3.9722,3.9697,3.9697,3.9697,3.9697,3.9697,3.9697,3.9659,3.9622,3.9622,3.9597,3.9584,3.9546,3.9521,3.9534,3.9559,3.9484,3.9572,3.9459,3.9459,3.9496,3.9634,3.9521,3.9496,3.9496,3.9496,3.9584,3.9597,3.9647,3.9697,3.9697,3.9697,3.9697,3.9697,3.9735,3.9986,4.04,4.0488,4.0752,4.1141,4.125,4.1313,4.1463,4.1856,4.2137,4.2263,4.2396,4.2534,4.1668,4.1819,4.215,4.2158,4.2346,4.2635,4.2414,4.207,4.1806,4.1605,4.163,4.1514,4.1326,4.1137,4.0912,4.0458,3.9788,3.917,3.8973,3.7904,3.7192,4.6313,4.6313,4.6313,4.6313,4.6313,4.6313,4.6313,4.6313,4.6313,4.62,4.605,4.6024,4.5698,4.5158,4.4982,4.438,4.3514,4.315,4.2986,4.2986,4.2986,4.2986,4.2986,4.2986,4.2986,4.2986,4.2986,4.2986,4.2986,4.2986,4.2986,4.2986,4.2986,4.2986,4.2986,4.2986,4.2986,4.2961,4.276,4.274,4.2622,4.2145,4.1756,4.1543,4.0676,4.0224,4.0212,3.9885,3.9697,3.9697,3.9697,3.9697,3.9697,3.9697,3.9697,3.9697,3.9697,3.9697,3.9697,3.9697,3.9697,3.9697,3.9697,3.9697,3.9697,3.9697,3.9697,3.9697,3.9697,3.9697,3.9697,3.9697,3.9697,3.9697,3.9697,3.9697,3.9697,3.9697,3.9697,3.9747,3.9973,4.0438,4.0877,4.0987,4.1266,4.1743,4.1856,4.1995,4.2308,4.2585,4.2715,4.2698,4.2823,4.2848,4.2534,4.2522,4.2753,4.271,4.2823,4.2848,4.2672,4.2622,4.2409,4.2333,4.2233,4.2082,4.1969,4.153,4.1329,4.1062,4.043,4.0065,4.0067,3.9014,3.8595,4.6313,4.6313,4.6313,4.6313,4.6313,4.6313,4.6313,4.6313,4.6313,4.6313,4.6313,4.6313,4.61,4.5761,4.5573,4.5108,4.4305,4.3601,4.3237,4.3225,4.3074,4.2986,4.2986,4.2986,4.2986,4.2986,4.2986,4.2986,4.2986,4.2986,4.2986,4.2986,4.2986,4.2986,4.2986,4.2986,4.2986,4.2986,4.2986,4.2974,4.2924,4.2622,4.2476,4.2351,4.1517,4.0953,4.0736,4.0262,3.9973,3.9936,3.9798,3.9697,3.9697,3.9697,3.9697,3.9697,3.9697,3.9697,3.9697,3.9697,3.9697,3.9697,3.9697,3.9697,3.9697,3.9697,3.9697,3.9697,3.9697,3.9697,3.9697,3.9697,3.9697,3.9697,3.9697,3.9697,3.971,3.986,4.0049,4.0287,4.0563,4.1003,4.148,4.158,4.1869,4.2401,4.2476,4.261,4.2886,4.2986,4.2986,4.2986,4.2961,4.2974,4.2823,4.2823,4.2873,4.2898,4.2898,4.2961,4.2986,4.2986,4.2986,4.2986,4.2898,4.2748,4.2434,4.1957,4.1718,4.1593,4.115,4.0696,4.0495,4.0167,3.9718,4.6313,4.6313,4.6313,4.6313,4.6313,4.6313,4.6313,4.6313,4.6313,4.6313,4.6313,4.6313,4.6276,4.6175,4.5773,4.5485,4.5246,4.4355,4.3827,4.3689,4.3263,4.3024,4.2986,4.2986,4.2986,4.2986,4.2986,4.2986,4.2986,4.2986,4.2986,4.2986,4.2986,4.2986,4.2986,4.2986,4.2986,4.2986,4.2986,4.2986,4.2986,4.2924,4.2898,4.2929,4.2426,4.1882,4.1338,4.084,4.0513,4.0463,4.0061,3.9735,3.9772,3.9722,3.9697,3.9697,3.9697,3.9697,3.9697,3.9697,3.9697,3.9697,3.9697,3.9697,3.9697,3.9697,3.9697,3.9697,3.9697,3.9697,3.9747,3.9785,3.9747,3.971,3.9747,3.9798,3.9848,4.0199,4.0674,4.11,4.1342,4.158,4.2049,4.2225,4.2426,4.2778,4.2929,4.2886,4.2961,4.2986,4.2986,4.2986,4.2986,4.2986,4.2986,4.2986,4.2974,4.2974,4.2961,4.2986,4.2986,4.2986,4.2986,4.2986,4.2986,4.2848,4.2798,4.2384,4.2246,4.207,4.1668,4.1367,4.1125,4.0887,4.0523,4.6313,4.6313,4.6313,4.6313,4.6313,4.6313,4.6313,4.6313,4.6313,4.6313,4.6313,4.6313,4.6313,4.6288,4.6125,4.605,4.5987,4.5271,4.4556,4.389,4.3614,4.3325,4.3049,4.2986,4.2986,4.2986,4.2986,4.2986,4.2986,4.2986,4.2986,4.2986,4.2986,4.2986,4.2986,4.2986,4.2986,4.2986,4.2986,4.2986,4.2986,4.2986,4.2986,4.2961,4.2798,4.2622,4.2434,4.158,4.105,4.1025,4.0874,4.0664,4.0287,3.9898,3.971,3.9697,3.9697,3.9697,3.9697,3.9722,3.9747,3.971,3.971,3.9697,3.9697,3.9735,3.9747,3.9722,3.971,3.981,4.0162,4.0262,4.0124,3.9747,4.0023,4.0262,4.0362,4.0764,4.1304,4.1769,4.1907,4.2158,4.2547,4.271,4.276,4.2898,4.2986,4.2986,4.2986,4.2986,4.2986,4.2986,4.2986,4.2986,4.2986,4.2986,4.2986,4.2986,4.2986,4.2986,4.2986,4.2986,4.2986,4.2986,4.2986,4.2974,4.2936,4.2848,4.266,4.259,4.2221,4.2007,4.1869,4.1555,4.1141,4.6489,4.6326,4.6313,4.6313,4.6313,4.6313,4.6313,4.6313,4.6313,4.6313,4.6313,4.6313,4.6313,4.6313,4.6313,4.6313,4.6276,4.5937,4.5309,4.443,4.3915,4.3601,4.325,4.3062,4.2986,4.2986,4.2986,4.2986,4.2986,4.2986,4.2986,4.2986,4.2986,4.2986,4.2986,4.2986,4.2986,4.2986,4.2986,4.2986,4.2986,4.2986,4.2986,4.2986,4.2986,4.2986,4.2924,4.2283,4.1856,4.1643,4.1467,4.1112,4.0814,4.0501,4.03,4.0312,4.0312,4.0325,4.0312,4.0375,4.03,4.03,4.03,4.0325,4.0312,4.0312,4.03,4.03,4.0337,4.0438,4.0752,4.0814,4.0651,4.0375,4.0626,4.0902,4.1091,4.1417,4.1856,4.2351,4.2514,4.2703,4.2861,4.2986,4.2986,4.2986,4.2986,4.2986,4.2986,4.2986,4.2986,4.2986,4.2986,4.2986,4.2986,4.2986,4.2986,4.2986,4.2986,4.2986,4.2986,4.2986,4.2986,4.2986,4.2986,4.2986,4.2949,4.2961,4.2861,4.2816,4.2715,4.2627,4.2371,4.1995,4.1605,4.6815,4.6338,4.6313,4.6313,4.6313,4.6313,4.6313,4.6313,4.6313,4.6313,4.6313,4.6313,4.6313,4.6313,4.6313,4.6313,4.6301,4.6263,4.5974,4.5296,4.4543,4.394,4.3689,4.3212,4.2986,4.2986,4.2986,4.2986,4.2986,4.2986,4.2986,4.2986,4.2986,4.2986,4.2986,4.2986,4.2986,4.2986,4.2986,4.2986,4.2986,4.2986,4.2986,4.2986,4.2986,4.2986,4.2949,4.2848,4.2647,4.2275,4.1731,4.1388,4.1338,4.1313,4.1216,4.1137,4.125,4.1175,4.1225,4.11,4.1125,4.11,4.11,4.1275,4.1125,4.105,4.1062,4.1075,4.1112,4.1213,4.1275,4.1379,4.1379,4.1376,4.1351,4.1593,4.215,4.225,4.2464,4.2785,4.2974,4.2986,4.303,4.2986,4.2986,4.2986,4.2986,4.2986,4.2986,4.2986,4.2986,4.2986,4.2986,4.2986,4.2986,4.2986,4.2986,4.2986,4.2986,4.2986,4.2986,4.2986,4.2986,4.2986,4.2986,4.2986,4.2986,4.2986,4.2986,4.2898,4.2898,4.2974,4.2773,4.2384,4.2125,4.6815,4.6326,4.6313,4.6313,4.6313,4.6313,4.6313,4.6313,4.6313,4.6313,4.6313,4.6313,4.6313,4.6313,4.6313,4.6313,4.6313,4.6313,4.6276,4.6012,4.5397,4.4543,4.384,4.325,4.2986,4.2986,4.2986,4.2986,4.2986,4.2986,4.2986,4.2986,4.2986,4.2986,4.2986,4.2986,4.2986,4.2986,4.2986,4.2986,4.2986,4.2986,4.2986,4.2986,4.2986,4.2986,4.2986,4.2986,4.2936,4.276,4.2246,4.1957,4.1907,4.1618,4.1376,4.1376,4.1338,4.1313,4.1313,4.1326,4.1313,4.1275,4.1388,4.1275,4.1275,4.1288,4.1288,4.1275,4.1288,4.1543,4.1844,4.1944,4.2108,4.2434,4.2158,4.22,4.2585,4.2773,4.2836,4.2961,4.2986,4.2986,4.2986,4.2986,4.2986,4.2986,4.2986,4.2986,4.2986,4.2986,4.2986,4.2986,4.2986,4.2986,4.2986,4.2986,4.2986,4.2986,4.2986,4.2986,4.2986,4.2986,4.2986,4.2986,4.2986,4.2986,4.2986,4.2986,4.2986,4.2986,4.2986,4.2986,4.2986,4.2735,4.2527,4.7142,4.664,4.6401,4.6313,4.6313,4.6313,4.6313,4.6313,4.6313,4.6313,4.6313,4.6313,4.6313,4.6313,4.6313,4.6313,4.6313,4.6313,4.6313,4.6213,4.5711,4.4844,4.3953,4.3426,4.32,4.2986,4.2986,4.2986,4.2986,4.2986,4.2986,4.2986,4.2986,4.2986,4.2986,4.2986,4.2986,4.2986,4.2986,4.2986,4.2986,4.2986,4.2986,4.2986,4.2986,4.2986,4.2986,4.2986,4.2986,4.2911,4.2672,4.2564,4.2527,4.2208,4.202,4.2032,4.2032,4.2045,4.2032,4.202,4.2032,4.2032,4.202,4.2032,4.2057,4.202,4.202,4.2057,4.2032,4.2195,4.2464,4.2564,4.2703,4.2823,4.274,4.269,4.2961,4.2961,4.2974,4.2986,4.2986,4.2986,4.2986,4.2986,4.2986,4.2986,4.2986,4.2986,4.2986,4.2986,4.2986,4.2986,4.2986,4.2986,4.2986,4.2986,4.2986,4.2986,4.2986,4.2986,4.2986,4.2986,4.2986,4.2986,4.2986,4.2986,4.2986,4.2986,4.2986,4.2986,4.2986,4.2986,4.2986,4.2974,4.2791,4.7606,4.703,4.6539,4.6313,4.6313,4.6313,4.6313,4.6313,4.6313,4.6313,4.6313,4.6313,4.6313,4.6313,4.6313,4.6313,4.6313,4.6313,4.6313,4.6188,4.5799,4.5095,4.4254,4.3978,4.3614,4.3225,4.3074,4.3037,4.3011,4.2986,4.2986,4.2986,4.2986,4.2986,4.2986,4.2986,4.2986,4.2986,4.2986,4.2986,4.2986,4.2986,4.2986,4.2986,4.2986,4.2986,4.2986,4.2986,4.2986,4.2986,4.2986,4.2924,4.2924,4.2949,4.2924,4.2861,4.2798,4.2836,4.2924,4.2811,4.2886,4.2836,4.2861,4.2986,4.2848,4.2785,4.2785,4.2773,4.2961,4.2873,4.2886,4.2936,4.2936,4.2974,4.2949,4.2974,4.2986,4.2986,4.2986,4.2986,4.2986,4.2986,4.2986,4.2986,4.2986,4.2986,4.2986,4.2986,4.2986,4.2986,4.2986,4.2986,4.2986,4.2986,4.2986,4.2986,4.2986,4.2986,4.2986,4.2986,4.2986,4.2986,4.2986,4.2986,4.2986,4.2986,4.2986,4.2986,4.2986,4.2986,4.2986,4.2986,4.2986,4.2986,4.2836,4.7606,4.703,4.6539,4.6313,4.6313,4.6313,4.6313,4.6313,4.6313,4.6313,4.6313,4.6313,4.6313,4.6313,4.6313,4.6313,4.6313,4.6313,4.6313,4.6301,4.6225,4.5773,4.5108,4.4719,4.4166,4.374,4.3627,4.3401,4.3112,4.3011,4.2986,4.2986,4.2986,4.2986,4.2986,4.2986,4.2986,4.2986,4.2986,4.2986,4.2986,4.2986,4.2986,4.2986,4.2986,4.2986,4.2986,4.2986,4.2986,4.2986,4.2986,4.2986,4.2986,4.2986,4.2986,4.2986,4.2986,4.2986,4.2986,4.2986,4.2986,4.2986,4.2986,4.2986,4.2986,4.2986,4.2986,4.2986,4.2986,4.2986,4.2986,4.2986,4.2986,4.2986,4.2986,4.2986,4.2986,4.2986,4.2986,4.2986,4.2986,4.2986,4.2986,4.2986,4.2986,4.2986,4.2986,4.2986,4.2986,4.2986,4.2986,4.2986,4.2986,4.2986,4.2986,4.2986,4.2986,4.2986,4.2986,4.2986,4.2986,4.2986,4.2986,4.2986,4.2986,4.2986,4.2986,4.2986,4.2986,4.2986,4.2986,4.2986,4.2986,4.2986,4.2974,4.7996,4.7456,4.6916,4.6552,4.6326,4.6313,4.6313,4.6313,4.6313,4.6313,4.6313,4.6313,4.6313,4.6313,4.6313,4.6313,4.6313,4.6313,4.6313,4.6313,4.6301,4.615,4.5949,4.5522,4.5033,4.4305,4.3903,4.3614,4.3376,4.3112,4.2986,4.2986,4.2986,4.2986,4.2986,4.2986,4.2986,4.2986,4.2986,4.2986,4.2986,4.2986,4.2986,4.2986,4.2986,4.2986,4.2986,4.2986,4.2986,4.2986,4.2986,4.2986,4.2986,4.2986,4.2986,4.2986,4.2986,4.2986,4.2986,4.2986,4.2986,4.2986,4.2986,4.2986,4.2986,4.2986,4.2986,4.2986,4.2986,4.2986,4.2986,4.2986,4.2986,4.2986,4.2986,4.2986,4.2986,4.2986,4.2986,4.2986,4.2986,4.2986,4.2986,4.2986,4.2986,4.2986,4.2986,4.2986,4.2986,4.2986,4.2986,4.2986,4.2986,4.2986,4.2986,4.2986,4.2986,4.2986,4.2986,4.2986,4.2986,4.2986,4.2986,4.2986,4.2986,4.2986,4.2986,4.2986,4.2986,4.2986,4.2986,4.2986,4.2986,4.2986,4.2986,4.8485,4.7996,4.7393,4.6866,4.6464,4.6351,4.6313,4.6313,4.6313,4.6313,4.6313,4.6313,4.6313,4.6313,4.6313,4.6313,4.6313,4.6313,4.6313,4.6313,4.6313,4.6276,4.6213,4.6087,4.5761,4.4882,4.4443,4.4104,4.3702,4.3363,4.3137,4.3024,4.2986,4.2986,4.2986,4.2986,4.2986,4.2986,4.2986,4.2986,4.2986,4.2986,4.2986,4.2986,4.2986,4.2986,4.2986,4.2986,4.2986,4.2986,4.2986,4.2986,4.2986,4.2986,4.2986,4.2986,4.2986,4.2986,4.2986,4.2986,4.2986,4.2986,4.2986,4.2986,4.2986,4.2986,4.2986,4.2986,4.2986,4.2986,4.2986,4.2986,4.2986,4.2986,4.2986,4.2986,4.2986,4.2986,4.2986,4.2986,4.2986,4.2986,4.2986,4.2986,4.2986,4.2986,4.2986,4.2986,4.2986,4.2986,4.2986,4.2986,4.2986,4.2986,4.2986,4.2986,4.2986,4.2986,4.2986,4.2986,4.2986,4.2986,4.2986,4.2986,4.2986,4.2986,4.2986,4.2986,4.2986,4.2986,4.2986,4.2986,4.2986,4.2986,4.2986,4.8774,4.8548,4.7544,4.7079,4.6928,4.6514,4.6313,4.6313,4.6313,4.6313,4.6313,4.6313,4.6313,4.6313,4.6313,4.6313,4.6313,4.6313,4.6313,4.6313,4.6313,4.6313,4.6313,4.6301,4.6137,4.5962,4.5409,4.4744,4.4066,4.3677,4.3401,4.3087,4.2986,4.2986,4.2986,4.2986,4.2986,4.2986,4.2986,4.2986,4.2986,4.2986,4.2986,4.2986,4.2986,4.2986,4.2986,4.2986,4.2986,4.2986,4.2986,4.2986,4.2986,4.2986,4.2986,4.2986,4.2986,4.2986,4.2986,4.2986,4.2986,4.2986,4.2986,4.2986,4.2986,4.2986,4.2986,4.2986,4.2986,4.2986,4.2986,4.2986,4.2986,4.2986,4.2986,4.2986,4.2986,4.2986,4.2986,4.2986,4.2986,4.2986,4.2986,4.2986,4.2986,4.2986,4.2986,4.2986,4.2986,4.2986,4.2986,4.2986,4.2986,4.2986,4.2986,4.2986,4.2986,4.2986,4.2986,4.2986,4.2986,4.2986,4.2986,4.2986,4.2986,4.2986,4.2986,4.2986,4.2986,4.2986,4.2986,4.2986,4.2986,4.2986,4.2986,4.9025,4.8699,4.787,4.738,4.7005,4.6552,4.6313,4.6313,4.6313,4.6313,4.6313,4.6313,4.6313,4.6313,4.6313,4.6313,4.6313,4.6313,4.6313,4.6313,4.6313,4.6313,4.6313,4.6313,4.6313,4.6225,4.5974,4.5497,4.4669,4.4041,4.3727,4.3413,4.315,4.2986,4.2986,4.2986,4.2986,4.2986,4.2986,4.2986,4.2986,4.2986,4.2986,4.2986,4.2986,4.2986,4.2986,4.2986,4.2986,4.2986,4.2986,4.2986,4.2986,4.2986,4.2986,4.2986,4.2986,4.2986,4.2986,4.2986,4.2986,4.2986,4.2986,4.2986,4.2986,4.2986,4.2986,4.2986,4.2986,4.2986,4.2986,4.2986,4.2986,4.2986,4.2986,4.2986,4.2986,4.2986,4.2999,4.3011,4.3024,4.3024,4.2986,4.2986,4.2986,4.2986,4.2986,4.3024,4.3037,4.3137,4.3212,4.3087,4.3087,4.3037,4.3011,4.2986,4.2986,4.2986,4.2986,4.2986,4.2986,4.2986,4.2986,4.2986,4.2986,4.2986,4.2986,4.2986,4.2986,4.2986,4.2986,4.2986,4.2986,4.2986,4.2986,4.9339,4.8874,4.8322,4.777,4.7242,4.6702,4.6414,4.6326,4.6313,4.6313,4.6313,4.6313,4.6313,4.6313,4.6313,4.6313,4.6313,4.6313,4.6313,4.6313,4.6313,4.6313,4.6313,4.6313,4.6313,4.6301,4.6263,4.6024,4.5334,4.4669,4.4192,4.3853,4.3426,4.315,4.3175,4.3062,4.3024,4.2986,4.2986,4.2986,4.2986,4.2986,4.2986,4.2986,4.2986,4.2986,4.2986,4.2986,4.2986,4.2986,4.2986,4.2986,4.2986,4.2986,4.2986,4.2986,4.2986,4.2986,4.2986,4.2986,4.2986,4.2986,4.2986,4.2986,4.2986,4.2986,4.2986,4.2986,4.2986,4.2986,4.2986,4.2986,4.2986,4.2986,4.2986,4.2986,4.2986,4.3011,4.3112,4.3112,4.3099,4.3099,4.3099,4.2986,4.2986,4.3124,4.315,4.3325,4.3376,4.3576,4.3589,4.3338,4.3225,4.3124,4.3062,4.2986,4.2986,4.2986,4.2986,4.2986,4.2986,4.2986,4.2986,4.2986,4.2986,4.2986,4.2986,4.2986,4.2986,4.2986,4.2986,4.2986,4.2986,4.2986,4.2986,4.9565,4.9439,4.8887,4.8335,4.777,4.723,4.6728,4.6338,4.6313,4.6313,4.6313,4.6313,4.6313,4.6313,4.6313,4.6313,4.6313,4.6313,4.6313,4.6313,4.6313,4.6313,4.6313,4.6313,4.6313,4.6313,4.6313,4.5987,4.5598,4.5296,4.4957,4.4518,4.4016,4.3702,4.3677,4.33,4.2986,4.2999,4.2999,4.2986,4.2986,4.2986,4.2986,4.2986,4.2986,4.2986,4.2986,4.2986,4.2986,4.2986,4.2986,4.2986,4.2986,4.2986,4.2986,4.2986,4.2986,4.2986,4.2986,4.2986,4.2986,4.2986,4.2986,4.2986,4.2986,4.2986,4.2986,4.2986,4.2986,4.2986,4.2986,4.2986,4.2986,4.3037,4.3099,4.3099,4.3099,4.3438,4.3501,4.3589,4.3702,4.3426,4.3263,4.3112,4.2999,4.3162,4.335,4.3564,4.374,4.3953,4.4041,4.3815,4.3689,4.3601,4.3539,4.3401,4.3325,4.3237,4.3124,4.3112,4.3112,4.3137,4.2986,4.2986,4.2986,4.2986,4.2986,4.2986,4.2986,4.2986,4.2986,4.2986,4.2986,4.2986,4.2986,4.9603,4.9552,4.9,4.8435,4.787,4.7343,4.6828,4.6389,4.6313,4.6313,4.6313,4.6313,4.6313,4.6313,4.6313,4.6313,4.6313,4.6313,4.6313,4.6313,4.6313,4.6313,4.6313,4.6313,4.6313,4.6313,4.6301,4.6263,4.5912,4.561,4.5309,4.5095,4.4581,4.4267,4.4217,4.3714,4.3501,4.3376,4.3187,4.2999,4.2986,4.2986,4.2986,4.2986,4.2986,4.2986,4.2986,4.2986,4.2986,4.2986,4.2986,4.2986,4.2986,4.2986,4.2986,4.2986,4.2986,4.2986,4.2986,4.2986,4.2986,4.2986,4.2986,4.2986,4.2986,4.2986,4.2986,4.2986,4.2986,4.3011,4.3024,4.2986,4.3187,4.3313,4.3438,4.3639,4.3727,4.389,4.4091,4.4192,4.4267,4.4079,4.394,4.3978,4.3903,4.3853,4.4028,4.4217,4.4292,4.4355,4.438,4.4317,4.4254,4.4204,4.4166,4.4091,4.4079,4.394,4.3589,4.3551,4.3413,4.3338,4.3187,4.3024,4.2986,4.2986,4.2986,4.2986,4.2986,4.2986,4.2986,4.2986,4.2986,4.2986,4.2986,4.9603,4.9552,4.9138,4.8636,4.8083,4.7556,4.7029,4.6539,4.6363,4.6313,4.6313,4.6313,4.6313,4.6313,4.6313,4.6313,4.6313,4.6313,4.6313,4.6313,4.6313,4.6313,4.6313,4.6313,4.6313,4.6313,4.6313,4.6276,4.6163,4.5949,4.5736,4.566,4.5121,4.4882,4.4694,4.433,4.4003,4.3978,4.3501,4.3263,4.32,4.3049,4.2999,4.2986,4.2986,4.2986,4.2986,4.2986,4.2986,4.2986,4.2986,4.2986,4.2986,4.2986,4.2986,4.2986,4.2986,4.3087,4.3124,4.3124,4.3011,4.2986,4.2986,4.2986,4.2986,4.2986,4.3112,4.3225,4.3237,4.3288,4.3363,4.3463,4.3664,4.3903,4.4016,4.4292,4.4505,4.4505,4.4618,4.4794,4.4907,4.5033,4.4957,4.5033,4.492,4.4669,4.4719,4.4869,4.4945,4.4957,4.492,4.492,4.4844,4.4731,4.4518,4.4543,4.4618,4.4606,4.4254,4.4053,4.3953,4.3652,4.3388,4.3237,4.3124,4.2986,4.2986,4.2986,4.2986,4.2986,4.2986,4.2986,4.2986,4.2986,4.2986,4.9603,4.959,4.954,4.9188,4.8648,4.8096,4.7556,4.6966,4.6527,4.6338,4.6313,4.6313,4.6313,4.6313,4.6313,4.6313,4.6313,4.6313,4.6313,4.6313,4.6313,4.6313,4.6313,4.6313,4.6313,4.6313,4.6313,4.6313,4.6301,4.6225,4.6175,4.6175,4.5648,4.5485,4.5259,4.4882,4.4531,4.4392,4.3966,4.3765,4.3614,4.3388,4.3137,4.3087,4.3037,4.2986,4.2999,4.3137,4.32,4.32,4.3225,4.3225,4.3288,4.3263,4.3275,4.3275,4.3263,4.3426,4.3589,4.3363,4.3074,4.3011,4.3087,4.3225,4.3275,4.3087,4.3237,4.3677,4.3727,4.394,4.4229,4.4505,4.433,4.4505,4.4606,4.4769,4.492,4.4895,4.5033,4.5321,4.5485,4.5573,4.566,4.5673,4.551,4.5246,4.5321,4.5472,4.5723,4.5773,4.5648,4.5585,4.5472,4.5234,4.4794,4.4832,4.5083,4.5058,4.4794,4.4656,4.4568,4.4192,4.3765,4.3614,4.3514,4.3237,4.2986,4.3011,4.3011,4.2986,4.2986,4.2986,4.2986,4.2986,4.2986,4.9603,4.9603,4.9603,4.9276,4.8812,4.8535,4.7945,4.7118,4.6842,4.6602,4.6313,4.6313,4.6313,4.6313,4.6313,4.6313,4.6313,4.6313,4.6313,4.6313,4.6313,4.6313,4.6313,4.6313,4.6313,4.6313,4.6313,4.6313,4.6313,4.6313,4.6313,4.6213,4.6037,4.6037,4.5811,4.5409,4.5045,4.4681,4.4468,4.4317,4.4267,4.4166,4.3991,4.3991,4.3991,4.3991,4.4003,4.4003,4.3991,4.3953,4.3928,4.389,4.3865,4.389,4.389,4.389,4.3878,4.4041,4.4129,4.3853,4.3639,4.3966,4.4003,4.394,4.3865,4.394,4.4053,4.4254,4.4317,4.4493,4.4556,4.4644,4.4669,4.4995,4.5208,4.5321,4.5384,4.5397,4.5472,4.5761,4.5937,4.6062,4.615,4.6225,4.6024,4.5811,4.5937,4.605,4.6213,4.6313,4.6112,4.6012,4.5886,4.5874,4.5485,4.551,4.561,4.546,4.5321,4.5234,4.5108,4.4656,4.4279,4.4116,4.3915,4.3664,4.3426,4.3162,4.3049,4.3011,4.2986,4.2986,4.2986,4.2986,4.2986,4.9603,4.9603,4.9603,4.9377,4.9012,4.89,4.8247,4.7443,4.7179,4.6828,4.6326,4.6313,4.6313,4.6313,4.6313,4.6313,4.6313,4.6313,4.6313,4.6313,4.6313,4.6313,4.6313,4.6313,4.6313,4.6313,4.6313,4.6313,4.6313,4.6313,4.6313,4.6313,4.6313,4.6276,4.62,4.5937,4.5522,4.5221,4.4945,4.4895,4.4882,4.4669,4.4568,4.4531,4.4518,4.4505,4.448,4.4455,4.4493,4.4493,4.4518,4.4568,4.4593,4.4618,4.4618,4.4618,4.4644,4.4706,4.4706,4.4443,4.4229,4.4418,4.4505,4.4531,4.4618,4.4644,4.4556,4.4857,4.4882,4.4932,4.502,4.5284,4.5372,4.5686,4.5723,4.5811,4.5949,4.5999,4.6062,4.62,4.6288,4.6263,4.6276,4.6313,4.6225,4.6062,4.6112,4.6175,4.6238,4.6313,4.6288,4.6225,4.62,4.6238,4.6263,4.6087,4.5924,4.5949,4.5824,4.5773,4.5573,4.5146,4.4882,4.4782,4.4531,4.4166,4.389,4.3664,4.3325,4.3011,4.2999,4.2986,4.2986,4.2986,4.2986,4.9603,4.9603,4.9603,4.9577,4.9477,4.9,4.8447,4.7857,4.7343,4.6828,4.6351,4.6313,4.6313,4.6313,4.6313,4.6313,4.6313,4.6313,4.6313,4.6313,4.6313,4.6313,4.6313,4.6313,4.6313,4.6313,4.6313,4.6313,4.6313,4.6313,4.6313,4.6313,4.6313,4.6313,4.6313,4.6301,4.6263,4.6175,4.5673,4.5522,4.5384,4.507,4.4932,4.4907,4.492,4.4957,4.497,4.4957,4.4982,4.497,4.4932,4.492,4.4895,4.4882,4.4857,4.4832,4.4782,4.4982,4.5347,4.4895,4.4807,4.4869,4.502,4.4932,4.4769,4.4769,4.4995,4.5422,4.546,4.5698,4.5974,4.6188,4.6137,4.6125,4.6125,4.6163,4.6263,4.6313,4.6313,4.6313,4.6313,4.6313,4.6313,4.6313,4.6313,4.6276,4.6301,4.6313,4.6313,4.6313,4.6313,4.6313,4.6313,4.6313,4.6313,4.6313,4.6263,4.6301,4.625,4.6125,4.6012,4.5711,4.5522,4.5422,4.5095,4.4681,4.4418,4.4179,4.3853,4.3526,4.3087,4.2986,4.2986,4.2986,4.2986,4.9603,4.9603,4.9603,4.9603,4.9565,4.9402,4.8987,4.8385,4.7556,4.6767,4.6401,4.6313,4.6313,4.6313,4.6313,4.6313,4.6313,4.6313,4.6313,4.6313,4.6313,4.6313,4.6313,4.6313,4.6313,4.6313,4.6313,4.6313,4.6313,4.6313,4.6313,4.6313,4.6313,4.6313,4.6313,4.6313,4.6301,4.6288,4.6112,4.6037,4.6012,4.5811,4.5686,4.566,4.5648,4.5635,4.5623,4.5585,4.5598,4.561,4.5585,4.561,4.5623,4.5635,4.566,4.5686,4.5711,4.5799,4.5987,4.5811,4.5761,4.5711,4.5635,4.5623,4.5723,4.5748,4.5886,4.5937,4.5949,4.6125,4.625,4.6276,4.625,4.625,4.6263,4.6263,4.6313,4.6313,4.6313,4.6313,4.6313,4.6313,4.6313,4.6313,4.6313,4.6313,4.6313,4.6313,4.6313,4.6313,4.6313,4.6313,4.6313,4.6313,4.6313,4.6313,4.6313,4.6313,4.6313,4.6263,4.6163,4.6062,4.6037,4.5886,4.5535,4.5183,4.4932,4.4681,4.4418,4.4079,4.3614,4.32,4.3099,4.3062,4.2986,4.9603,4.9603,4.9603,4.9603,4.9603,4.9603,4.9276,4.8636,4.7631,4.6916,4.6627,4.6426,4.6313,4.6313,4.6313,4.6313,4.6313,4.6313,4.6313,4.6313,4.6313,4.6313,4.6313,4.6313,4.6313,4.6313,4.6313,4.6313,4.6313,4.6313,4.6313,4.6313,4.6313,4.6313,4.6313,4.6313,4.6313,4.6301,4.6238,4.625,4.625,4.6238,4.625,4.6238,4.6238,4.6263,4.6288,4.6313,4.6313,4.6313,4.6313,4.6313,4.6313,4.6313,4.6313,4.6313,4.6313,4.6288,4.6263,4.625,4.6163,4.62,4.6313,4.6313,4.6313,4.6188,4.6213,4.6263,4.6313,4.6313,4.6313,4.6313,4.6313,4.6313,4.6313,4.6313,4.6313,4.6313,4.6313,4.6313,4.6313,4.6313,4.6313,4.6313,4.6313,4.6313,4.6313,4.6313,4.6313,4.6313,4.6313,4.6313,4.6313,4.6313,4.6313,4.6313,4.6313,4.6313,4.6313,4.6313,4.6301,4.62,4.6276,4.6313,4.5974,4.566,4.5422,4.5171,4.4907,4.4556,4.4116,4.3714,4.3338,4.3162,4.3074,4.9603,4.9603,4.9603,4.9603,4.9603,4.9603,4.9276,4.8699,4.7682,4.7205,4.7018,4.6564,4.6389,4.6326,4.6313,4.6313,4.6313,4.6313,4.6313,4.6313,4.6313,4.6313,4.6313,4.6313,4.6313,4.6313,4.6313,4.6313,4.6313,4.6313,4.6313,4.6313,4.6313,4.6313,4.6313,4.6313,4.6313,4.6313,4.6313,4.6313,4.6313,4.6313,4.6313,4.6313,4.6313,4.6313,4.6313,4.6313,4.6313,4.6313,4.6313,4.6313,4.6313,4.6313,4.6313,4.6313,4.6313,4.6313,4.6313,4.6313,4.6313,4.6313,4.6313,4.6313,4.6313,4.6313,4.6313,4.6313,4.6313,4.6313,4.6313,4.6313,4.6313,4.6313,4.6313,4.6313,4.6313,4.6313,4.6313,4.6313,4.6313,4.6313,4.6313,4.6313,4.6313,4.6313,4.6313,4.6313,4.6313,4.6313,4.6313,4.6313,4.6313,4.6313,4.6313,4.6313,4.6313,4.6313,4.6313,4.6313,4.6313,4.6313,4.6313,4.6313,4.6313,4.6125,4.5824,4.5585,4.5372,4.5008,4.4731,4.4129,4.3727,4.3363,4.3212,4.9603,4.9603,4.9603,4.9603,4.9603,4.9603,4.9276,4.8749,4.8372,4.7933,4.7055,4.6966,4.6677,4.6338,4.6313,4.6313,4.6313,4.6313,4.6313,4.6313,4.6313,4.6313,4.6313,4.6313,4.6313,4.6313,4.6313,4.6313,4.6313,4.6313,4.6313,4.6313,4.6313,4.6313,4.6313,4.6313,4.6313,4.6313,4.6313,4.6313,4.6313,4.6313,4.6313,4.6313,4.6313,4.6313,4.6313,4.6313,4.6313,4.6313,4.6313,4.6313,4.6313,4.6313,4.6313,4.6313,4.6313,4.6313,4.6313,4.6313,4.6313,4.6313,4.6313,4.6313,4.6313,4.6313,4.6313,4.6313,4.6313,4.6313,4.6313,4.6313,4.6313,4.6313,4.6313,4.6313,4.6313,4.6313,4.6313,4.6313,4.6313,4.6313,4.6313,4.6313,4.6313,4.6313,4.6313,4.6313,4.6313,4.6313,4.6313,4.6313,4.6313,4.6313,4.6313,4.6313,4.6313,4.6313,4.6313,4.6313,4.6313,4.6313,4.6313,4.6313,4.6313,4.6276,4.6175,4.5949,4.5761,4.5773,4.551,4.4769,4.4116,4.374,4.3313,4.9603,4.9603,4.9603,4.9603,4.9603,4.9603,4.9377,4.9088,4.8874,4.8347,4.777,4.7305,4.6954,4.6665,4.6439,4.6313,4.6313,4.6313,4.6313,4.6313,4.6313,4.6313,4.6313,4.6313,4.6313,4.6313,4.6313,4.6313,4.6313,4.6313,4.6313,4.6313,4.6313,4.6313,4.6313,4.6313,4.6313,4.6313,4.6313,4.6313,4.6313,4.6313,4.6313,4.6313,4.6313,4.6313,4.6313,4.6313,4.6313,4.6313,4.6313,4.6313,4.6313,4.6313,4.6313,4.6313,4.6313,4.6313,4.6313,4.6313,4.6313,4.6313,4.6313,4.6313,4.6313,4.6313,4.6313,4.6313,4.6313,4.6313,4.6313,4.6313,4.6313,4.6313,4.6313,4.6313,4.6313,4.6313,4.6313,4.6313,4.6313,4.6313,4.6313,4.6313,4.6313,4.6313,4.6313,4.6313,4.6313,4.6313,4.6313,4.6313,4.6313,4.6313,4.6313,4.6313,4.6313,4.6313,4.6313,4.6313,4.6313,4.6313,4.6313,4.6313,4.6313,4.6276,4.625,4.6276,4.6175,4.6137,4.6024,4.546,4.4719,4.4066,4.3614,4.9603,4.9603,4.9603,4.9603,4.9603,4.9603,4.9577,4.954,4.9075,4.8799,4.8535,4.7732,4.728,4.7004,4.6665,4.6414,4.6351,4.6313,4.6313,4.6313,4.6313,4.6313,4.6313,4.6313,4.6313,4.6313,4.6313,4.6313,4.6313,4.6313,4.6313,4.6313,4.6313,4.6313,4.6313,4.6313,4.6313,4.6313,4.6313,4.6313,4.6313,4.6313,4.6313,4.6313,4.6313,4.6313,4.6313,4.6313,4.6313,4.6313,4.6313,4.6313,4.6313,4.6313,4.6313,4.6313,4.6313,4.6313,4.6313,4.6313,4.6313,4.6313,4.6313,4.6313,4.6313,4.6313,4.6313,4.6313,4.6313,4.6313,4.6313,4.6313,4.6313,4.6313,4.6313,4.6313,4.6313,4.6313,4.6313,4.6313,4.6313,4.6313,4.6313,4.6313,4.6313,4.6313,4.6313,4.6313,4.6351,4.6363,4.6363,4.6363,4.6313,4.6313,4.6313,4.6313,4.6313,4.6313,4.6313,4.6313,4.6313,4.6313,4.6313,4.6313,4.6313,4.6313,4.6301,4.6313,4.6313,4.6276,4.615,4.5987,4.5397,4.4606,4.3978,4.9603,4.9603,4.9603,4.9603,4.9603,4.9603,4.9603,4.959,4.9464,4.9151,4.8774,4.8447,4.7908,4.7267,4.7054,4.6778,4.6414,4.6426,4.6326,4.6313,4.6313,4.6313,4.6313,4.6313,4.6313,4.6313,4.6313,4.6313,4.6313,4.6313,4.6313,4.6313,4.6313,4.6313,4.6313,4.6313,4.6313,4.6313,4.6313,4.6313,4.6313,4.6313,4.6313,4.6313,4.6313,4.6313,4.6313,4.6313,4.6313,4.6313,4.6313,4.6313,4.6313,4.6313,4.6313,4.6313,4.6313,4.6313,4.6313,4.6313,4.6313,4.6313,4.6313,4.6313,4.6313,4.6313,4.6313,4.6313,4.6313,4.6313,4.6313,4.6313,4.6313,4.6313,4.6313,4.6313,4.6313,4.6313,4.6313,4.6313,4.6313,4.6313,4.6313,4.6338,4.6313,4.6313,4.6313,4.6338,4.6439,4.6476,4.6502,4.6476,4.6338,4.6313,4.6313,4.6313,4.6313,4.6313,4.6313,4.6313,4.6313,4.6313,4.6313,4.6313,4.6313,4.6313,4.6313,4.6313,4.6313,4.6313,4.6263,4.61,4.5824,4.5146,4.4505,4.9603,4.9603,4.9603,4.9603,4.9603,4.9603,4.9603,4.9603,4.959,4.9427,4.9113,4.8862,4.841,4.7782,4.7619,4.7192,4.674,4.6677,4.6514,4.6389,4.6351,4.6313,4.6313,4.6313,4.6313,4.6313,4.6313,4.6313,4.6313,4.6313,4.6313,4.6313,4.6313,4.6313,4.6313,4.6313,4.6313,4.6313,4.6313,4.6313,4.6313,4.6313,4.6313,4.6313,4.6313,4.6313,4.6313,4.6313,4.6313,4.6313,4.6313,4.6313,4.6313,4.6313,4.6313,4.6313,4.6313,4.6313,4.6313,4.6313,4.6313,4.6313,4.6313,4.6313,4.6313,4.6313,4.6313,4.6313,4.6313,4.6313,4.6313,4.6313,4.6313,4.6313,4.6313,4.6313,4.6313,4.6313,4.6313,4.6313,4.6313,4.6313,4.6401,4.669,4.6702,4.6841,4.6765,4.6941,4.6954,4.679,4.6765,4.669,4.6615,4.6401,4.6313,4.6313,4.6313,4.6313,4.6313,4.6313,4.6313,4.6313,4.6313,4.6313,4.6313,4.6313,4.6313,4.6313,4.6313,4.6313,4.6276,4.6225,4.5924,4.5623,4.502,4.9603,4.9603,4.9603,4.9603,4.9603,4.9603,4.9603,4.9603,4.9603,4.959,4.9502,4.9088,4.8874,4.8586,4.8284,4.7744,4.7368,4.7242,4.6916,4.6589,4.6489,4.6414,4.6351,4.6313,4.6313,4.6313,4.6313,4.6313,4.6313,4.6313,4.6313,4.6313,4.6313,4.6313,4.6313,4.6313,4.6313,4.6313,4.6313,4.6313,4.6313,4.6313,4.6313,4.6313,4.6313,4.6313,4.6313,4.6313,4.6313,4.6313,4.6313,4.6313,4.6313,4.6313,4.6313,4.6313,4.6313,4.6313,4.6313,4.6313,4.6313,4.6313,4.6313,4.6326,4.6338,4.6351,4.6351,4.6351,4.6351,4.6351,4.6351,4.6363,4.6363,4.6401,4.6401,4.6451,4.6464,4.6514,4.6552,4.6552,4.6552,4.6552,4.674,4.7029,4.7179,4.733,4.7506,4.7732,4.7807,4.7518,4.7355,4.7217,4.7092,4.6828,4.6439,4.6389,4.6414,4.6313,4.6313,4.6313,4.6313,4.6313,4.6313,4.6313,4.6313,4.6313,4.6373,4.6373,4.6373,4.6373,4.6301,4.6263,4.6188,4.5861,4.5493,4.9603,4.9603,4.9603,4.9603,4.9603,4.9603,4.9603,4.9603,4.9603,4.9603,4.9565,4.949,4.9226,4.8786,4.8699,4.8309,4.7845,4.777,4.7443,4.7054,4.6891,4.6652,4.6439,4.6363,4.6326,4.6313,4.6313,4.6313,4.6313,4.6313,4.6313,4.6313,4.6313,4.6313,4.6313,4.6313,4.6313,4.6313,4.6313,4.6313,4.6313,4.6313,4.6313,4.6313,4.6313,4.6313,4.6313,4.6313,4.6313,4.6313,4.6313,4.6313,4.6313,4.6313,4.6313,4.6313,4.6313,4.6313,4.6313,4.6313,4.6313,4.6439,4.6451,4.6464,4.6489,4.6514,4.6514,4.6514,4.6502,4.6464,4.6464,4.6502,4.6527,4.6652,4.6702,4.6891,4.6991,4.723,4.7431,4.7431,4.7431,4.7431,4.7456,4.7657,4.7732,4.7857,4.7933,4.8146,4.8222,4.8071,4.802,4.7844,4.7668,4.7016,4.6527,4.6564,4.6564,4.6426,4.6313,4.6313,4.6313,4.6313,4.6313,4.6313,4.6373,4.6434,4.6434,4.6481,4.6601,4.6601,4.6434,4.6288,4.6263,4.6245,4.5935]}]]